<?xml version="1.0" encoding="UTF-8" standalone="no" ?>
<gpx xmlns="http://www.topografix.com/GPX/1/1" xmlns:xsi="http://www.w3.org/2001/XMLSchema-instance" xsi:schemaLocation="http://www.topografix.com/GPX/1/1 http://www.topografix.com/GPX/1/1/gpx.xsd" version="1.1" creator="VisuGPX - https://www.visugpx.com">
  <metadata>
    <name>Ma GTJ Gravel customisée</name>
  </metadata>
  <trk>
    <name><![CDATA[GTJ Gravielo EP 3]]></name>
    <extensions>
      <line xmlns="http://www.topografix.com/GPX/gpx_style/0/2">
        <color>FF0000</color>
        <width>4</width>
      </line>
    </extensions>
    <trkseg>
      <trkpt lat="46.85839" lon="6.34106">
        <ele>856.9</ele>
        <time>2024-05-10T06:44:23Z</time>
      </trkpt>
      <trkpt lat="46.8582" lon="6.34052">
        <ele>856.8</ele>
        <time>2024-05-10T06:44:33Z</time>
      </trkpt>
      <trkpt lat="46.85806" lon="6.33984">
        <ele>856.9</ele>
        <time>2024-05-10T06:44:44Z</time>
      </trkpt>
      <trkpt lat="46.85785" lon="6.33913">
        <ele>856.9</ele>
        <time>2024-05-10T06:44:55Z</time>
      </trkpt>
      <trkpt lat="46.85762" lon="6.3384">
        <ele>857.2</ele>
        <time>2024-05-10T06:45:06Z</time>
      </trkpt>
      <trkpt lat="46.85733" lon="6.33772">
        <ele>857</ele>
        <time>2024-05-10T06:45:17Z</time>
      </trkpt>
      <trkpt lat="46.85677" lon="6.33725">
        <ele>855.9</ele>
        <time>2024-05-10T06:45:28Z</time>
      </trkpt>
      <trkpt lat="46.8563" lon="6.33671">
        <ele>855</ele>
        <time>2024-05-10T06:45:38Z</time>
      </trkpt>
      <trkpt lat="46.8559" lon="6.33632">
        <ele>854.5</ele>
        <time>2024-05-10T06:45:49Z</time>
      </trkpt>
      <trkpt lat="46.85554" lon="6.33623">
        <ele>854.3</ele>
        <time>2024-05-10T06:45:59Z</time>
      </trkpt>
      <trkpt lat="46.85505" lon="6.33614">
        <ele>854.1</ele>
        <time>2024-05-10T06:46:09Z</time>
      </trkpt>
      <trkpt lat="46.85447" lon="6.33604">
        <ele>854.2</ele>
        <time>2024-05-10T06:46:20Z</time>
      </trkpt>
      <trkpt lat="46.85395" lon="6.3359">
        <ele>854.7</ele>
        <time>2024-05-10T06:46:30Z</time>
      </trkpt>
      <trkpt lat="46.85355" lon="6.33555">
        <ele>855.2</ele>
        <time>2024-05-10T06:46:41Z</time>
      </trkpt>
      <trkpt lat="46.85317" lon="6.33514">
        <ele>855.4</ele>
        <time>2024-05-10T06:46:52Z</time>
      </trkpt>
      <trkpt lat="46.85279" lon="6.33472">
        <ele>854.9</ele>
        <time>2024-05-10T06:47:02Z</time>
      </trkpt>
      <trkpt lat="46.85233" lon="6.3344">
        <ele>854.3</ele>
        <time>2024-05-10T06:47:12Z</time>
      </trkpt>
      <trkpt lat="46.85173" lon="6.33399">
        <ele>853.4</ele>
        <time>2024-05-10T06:47:23Z</time>
      </trkpt>
      <trkpt lat="46.85117" lon="6.33347">
        <ele>852.8</ele>
        <time>2024-05-10T06:47:34Z</time>
      </trkpt>
      <trkpt lat="46.8505" lon="6.3332">
        <ele>852.1</ele>
        <time>2024-05-10T06:47:46Z</time>
      </trkpt>
      <trkpt lat="46.84992" lon="6.33321">
        <ele>852.3</ele>
        <time>2024-05-10T06:47:56Z</time>
      </trkpt>
      <trkpt lat="46.84938" lon="6.33327">
        <ele>852.7</ele>
        <time>2024-05-10T06:48:06Z</time>
      </trkpt>
      <trkpt lat="46.84882" lon="6.33342">
        <ele>853.3</ele>
        <time>2024-05-10T06:48:16Z</time>
      </trkpt>
      <trkpt lat="46.84833" lon="6.33329">
        <ele>853.7</ele>
        <time>2024-05-10T06:48:27Z</time>
      </trkpt>
      <trkpt lat="46.8478" lon="6.33314">
        <ele>854.4</ele>
        <time>2024-05-10T06:48:37Z</time>
      </trkpt>
      <trkpt lat="46.84724" lon="6.33289">
        <ele>855</ele>
        <time>2024-05-10T06:48:47Z</time>
      </trkpt>
      <trkpt lat="46.84668" lon="6.33262">
        <ele>855.1</ele>
        <time>2024-05-10T06:48:58Z</time>
      </trkpt>
      <trkpt lat="46.84611" lon="6.33232">
        <ele>855.2</ele>
        <time>2024-05-10T06:49:09Z</time>
      </trkpt>
      <trkpt lat="46.84557" lon="6.33207">
        <ele>855</ele>
        <time>2024-05-10T06:49:19Z</time>
      </trkpt>
      <trkpt lat="46.845" lon="6.33181">
        <ele>854.9</ele>
        <time>2024-05-10T06:49:29Z</time>
      </trkpt>
      <trkpt lat="46.84442" lon="6.33143">
        <ele>854.7</ele>
        <time>2024-05-10T06:49:40Z</time>
      </trkpt>
      <trkpt lat="46.84381" lon="6.33161">
        <ele>854.6</ele>
        <time>2024-05-10T06:49:51Z</time>
      </trkpt>
      <trkpt lat="46.84354" lon="6.3324">
        <ele>855</ele>
        <time>2024-05-10T06:50:01Z</time>
      </trkpt>
      <trkpt lat="46.84316" lon="6.33314">
        <ele>855.1</ele>
        <time>2024-05-10T06:50:12Z</time>
      </trkpt>
      <trkpt lat="46.84261" lon="6.33319">
        <ele>855.8</ele>
        <time>2024-05-10T06:50:23Z</time>
      </trkpt>
      <trkpt lat="46.84249" lon="6.33236">
        <ele>856.5</ele>
        <time>2024-05-10T06:50:34Z</time>
      </trkpt>
      <trkpt lat="46.84225" lon="6.33163">
        <ele>857</ele>
        <time>2024-05-10T06:50:44Z</time>
      </trkpt>
      <trkpt lat="46.84198" lon="6.33092">
        <ele>857.9</ele>
        <time>2024-05-10T06:50:55Z</time>
      </trkpt>
      <trkpt lat="46.84158" lon="6.33031">
        <ele>858.7</ele>
        <time>2024-05-10T06:51:06Z</time>
      </trkpt>
      <trkpt lat="46.84102" lon="6.33023">
        <ele>859.3</ele>
        <time>2024-05-10T06:51:16Z</time>
      </trkpt>
      <trkpt lat="46.8404" lon="6.33007">
        <ele>860.3</ele>
        <time>2024-05-10T06:51:26Z</time>
      </trkpt>
      <trkpt lat="46.83986" lon="6.33005">
        <ele>861</ele>
        <time>2024-05-10T06:51:36Z</time>
      </trkpt>
      <trkpt lat="46.83935" lon="6.33011">
        <ele>861.8</ele>
        <time>2024-05-10T06:51:47Z</time>
      </trkpt>
      <trkpt lat="46.83908" lon="6.33075">
        <ele>862.3</ele>
        <time>2024-05-10T06:51:57Z</time>
      </trkpt>
      <trkpt lat="46.83907" lon="6.33156">
        <ele>863.1</ele>
        <time>2024-05-10T06:52:07Z</time>
      </trkpt>
      <trkpt lat="46.83902" lon="6.33236">
        <ele>864</ele>
        <time>2024-05-10T06:52:18Z</time>
      </trkpt>
      <trkpt lat="46.83859" lon="6.33266">
        <ele>864.9</ele>
        <time>2024-05-10T06:52:28Z</time>
      </trkpt>
      <trkpt lat="46.8381" lon="6.33244">
        <ele>865.9</ele>
        <time>2024-05-10T06:52:39Z</time>
      </trkpt>
      <trkpt lat="46.83767" lon="6.33209">
        <ele>866.8</ele>
        <time>2024-05-10T06:52:50Z</time>
      </trkpt>
      <trkpt lat="46.83723" lon="6.33166">
        <ele>867.8</ele>
        <time>2024-05-10T06:53:01Z</time>
      </trkpt>
      <trkpt lat="46.83682" lon="6.33142">
        <ele>868.5</ele>
        <time>2024-05-10T06:53:11Z</time>
      </trkpt>
      <trkpt lat="46.83645" lon="6.33134">
        <ele>869</ele>
        <time>2024-05-10T06:53:22Z</time>
      </trkpt>
      <trkpt lat="46.83634" lon="6.33122">
        <ele>869.2</ele>
        <time>2024-05-10T06:53:32Z</time>
      </trkpt>
      <trkpt lat="46.83634" lon="6.33122">
        <ele>869.2</ele>
        <time>2024-05-10T06:53:43Z</time>
      </trkpt>
      <trkpt lat="46.83634" lon="6.33122">
        <ele>869.2</ele>
        <time>2024-05-10T06:53:53Z</time>
      </trkpt>
      <trkpt lat="46.83634" lon="6.33122">
        <ele>869.2</ele>
        <time>2024-05-10T06:54:03Z</time>
      </trkpt>
      <trkpt lat="46.83633" lon="6.33125">
        <ele>869.2</ele>
        <time>2024-05-10T06:54:14Z</time>
      </trkpt>
      <trkpt lat="46.83634" lon="6.33125">
        <ele>869.2</ele>
        <time>2024-05-10T06:54:24Z</time>
      </trkpt>
      <trkpt lat="46.83629" lon="6.331">
        <ele>869.4</ele>
        <time>2024-05-10T06:54:35Z</time>
      </trkpt>
      <trkpt lat="46.83606" lon="6.33042">
        <ele>870</ele>
        <time>2024-05-10T06:54:46Z</time>
      </trkpt>
      <trkpt lat="46.83596" lon="6.32974">
        <ele>870.3</ele>
        <time>2024-05-10T06:54:56Z</time>
      </trkpt>
      <trkpt lat="46.83572" lon="6.32895">
        <ele>870.6</ele>
        <time>2024-05-10T06:55:07Z</time>
      </trkpt>
      <trkpt lat="46.83538" lon="6.32815">
        <ele>870.3</ele>
        <time>2024-05-10T06:55:17Z</time>
      </trkpt>
      <trkpt lat="46.83509" lon="6.32734">
        <ele>870.4</ele>
        <time>2024-05-10T06:55:27Z</time>
      </trkpt>
      <trkpt lat="46.83475" lon="6.32644">
        <ele>870.5</ele>
        <time>2024-05-10T06:55:39Z</time>
      </trkpt>
      <trkpt lat="46.83427" lon="6.32566">
        <ele>870.5</ele>
        <time>2024-05-10T06:55:50Z</time>
      </trkpt>
      <trkpt lat="46.83398" lon="6.32471">
        <ele>870.5</ele>
        <time>2024-05-10T06:56:00Z</time>
      </trkpt>
      <trkpt lat="46.83372" lon="6.32379">
        <ele>870.5</ele>
        <time>2024-05-10T06:56:11Z</time>
      </trkpt>
      <trkpt lat="46.83359" lon="6.32288">
        <ele>870.5</ele>
        <time>2024-05-10T06:56:22Z</time>
      </trkpt>
      <trkpt lat="46.83351" lon="6.32196">
        <ele>870.3</ele>
        <time>2024-05-10T06:56:32Z</time>
      </trkpt>
      <trkpt lat="46.83354" lon="6.32098">
        <ele>870.8</ele>
        <time>2024-05-10T06:56:42Z</time>
      </trkpt>
      <trkpt lat="46.8333" lon="6.32028">
        <ele>871.4</ele>
        <time>2024-05-10T06:56:52Z</time>
      </trkpt>
      <trkpt lat="46.83274" lon="6.31996">
        <ele>872.2</ele>
        <time>2024-05-10T06:57:03Z</time>
      </trkpt>
      <trkpt lat="46.83246" lon="6.3193">
        <ele>872.9</ele>
        <time>2024-05-10T06:57:14Z</time>
      </trkpt>
      <trkpt lat="46.83222" lon="6.31857">
        <ele>873.6</ele>
        <time>2024-05-10T06:57:24Z</time>
      </trkpt>
      <trkpt lat="46.83169" lon="6.31816">
        <ele>874</ele>
        <time>2024-05-10T06:57:35Z</time>
      </trkpt>
      <trkpt lat="46.83132" lon="6.31756">
        <ele>874.6</ele>
        <time>2024-05-10T06:57:46Z</time>
      </trkpt>
      <trkpt lat="46.8309" lon="6.31704">
        <ele>875.3</ele>
        <time>2024-05-10T06:57:57Z</time>
      </trkpt>
      <trkpt lat="46.83042" lon="6.31672">
        <ele>876.4</ele>
        <time>2024-05-10T06:58:07Z</time>
      </trkpt>
      <trkpt lat="46.82992" lon="6.3164">
        <ele>877.6</ele>
        <time>2024-05-10T06:58:18Z</time>
      </trkpt>
      <trkpt lat="46.82943" lon="6.31607">
        <ele>878.6</ele>
        <time>2024-05-10T06:58:29Z</time>
      </trkpt>
      <trkpt lat="46.82894" lon="6.31575">
        <ele>879.5</ele>
        <time>2024-05-10T06:58:40Z</time>
      </trkpt>
      <trkpt lat="46.82848" lon="6.31541">
        <ele>880</ele>
        <time>2024-05-10T06:58:51Z</time>
      </trkpt>
      <trkpt lat="46.82811" lon="6.31494">
        <ele>880.7</ele>
        <time>2024-05-10T06:59:01Z</time>
      </trkpt>
      <trkpt lat="46.8281" lon="6.31491">
        <ele>880.7</ele>
        <time>2024-05-10T06:59:12Z</time>
      </trkpt>
      <trkpt lat="46.82809" lon="6.3149">
        <ele>880.7</ele>
        <time>2024-05-10T06:59:22Z</time>
      </trkpt>
      <trkpt lat="46.82809" lon="6.3149">
        <ele>880.7</ele>
        <time>2024-05-10T06:59:33Z</time>
      </trkpt>
      <trkpt lat="46.82809" lon="6.3149">
        <ele>880.7</ele>
        <time>2024-05-10T06:59:44Z</time>
      </trkpt>
      <trkpt lat="46.82807" lon="6.3149">
        <ele>880.7</ele>
        <time>2024-05-10T06:59:54Z</time>
      </trkpt>
      <trkpt lat="46.82782" lon="6.31452">
        <ele>880.4</ele>
        <time>2024-05-10T07:00:05Z</time>
      </trkpt>
      <trkpt lat="46.82748" lon="6.31379">
        <ele>879.8</ele>
        <time>2024-05-10T07:00:16Z</time>
      </trkpt>
      <trkpt lat="46.82714" lon="6.31306">
        <ele>879.3</ele>
        <time>2024-05-10T07:00:26Z</time>
      </trkpt>
      <trkpt lat="46.82682" lon="6.31226">
        <ele>878.7</ele>
        <time>2024-05-10T07:00:37Z</time>
      </trkpt>
      <trkpt lat="46.8266" lon="6.31125">
        <ele>878</ele>
        <time>2024-05-10T07:00:47Z</time>
      </trkpt>
      <trkpt lat="46.82636" lon="6.31035">
        <ele>877</ele>
        <time>2024-05-10T07:00:57Z</time>
      </trkpt>
      <trkpt lat="46.82573" lon="6.30964">
        <ele>875.3</ele>
        <time>2024-05-10T07:01:08Z</time>
      </trkpt>
      <trkpt lat="46.82498" lon="6.30911">
        <ele>873.7</ele>
        <time>2024-05-10T07:01:19Z</time>
      </trkpt>
      <trkpt lat="46.82423" lon="6.3093">
        <ele>872.7</ele>
        <time>2024-05-10T07:01:30Z</time>
      </trkpt>
      <trkpt lat="46.82366" lon="6.30975">
        <ele>872.7</ele>
        <time>2024-05-10T07:01:40Z</time>
      </trkpt>
      <trkpt lat="46.82321" lon="6.31024">
        <ele>873</ele>
        <time>2024-05-10T07:01:50Z</time>
      </trkpt>
      <trkpt lat="46.82272" lon="6.31079">
        <ele>873.1</ele>
        <time>2024-05-10T07:02:01Z</time>
      </trkpt>
      <trkpt lat="46.82223" lon="6.31117">
        <ele>873.2</ele>
        <time>2024-05-10T07:02:12Z</time>
      </trkpt>
      <trkpt lat="46.8218" lon="6.31125">
        <ele>875.7</ele>
        <time>2024-05-10T07:02:22Z</time>
      </trkpt>
      <trkpt lat="46.82132" lon="6.31132">
        <ele>876.2</ele>
        <time>2024-05-10T07:02:33Z</time>
      </trkpt>
      <trkpt lat="46.82099" lon="6.3113">
        <ele>877.5</ele>
        <time>2024-05-10T07:02:43Z</time>
      </trkpt>
      <trkpt lat="46.82089" lon="6.31126">
        <ele>877.8</ele>
        <time>2024-05-10T07:02:54Z</time>
      </trkpt>
      <trkpt lat="46.82089" lon="6.31126">
        <ele>877.8</ele>
        <time>2024-05-10T07:03:05Z</time>
      </trkpt>
      <trkpt lat="46.82089" lon="6.31125">
        <ele>877.8</ele>
        <time>2024-05-10T07:03:15Z</time>
      </trkpt>
      <trkpt lat="46.8209" lon="6.31128">
        <ele>877.9</ele>
        <time>2024-05-10T07:03:26Z</time>
      </trkpt>
      <trkpt lat="46.82092" lon="6.31129">
        <ele>877.9</ele>
        <time>2024-05-10T07:03:36Z</time>
      </trkpt>
      <trkpt lat="46.82092" lon="6.31129">
        <ele>877.9</ele>
        <time>2024-05-10T07:03:47Z</time>
      </trkpt>
      <trkpt lat="46.82092" lon="6.31129">
        <ele>877.9</ele>
        <time>2024-05-10T07:03:57Z</time>
      </trkpt>
      <trkpt lat="46.82092" lon="6.31129">
        <ele>877.9</ele>
        <time>2024-05-10T07:04:08Z</time>
      </trkpt>
      <trkpt lat="46.82091" lon="6.31128">
        <ele>877.9</ele>
        <time>2024-05-10T07:04:18Z</time>
      </trkpt>
      <trkpt lat="46.82091" lon="6.31128">
        <ele>877.9</ele>
        <time>2024-05-10T07:04:29Z</time>
      </trkpt>
      <trkpt lat="46.82091" lon="6.31128">
        <ele>877.9</ele>
        <time>2024-05-10T07:04:40Z</time>
      </trkpt>
      <trkpt lat="46.82091" lon="6.31128">
        <ele>877.9</ele>
        <time>2024-05-10T07:04:50Z</time>
      </trkpt>
      <trkpt lat="46.82091" lon="6.31127">
        <ele>877.9</ele>
        <time>2024-05-10T07:05:00Z</time>
      </trkpt>
      <trkpt lat="46.82089" lon="6.31128">
        <ele>877.9</ele>
        <time>2024-05-10T07:05:10Z</time>
      </trkpt>
      <trkpt lat="46.82068" lon="6.31119">
        <ele>878</ele>
        <time>2024-05-10T07:05:20Z</time>
      </trkpt>
      <trkpt lat="46.82021" lon="6.31091">
        <ele>878.5</ele>
        <time>2024-05-10T07:05:31Z</time>
      </trkpt>
      <trkpt lat="46.81978" lon="6.31055">
        <ele>878.7</ele>
        <time>2024-05-10T07:05:42Z</time>
      </trkpt>
      <trkpt lat="46.81941" lon="6.30999">
        <ele>878</ele>
        <time>2024-05-10T07:05:53Z</time>
      </trkpt>
      <trkpt lat="46.8191" lon="6.30959">
        <ele>879.8</ele>
        <time>2024-05-10T07:06:04Z</time>
      </trkpt>
      <trkpt lat="46.81888" lon="6.30917">
        <ele>880.4</ele>
        <time>2024-05-10T07:06:14Z</time>
      </trkpt>
      <trkpt lat="46.8187" lon="6.30852">
        <ele>880.3</ele>
        <time>2024-05-10T07:06:24Z</time>
      </trkpt>
      <trkpt lat="46.81861" lon="6.30777">
        <ele>878.6</ele>
        <time>2024-05-10T07:06:34Z</time>
      </trkpt>
      <trkpt lat="46.81802" lon="6.30783">
        <ele>877.4</ele>
        <time>2024-05-10T07:06:45Z</time>
      </trkpt>
      <trkpt lat="46.81733" lon="6.30739">
        <ele>876.9</ele>
        <time>2024-05-10T07:06:56Z</time>
      </trkpt>
      <trkpt lat="46.81687" lon="6.30703">
        <ele>878.6</ele>
        <time>2024-05-10T07:07:06Z</time>
      </trkpt>
      <trkpt lat="46.81638" lon="6.30654">
        <ele>878.6</ele>
        <time>2024-05-10T07:07:17Z</time>
      </trkpt>
      <trkpt lat="46.81593" lon="6.30599">
        <ele>879.9</ele>
        <time>2024-05-10T07:07:28Z</time>
      </trkpt>
      <trkpt lat="46.81556" lon="6.30548">
        <ele>880.6</ele>
        <time>2024-05-10T07:07:39Z</time>
      </trkpt>
      <trkpt lat="46.81513" lon="6.30493">
        <ele>878.3</ele>
        <time>2024-05-10T07:07:50Z</time>
      </trkpt>
      <trkpt lat="46.81466" lon="6.30413">
        <ele>873.1</ele>
        <time>2024-05-10T07:08:01Z</time>
      </trkpt>
      <trkpt lat="46.8143" lon="6.30374">
        <ele>869.6</ele>
        <time>2024-05-10T07:08:12Z</time>
      </trkpt>
      <trkpt lat="46.81431" lon="6.30374">
        <ele>869.5</ele>
        <time>2024-05-10T07:08:22Z</time>
      </trkpt>
      <trkpt lat="46.81431" lon="6.30374">
        <ele>869.5</ele>
        <time>2024-05-10T07:08:33Z</time>
      </trkpt>
      <trkpt lat="46.81419" lon="6.30363">
        <ele>868.2</ele>
        <time>2024-05-10T07:08:44Z</time>
      </trkpt>
      <trkpt lat="46.81361" lon="6.3032">
        <ele>862.2</ele>
        <time>2024-05-10T07:08:54Z</time>
      </trkpt>
      <trkpt lat="46.81313" lon="6.3026">
        <ele>857</ele>
        <time>2024-05-10T07:09:05Z</time>
      </trkpt>
      <trkpt lat="46.81264" lon="6.30199">
        <ele>856.7</ele>
        <time>2024-05-10T07:09:16Z</time>
      </trkpt>
      <trkpt lat="46.81216" lon="6.3015">
        <ele>857.4</ele>
        <time>2024-05-10T07:09:27Z</time>
      </trkpt>
      <trkpt lat="46.81167" lon="6.30105">
        <ele>858</ele>
        <time>2024-05-10T07:09:38Z</time>
      </trkpt>
      <trkpt lat="46.81121" lon="6.30063">
        <ele>858.2</ele>
        <time>2024-05-10T07:09:48Z</time>
      </trkpt>
      <trkpt lat="46.81071" lon="6.30017">
        <ele>858.1</ele>
        <time>2024-05-10T07:09:58Z</time>
      </trkpt>
      <trkpt lat="46.81012" lon="6.29963">
        <ele>857.7</ele>
        <time>2024-05-10T07:10:09Z</time>
      </trkpt>
      <trkpt lat="46.80954" lon="6.29911">
        <ele>857.7</ele>
        <time>2024-05-10T07:10:20Z</time>
      </trkpt>
      <trkpt lat="46.80897" lon="6.29859">
        <ele>857.7</ele>
        <time>2024-05-10T07:10:31Z</time>
      </trkpt>
      <trkpt lat="46.80845" lon="6.29808">
        <ele>857.4</ele>
        <time>2024-05-10T07:10:41Z</time>
      </trkpt>
      <trkpt lat="46.80793" lon="6.29752">
        <ele>856.9</ele>
        <time>2024-05-10T07:10:52Z</time>
      </trkpt>
      <trkpt lat="46.80739" lon="6.29693">
        <ele>856.7</ele>
        <time>2024-05-10T07:11:02Z</time>
      </trkpt>
      <trkpt lat="46.80684" lon="6.29633">
        <ele>856.6</ele>
        <time>2024-05-10T07:11:12Z</time>
      </trkpt>
      <trkpt lat="46.80625" lon="6.29569">
        <ele>856.5</ele>
        <time>2024-05-10T07:11:22Z</time>
      </trkpt>
      <trkpt lat="46.80573" lon="6.29514">
        <ele>857</ele>
        <time>2024-05-10T07:11:32Z</time>
      </trkpt>
      <trkpt lat="46.80516" lon="6.29452">
        <ele>857.3</ele>
        <time>2024-05-10T07:11:43Z</time>
      </trkpt>
      <trkpt lat="46.80468" lon="6.29389">
        <ele>857.5</ele>
        <time>2024-05-10T07:11:54Z</time>
      </trkpt>
      <trkpt lat="46.80426" lon="6.29303">
        <ele>857.5</ele>
        <time>2024-05-10T07:12:05Z</time>
      </trkpt>
      <trkpt lat="46.80383" lon="6.29214">
        <ele>857.5</ele>
        <time>2024-05-10T07:12:15Z</time>
      </trkpt>
      <trkpt lat="46.80342" lon="6.29128">
        <ele>857.1</ele>
        <time>2024-05-10T07:12:26Z</time>
      </trkpt>
      <trkpt lat="46.80294" lon="6.29051">
        <ele>857</ele>
        <time>2024-05-10T07:12:36Z</time>
      </trkpt>
      <trkpt lat="46.80222" lon="6.28998">
        <ele>857.2</ele>
        <time>2024-05-10T07:12:46Z</time>
      </trkpt>
      <trkpt lat="46.80154" lon="6.28954">
        <ele>857.2</ele>
        <time>2024-05-10T07:12:57Z</time>
      </trkpt>
      <trkpt lat="46.80135" lon="6.28953">
        <ele>857.2</ele>
        <time>2024-05-10T07:13:07Z</time>
      </trkpt>
      <trkpt lat="46.80135" lon="6.28953">
        <ele>857.2</ele>
        <time>2024-05-10T07:13:17Z</time>
      </trkpt>
      <trkpt lat="46.80137" lon="6.28944">
        <ele>857.2</ele>
        <time>2024-05-10T07:13:28Z</time>
      </trkpt>
      <trkpt lat="46.8009" lon="6.28911">
        <ele>857.1</ele>
        <time>2024-05-10T07:13:38Z</time>
      </trkpt>
      <trkpt lat="46.80035" lon="6.28878">
        <ele>857</ele>
        <time>2024-05-10T07:13:48Z</time>
      </trkpt>
      <trkpt lat="46.79974" lon="6.28851">
        <ele>856.7</ele>
        <time>2024-05-10T07:13:59Z</time>
      </trkpt>
      <trkpt lat="46.79905" lon="6.28836">
        <ele>856.9</ele>
        <time>2024-05-10T07:14:10Z</time>
      </trkpt>
      <trkpt lat="46.79839" lon="6.28816">
        <ele>856.7</ele>
        <time>2024-05-10T07:14:20Z</time>
      </trkpt>
      <trkpt lat="46.79766" lon="6.28793">
        <ele>856.5</ele>
        <time>2024-05-10T07:14:30Z</time>
      </trkpt>
      <trkpt lat="46.797" lon="6.28737">
        <ele>855.9</ele>
        <time>2024-05-10T07:14:41Z</time>
      </trkpt>
      <trkpt lat="46.79633" lon="6.28698">
        <ele>855.5</ele>
        <time>2024-05-10T07:14:52Z</time>
      </trkpt>
      <trkpt lat="46.79568" lon="6.28704">
        <ele>855.8</ele>
        <time>2024-05-10T07:15:03Z</time>
      </trkpt>
      <trkpt lat="46.79507" lon="6.28725">
        <ele>855.7</ele>
        <time>2024-05-10T07:15:13Z</time>
      </trkpt>
      <trkpt lat="46.79435" lon="6.28709">
        <ele>855.3</ele>
        <time>2024-05-10T07:15:23Z</time>
      </trkpt>
      <trkpt lat="46.79372" lon="6.28684">
        <ele>855.1</ele>
        <time>2024-05-10T07:15:34Z</time>
      </trkpt>
      <trkpt lat="46.7931" lon="6.28644">
        <ele>854.9</ele>
        <time>2024-05-10T07:15:44Z</time>
      </trkpt>
      <trkpt lat="46.79247" lon="6.28588">
        <ele>854.9</ele>
        <time>2024-05-10T07:15:54Z</time>
      </trkpt>
      <trkpt lat="46.79199" lon="6.28517">
        <ele>854.7</ele>
        <time>2024-05-10T07:16:04Z</time>
      </trkpt>
      <trkpt lat="46.79143" lon="6.28435">
        <ele>854.8</ele>
        <time>2024-05-10T07:16:15Z</time>
      </trkpt>
      <trkpt lat="46.7909" lon="6.2835">
        <ele>854.8</ele>
        <time>2024-05-10T07:16:26Z</time>
      </trkpt>
      <trkpt lat="46.79053" lon="6.28259">
        <ele>854.4</ele>
        <time>2024-05-10T07:16:36Z</time>
      </trkpt>
      <trkpt lat="46.79015" lon="6.28155">
        <ele>854.3</ele>
        <time>2024-05-10T07:16:47Z</time>
      </trkpt>
      <trkpt lat="46.78977" lon="6.28052">
        <ele>854.2</ele>
        <time>2024-05-10T07:16:58Z</time>
      </trkpt>
      <trkpt lat="46.78928" lon="6.2796">
        <ele>853.8</ele>
        <time>2024-05-10T07:17:09Z</time>
      </trkpt>
      <trkpt lat="46.78877" lon="6.27886">
        <ele>853.4</ele>
        <time>2024-05-10T07:17:19Z</time>
      </trkpt>
      <trkpt lat="46.78824" lon="6.27809">
        <ele>853.6</ele>
        <time>2024-05-10T07:17:30Z</time>
      </trkpt>
      <trkpt lat="46.78798" lon="6.27777">
        <ele>853.7</ele>
        <time>2024-05-10T07:17:40Z</time>
      </trkpt>
      <trkpt lat="46.78764" lon="6.2782">
        <ele>853.2</ele>
        <time>2024-05-10T07:17:50Z</time>
      </trkpt>
      <trkpt lat="46.78733" lon="6.27886">
        <ele>853.2</ele>
        <time>2024-05-10T07:18:01Z</time>
      </trkpt>
      <trkpt lat="46.78694" lon="6.27939">
        <ele>853.7</ele>
        <time>2024-05-10T07:18:12Z</time>
      </trkpt>
      <trkpt lat="46.7868" lon="6.27967">
        <ele>853.8</ele>
        <time>2024-05-10T07:18:22Z</time>
      </trkpt>
      <trkpt lat="46.7868" lon="6.27966">
        <ele>853.8</ele>
        <time>2024-05-10T07:18:33Z</time>
      </trkpt>
      <trkpt lat="46.78679" lon="6.27965">
        <ele>853.8</ele>
        <time>2024-05-10T07:18:44Z</time>
      </trkpt>
      <trkpt lat="46.7868" lon="6.27966">
        <ele>853.8</ele>
        <time>2024-05-10T07:18:54Z</time>
      </trkpt>
      <trkpt lat="46.7868" lon="6.27966">
        <ele>853.8</ele>
        <time>2024-05-10T07:19:05Z</time>
      </trkpt>
      <trkpt lat="46.7868" lon="6.27966">
        <ele>853.8</ele>
        <time>2024-05-10T07:19:15Z</time>
      </trkpt>
      <trkpt lat="46.7868" lon="6.27966">
        <ele>853.8</ele>
        <time>2024-05-10T07:19:26Z</time>
      </trkpt>
      <trkpt lat="46.78679" lon="6.27969">
        <ele>853.8</ele>
        <time>2024-05-10T07:19:36Z</time>
      </trkpt>
      <trkpt lat="46.78679" lon="6.27969">
        <ele>853.8</ele>
        <time>2024-05-10T07:19:47Z</time>
      </trkpt>
      <trkpt lat="46.78678" lon="6.27969">
        <ele>853.8</ele>
        <time>2024-05-10T07:19:57Z</time>
      </trkpt>
      <trkpt lat="46.78678" lon="6.27969">
        <ele>853.8</ele>
        <time>2024-05-10T07:20:07Z</time>
      </trkpt>
      <trkpt lat="46.78678" lon="6.27969">
        <ele>853.8</ele>
        <time>2024-05-10T07:20:18Z</time>
      </trkpt>
      <trkpt lat="46.78669" lon="6.27986">
        <ele>853.7</ele>
        <time>2024-05-10T07:20:29Z</time>
      </trkpt>
      <trkpt lat="46.78656" lon="6.28043">
        <ele>853.2</ele>
        <time>2024-05-10T07:20:40Z</time>
      </trkpt>
      <trkpt lat="46.78623" lon="6.28073">
        <ele>853</ele>
        <time>2024-05-10T07:20:50Z</time>
      </trkpt>
      <trkpt lat="46.78588" lon="6.28115">
        <ele>852.8</ele>
        <time>2024-05-10T07:21:00Z</time>
      </trkpt>
      <trkpt lat="46.78549" lon="6.28169">
        <ele>852.8</ele>
        <time>2024-05-10T07:21:11Z</time>
      </trkpt>
      <trkpt lat="46.78502" lon="6.28232">
        <ele>853.2</ele>
        <time>2024-05-10T07:21:21Z</time>
      </trkpt>
      <trkpt lat="46.7846" lon="6.28288">
        <ele>853.6</ele>
        <time>2024-05-10T07:21:31Z</time>
      </trkpt>
      <trkpt lat="46.78421" lon="6.28342">
        <ele>854.6</ele>
        <time>2024-05-10T07:21:41Z</time>
      </trkpt>
      <trkpt lat="46.7838" lon="6.28352">
        <ele>855.7</ele>
        <time>2024-05-10T07:21:51Z</time>
      </trkpt>
      <trkpt lat="46.7834" lon="6.28331">
        <ele>857.7</ele>
        <time>2024-05-10T07:22:03Z</time>
      </trkpt>
      <trkpt lat="46.783" lon="6.28308">
        <ele>858.4</ele>
        <time>2024-05-10T07:22:13Z</time>
      </trkpt>
      <trkpt lat="46.78261" lon="6.28256">
        <ele>858.5</ele>
        <time>2024-05-10T07:22:24Z</time>
      </trkpt>
      <trkpt lat="46.78229" lon="6.28206">
        <ele>858.6</ele>
        <time>2024-05-10T07:22:34Z</time>
      </trkpt>
      <trkpt lat="46.78194" lon="6.2815">
        <ele>858.7</ele>
        <time>2024-05-10T07:22:44Z</time>
      </trkpt>
      <trkpt lat="46.78154" lon="6.2809">
        <ele>858.7</ele>
        <time>2024-05-10T07:22:54Z</time>
      </trkpt>
      <trkpt lat="46.78112" lon="6.28023">
        <ele>858.7</ele>
        <time>2024-05-10T07:23:05Z</time>
      </trkpt>
      <trkpt lat="46.78064" lon="6.27949">
        <ele>858.2</ele>
        <time>2024-05-10T07:23:16Z</time>
      </trkpt>
      <trkpt lat="46.78002" lon="6.27888">
        <ele>857.7</ele>
        <time>2024-05-10T07:23:27Z</time>
      </trkpt>
      <trkpt lat="46.77939" lon="6.27872">
        <ele>857.7</ele>
        <time>2024-05-10T07:23:37Z</time>
      </trkpt>
      <trkpt lat="46.77878" lon="6.27869">
        <ele>859.4</ele>
        <time>2024-05-10T07:23:48Z</time>
      </trkpt>
      <trkpt lat="46.77832" lon="6.27873">
        <ele>860.9</ele>
        <time>2024-05-10T07:23:58Z</time>
      </trkpt>
      <trkpt lat="46.77785" lon="6.27884">
        <ele>862.4</ele>
        <time>2024-05-10T07:24:08Z</time>
      </trkpt>
      <trkpt lat="46.77741" lon="6.27892">
        <ele>863.8</ele>
        <time>2024-05-10T07:24:19Z</time>
      </trkpt>
      <trkpt lat="46.77699" lon="6.27906">
        <ele>865.2</ele>
        <time>2024-05-10T07:24:29Z</time>
      </trkpt>
      <trkpt lat="46.77655" lon="6.27918">
        <ele>866.4</ele>
        <time>2024-05-10T07:24:39Z</time>
      </trkpt>
      <trkpt lat="46.77605" lon="6.27943">
        <ele>865.9</ele>
        <time>2024-05-10T07:24:50Z</time>
      </trkpt>
      <trkpt lat="46.77548" lon="6.27973">
        <ele>863.9</ele>
        <time>2024-05-10T07:25:01Z</time>
      </trkpt>
      <trkpt lat="46.77477" lon="6.28004">
        <ele>860.9</ele>
        <time>2024-05-10T07:25:11Z</time>
      </trkpt>
      <trkpt lat="46.77399" lon="6.28044">
        <ele>857.6</ele>
        <time>2024-05-10T07:25:21Z</time>
      </trkpt>
      <trkpt lat="46.77306" lon="6.28044">
        <ele>857.2</ele>
        <time>2024-05-10T07:25:32Z</time>
      </trkpt>
      <trkpt lat="46.77256" lon="6.2797">
        <ele>856.9</ele>
        <time>2024-05-10T07:25:43Z</time>
      </trkpt>
      <trkpt lat="46.77176" lon="6.27945">
        <ele>856.2</ele>
        <time>2024-05-10T07:25:54Z</time>
      </trkpt>
      <trkpt lat="46.77101" lon="6.27941">
        <ele>856.1</ele>
        <time>2024-05-10T07:26:04Z</time>
      </trkpt>
      <trkpt lat="46.77029" lon="6.2791">
        <ele>857</ele>
        <time>2024-05-10T07:26:14Z</time>
      </trkpt>
      <trkpt lat="46.76988" lon="6.27848">
        <ele>858.3</ele>
        <time>2024-05-10T07:26:26Z</time>
      </trkpt>
      <trkpt lat="46.76954" lon="6.27792">
        <ele>859.9</ele>
        <time>2024-05-10T07:26:36Z</time>
      </trkpt>
      <trkpt lat="46.76911" lon="6.27742">
        <ele>861.7</ele>
        <time>2024-05-10T07:26:46Z</time>
      </trkpt>
      <trkpt lat="46.76871" lon="6.27707">
        <ele>863</ele>
        <time>2024-05-10T07:26:56Z</time>
      </trkpt>
      <trkpt lat="46.76828" lon="6.27675">
        <ele>864.3</ele>
        <time>2024-05-10T07:27:07Z</time>
      </trkpt>
      <trkpt lat="46.76787" lon="6.27646">
        <ele>865.4</ele>
        <time>2024-05-10T07:27:18Z</time>
      </trkpt>
      <trkpt lat="46.7674" lon="6.27613">
        <ele>866.2</ele>
        <time>2024-05-10T07:27:29Z</time>
      </trkpt>
      <trkpt lat="46.76692" lon="6.27578">
        <ele>867.2</ele>
        <time>2024-05-10T07:27:39Z</time>
      </trkpt>
      <trkpt lat="46.76645" lon="6.2754">
        <ele>868.3</ele>
        <time>2024-05-10T07:27:50Z</time>
      </trkpt>
      <trkpt lat="46.76605" lon="6.27498">
        <ele>869.2</ele>
        <time>2024-05-10T07:28:01Z</time>
      </trkpt>
      <trkpt lat="46.7657" lon="6.27436">
        <ele>870.3</ele>
        <time>2024-05-10T07:28:11Z</time>
      </trkpt>
      <trkpt lat="46.76548" lon="6.27366">
        <ele>871.7</ele>
        <time>2024-05-10T07:28:22Z</time>
      </trkpt>
      <trkpt lat="46.76538" lon="6.27292">
        <ele>873</ele>
        <time>2024-05-10T07:28:33Z</time>
      </trkpt>
      <trkpt lat="46.76537" lon="6.27229">
        <ele>874.3</ele>
        <time>2024-05-10T07:28:43Z</time>
      </trkpt>
      <trkpt lat="46.76535" lon="6.27165">
        <ele>875.4</ele>
        <time>2024-05-10T07:28:54Z</time>
      </trkpt>
      <trkpt lat="46.76522" lon="6.2709">
        <ele>876</ele>
        <time>2024-05-10T07:29:04Z</time>
      </trkpt>
      <trkpt lat="46.76498" lon="6.27016">
        <ele>875.9</ele>
        <time>2024-05-10T07:29:15Z</time>
      </trkpt>
      <trkpt lat="46.76453" lon="6.26942">
        <ele>874.6</ele>
        <time>2024-05-10T07:29:26Z</time>
      </trkpt>
      <trkpt lat="46.76395" lon="6.26875">
        <ele>872.6</ele>
        <time>2024-05-10T07:29:36Z</time>
      </trkpt>
      <trkpt lat="46.76326" lon="6.26795">
        <ele>871.6</ele>
        <time>2024-05-10T07:29:47Z</time>
      </trkpt>
      <trkpt lat="46.76264" lon="6.2674">
        <ele>872.5</ele>
        <time>2024-05-10T07:29:58Z</time>
      </trkpt>
      <trkpt lat="46.76194" lon="6.26704">
        <ele>873.4</ele>
        <time>2024-05-10T07:30:08Z</time>
      </trkpt>
      <trkpt lat="46.76127" lon="6.26654">
        <ele>873.4</ele>
        <time>2024-05-10T07:30:20Z</time>
      </trkpt>
      <trkpt lat="46.7606" lon="6.26594">
        <ele>872.4</ele>
        <time>2024-05-10T07:30:30Z</time>
      </trkpt>
      <trkpt lat="46.76" lon="6.26529">
        <ele>870.7</ele>
        <time>2024-05-10T07:30:41Z</time>
      </trkpt>
      <trkpt lat="46.75931" lon="6.26444">
        <ele>868.4</ele>
        <time>2024-05-10T07:30:51Z</time>
      </trkpt>
      <trkpt lat="46.7586" lon="6.26356">
        <ele>867.7</ele>
        <time>2024-05-10T07:31:02Z</time>
      </trkpt>
      <trkpt lat="46.75814" lon="6.26266">
        <ele>868.7</ele>
        <time>2024-05-10T07:31:13Z</time>
      </trkpt>
      <trkpt lat="46.75784" lon="6.26195">
        <ele>870.2</ele>
        <time>2024-05-10T07:31:24Z</time>
      </trkpt>
      <trkpt lat="46.7576" lon="6.26132">
        <ele>871.8</ele>
        <time>2024-05-10T07:31:35Z</time>
      </trkpt>
      <trkpt lat="46.75741" lon="6.26066">
        <ele>873.4</ele>
        <time>2024-05-10T07:31:46Z</time>
      </trkpt>
      <trkpt lat="46.75733" lon="6.26006">
        <ele>874.7</ele>
        <time>2024-05-10T07:31:56Z</time>
      </trkpt>
      <trkpt lat="46.75721" lon="6.25949">
        <ele>876</ele>
        <time>2024-05-10T07:32:06Z</time>
      </trkpt>
      <trkpt lat="46.75703" lon="6.25897">
        <ele>877.2</ele>
        <time>2024-05-10T07:32:16Z</time>
      </trkpt>
      <trkpt lat="46.75678" lon="6.25841">
        <ele>878.7</ele>
        <time>2024-05-10T07:32:27Z</time>
      </trkpt>
      <trkpt lat="46.75656" lon="6.25789">
        <ele>880.3</ele>
        <time>2024-05-10T07:32:37Z</time>
      </trkpt>
      <trkpt lat="46.75633" lon="6.25735">
        <ele>881.7</ele>
        <time>2024-05-10T07:32:49Z</time>
      </trkpt>
      <trkpt lat="46.75602" lon="6.2569">
        <ele>883.4</ele>
        <time>2024-05-10T07:33:00Z</time>
      </trkpt>
      <trkpt lat="46.75564" lon="6.25654">
        <ele>885.7</ele>
        <time>2024-05-10T07:33:10Z</time>
      </trkpt>
      <trkpt lat="46.75532" lon="6.25624">
        <ele>887.4</ele>
        <time>2024-05-10T07:33:20Z</time>
      </trkpt>
      <trkpt lat="46.75496" lon="6.25591">
        <ele>889.2</ele>
        <time>2024-05-10T07:33:31Z</time>
      </trkpt>
      <trkpt lat="46.75456" lon="6.25562">
        <ele>890.9</ele>
        <time>2024-05-10T07:33:42Z</time>
      </trkpt>
      <trkpt lat="46.75414" lon="6.25536">
        <ele>892.3</ele>
        <time>2024-05-10T07:33:53Z</time>
      </trkpt>
      <trkpt lat="46.75371" lon="6.25508">
        <ele>893.8</ele>
        <time>2024-05-10T07:34:04Z</time>
      </trkpt>
      <trkpt lat="46.75332" lon="6.25481">
        <ele>895.3</ele>
        <time>2024-05-10T07:34:15Z</time>
      </trkpt>
      <trkpt lat="46.75289" lon="6.25453">
        <ele>897</ele>
        <time>2024-05-10T07:34:25Z</time>
      </trkpt>
      <trkpt lat="46.7525" lon="6.25426">
        <ele>898.5</ele>
        <time>2024-05-10T07:34:35Z</time>
      </trkpt>
      <trkpt lat="46.75208" lon="6.25402">
        <ele>900.2</ele>
        <time>2024-05-10T07:34:46Z</time>
      </trkpt>
      <trkpt lat="46.7516" lon="6.254">
        <ele>902.2</ele>
        <time>2024-05-10T07:34:57Z</time>
      </trkpt>
      <trkpt lat="46.75114" lon="6.25425">
        <ele>904.3</ele>
        <time>2024-05-10T07:35:08Z</time>
      </trkpt>
      <trkpt lat="46.7508" lon="6.25454">
        <ele>905.2</ele>
        <time>2024-05-10T07:35:18Z</time>
      </trkpt>
      <trkpt lat="46.75042" lon="6.25469">
        <ele>906.2</ele>
        <time>2024-05-10T07:35:28Z</time>
      </trkpt>
      <trkpt lat="46.75002" lon="6.25462">
        <ele>907.5</ele>
        <time>2024-05-10T07:35:38Z</time>
      </trkpt>
      <trkpt lat="46.74962" lon="6.25429">
        <ele>909.8</ele>
        <time>2024-05-10T07:35:49Z</time>
      </trkpt>
      <trkpt lat="46.74932" lon="6.25385">
        <ele>911.6</ele>
        <time>2024-05-10T07:35:59Z</time>
      </trkpt>
      <trkpt lat="46.74898" lon="6.25335">
        <ele>912.3</ele>
        <time>2024-05-10T07:36:10Z</time>
      </trkpt>
      <trkpt lat="46.74861" lon="6.25285">
        <ele>912.4</ele>
        <time>2024-05-10T07:36:20Z</time>
      </trkpt>
      <trkpt lat="46.74815" lon="6.25242">
        <ele>912.5</ele>
        <time>2024-05-10T07:36:30Z</time>
      </trkpt>
      <trkpt lat="46.74756" lon="6.25195">
        <ele>912.3</ele>
        <time>2024-05-10T07:36:41Z</time>
      </trkpt>
      <trkpt lat="46.74694" lon="6.25144">
        <ele>912.2</ele>
        <time>2024-05-10T07:36:52Z</time>
      </trkpt>
      <trkpt lat="46.74627" lon="6.25117">
        <ele>912.4</ele>
        <time>2024-05-10T07:37:03Z</time>
      </trkpt>
      <trkpt lat="46.74564" lon="6.25123">
        <ele>912.4</ele>
        <time>2024-05-10T07:37:13Z</time>
      </trkpt>
      <trkpt lat="46.74502" lon="6.25129">
        <ele>912.8</ele>
        <time>2024-05-10T07:37:23Z</time>
      </trkpt>
      <trkpt lat="46.74442" lon="6.25134">
        <ele>913.5</ele>
        <time>2024-05-10T07:37:33Z</time>
      </trkpt>
      <trkpt lat="46.74385" lon="6.25139">
        <ele>914.4</ele>
        <time>2024-05-10T07:37:43Z</time>
      </trkpt>
      <trkpt lat="46.74326" lon="6.25145">
        <ele>915.4</ele>
        <time>2024-05-10T07:37:54Z</time>
      </trkpt>
      <trkpt lat="46.74267" lon="6.25152">
        <ele>916.5</ele>
        <time>2024-05-10T07:38:05Z</time>
      </trkpt>
      <trkpt lat="46.74212" lon="6.2516">
        <ele>917.1</ele>
        <time>2024-05-10T07:38:16Z</time>
      </trkpt>
      <trkpt lat="46.74156" lon="6.25167">
        <ele>917.5</ele>
        <time>2024-05-10T07:38:26Z</time>
      </trkpt>
      <trkpt lat="46.74092" lon="6.25174">
        <ele>918.1</ele>
        <time>2024-05-10T07:38:36Z</time>
      </trkpt>
      <trkpt lat="46.74031" lon="6.25172">
        <ele>918.5</ele>
        <time>2024-05-10T07:38:46Z</time>
      </trkpt>
      <trkpt lat="46.73963" lon="6.2515">
        <ele>918.8</ele>
        <time>2024-05-10T07:38:58Z</time>
      </trkpt>
      <trkpt lat="46.73902" lon="6.25105">
        <ele>919.3</ele>
        <time>2024-05-10T07:39:08Z</time>
      </trkpt>
      <trkpt lat="46.73854" lon="6.25049">
        <ele>919.7</ele>
        <time>2024-05-10T07:39:18Z</time>
      </trkpt>
      <trkpt lat="46.73813" lon="6.24979">
        <ele>920.1</ele>
        <time>2024-05-10T07:39:28Z</time>
      </trkpt>
      <trkpt lat="46.7377" lon="6.24909">
        <ele>920.4</ele>
        <time>2024-05-10T07:39:39Z</time>
      </trkpt>
      <trkpt lat="46.73724" lon="6.24831">
        <ele>921</ele>
        <time>2024-05-10T07:39:50Z</time>
      </trkpt>
      <trkpt lat="46.73682" lon="6.24762">
        <ele>921.9</ele>
        <time>2024-05-10T07:40:00Z</time>
      </trkpt>
      <trkpt lat="46.73639" lon="6.24688">
        <ele>923</ele>
        <time>2024-05-10T07:40:10Z</time>
      </trkpt>
      <trkpt lat="46.73602" lon="6.24625">
        <ele>924.2</ele>
        <time>2024-05-10T07:40:21Z</time>
      </trkpt>
      <trkpt lat="46.73565" lon="6.24556">
        <ele>926.1</ele>
        <time>2024-05-10T07:40:31Z</time>
      </trkpt>
      <trkpt lat="46.73535" lon="6.24497">
        <ele>927.6</ele>
        <time>2024-05-10T07:40:41Z</time>
      </trkpt>
      <trkpt lat="46.73501" lon="6.24432">
        <ele>928.8</ele>
        <time>2024-05-10T07:40:52Z</time>
      </trkpt>
      <trkpt lat="46.7347" lon="6.24372">
        <ele>929.7</ele>
        <time>2024-05-10T07:41:03Z</time>
      </trkpt>
      <trkpt lat="46.73439" lon="6.24304">
        <ele>930</ele>
        <time>2024-05-10T07:41:13Z</time>
      </trkpt>
      <trkpt lat="46.73415" lon="6.24241">
        <ele>929.2</ele>
        <time>2024-05-10T07:41:23Z</time>
      </trkpt>
      <trkpt lat="46.73394" lon="6.24166">
        <ele>927.7</ele>
        <time>2024-05-10T07:41:33Z</time>
      </trkpt>
      <trkpt lat="46.73364" lon="6.24076">
        <ele>925.4</ele>
        <time>2024-05-10T07:41:44Z</time>
      </trkpt>
      <trkpt lat="46.73319" lon="6.2398">
        <ele>922.7</ele>
        <time>2024-05-10T07:41:54Z</time>
      </trkpt>
      <trkpt lat="46.73262" lon="6.23902">
        <ele>921.2</ele>
        <time>2024-05-10T07:42:04Z</time>
      </trkpt>
      <trkpt lat="46.73196" lon="6.23831">
        <ele>921.5</ele>
        <time>2024-05-10T07:42:15Z</time>
      </trkpt>
      <trkpt lat="46.73139" lon="6.23768">
        <ele>921.8</ele>
        <time>2024-05-10T07:42:25Z</time>
      </trkpt>
      <trkpt lat="46.7309" lon="6.23693">
        <ele>922</ele>
        <time>2024-05-10T07:42:35Z</time>
      </trkpt>
      <trkpt lat="46.73052" lon="6.23612">
        <ele>922.8</ele>
        <time>2024-05-10T07:42:45Z</time>
      </trkpt>
      <trkpt lat="46.73023" lon="6.23535">
        <ele>924.4</ele>
        <time>2024-05-10T07:42:55Z</time>
      </trkpt>
      <trkpt lat="46.72997" lon="6.23462">
        <ele>926.7</ele>
        <time>2024-05-10T07:43:06Z</time>
      </trkpt>
      <trkpt lat="46.72975" lon="6.23401">
        <ele>928.8</ele>
        <time>2024-05-10T07:43:16Z</time>
      </trkpt>
      <trkpt lat="46.72951" lon="6.2334">
        <ele>931</ele>
        <time>2024-05-10T07:43:27Z</time>
      </trkpt>
      <trkpt lat="46.72927" lon="6.23279">
        <ele>933</ele>
        <time>2024-05-10T07:43:38Z</time>
      </trkpt>
      <trkpt lat="46.72897" lon="6.23219">
        <ele>934.2</ele>
        <time>2024-05-10T07:43:49Z</time>
      </trkpt>
      <trkpt lat="46.72869" lon="6.23165">
        <ele>935.1</ele>
        <time>2024-05-10T07:43:59Z</time>
      </trkpt>
      <trkpt lat="46.7284" lon="6.23102">
        <ele>935.5</ele>
        <time>2024-05-10T07:44:10Z</time>
      </trkpt>
      <trkpt lat="46.7281" lon="6.23019">
        <ele>935.1</ele>
        <time>2024-05-10T07:44:20Z</time>
      </trkpt>
      <trkpt lat="46.7279" lon="6.22924">
        <ele>933.6</ele>
        <time>2024-05-10T07:44:30Z</time>
      </trkpt>
      <trkpt lat="46.72776" lon="6.22813">
        <ele>932.1</ele>
        <time>2024-05-10T07:44:41Z</time>
      </trkpt>
      <trkpt lat="46.72762" lon="6.22699">
        <ele>931.6</ele>
        <time>2024-05-10T07:44:51Z</time>
      </trkpt>
      <trkpt lat="46.72746" lon="6.22584">
        <ele>931.6</ele>
        <time>2024-05-10T07:45:01Z</time>
      </trkpt>
      <trkpt lat="46.72722" lon="6.2247">
        <ele>931.6</ele>
        <time>2024-05-10T07:45:12Z</time>
      </trkpt>
      <trkpt lat="46.72699" lon="6.2237">
        <ele>932.2</ele>
        <time>2024-05-10T07:45:22Z</time>
      </trkpt>
      <trkpt lat="46.72683" lon="6.22286">
        <ele>933.3</ele>
        <time>2024-05-10T07:45:32Z</time>
      </trkpt>
      <trkpt lat="46.72669" lon="6.22198">
        <ele>934.6</ele>
        <time>2024-05-10T07:45:43Z</time>
      </trkpt>
      <trkpt lat="46.72656" lon="6.22114">
        <ele>934.7</ele>
        <time>2024-05-10T07:45:53Z</time>
      </trkpt>
      <trkpt lat="46.72623" lon="6.2201">
        <ele>933.9</ele>
        <time>2024-05-10T07:46:04Z</time>
      </trkpt>
      <trkpt lat="46.72584" lon="6.21917">
        <ele>933.1</ele>
        <time>2024-05-10T07:46:14Z</time>
      </trkpt>
      <trkpt lat="46.72536" lon="6.21839">
        <ele>932.2</ele>
        <time>2024-05-10T07:46:24Z</time>
      </trkpt>
      <trkpt lat="46.72483" lon="6.2176">
        <ele>931.6</ele>
        <time>2024-05-10T07:46:35Z</time>
      </trkpt>
      <trkpt lat="46.72436" lon="6.21673">
        <ele>932.2</ele>
        <time>2024-05-10T07:46:45Z</time>
      </trkpt>
      <trkpt lat="46.724" lon="6.21576">
        <ele>932.9</ele>
        <time>2024-05-10T07:46:56Z</time>
      </trkpt>
      <trkpt lat="46.72366" lon="6.21489">
        <ele>932.7</ele>
        <time>2024-05-10T07:47:06Z</time>
      </trkpt>
      <trkpt lat="46.72332" lon="6.21394">
        <ele>931.5</ele>
        <time>2024-05-10T07:47:16Z</time>
      </trkpt>
      <trkpt lat="46.72289" lon="6.21286">
        <ele>929.8</ele>
        <time>2024-05-10T07:47:26Z</time>
      </trkpt>
      <trkpt lat="46.72231" lon="6.21196">
        <ele>928.2</ele>
        <time>2024-05-10T07:47:36Z</time>
      </trkpt>
      <trkpt lat="46.7217" lon="6.21106">
        <ele>927.8</ele>
        <time>2024-05-10T07:47:46Z</time>
      </trkpt>
      <trkpt lat="46.72115" lon="6.21027">
        <ele>928.8</ele>
        <time>2024-05-10T07:47:56Z</time>
      </trkpt>
      <trkpt lat="46.72067" lon="6.20959">
        <ele>931.7</ele>
        <time>2024-05-10T07:48:07Z</time>
      </trkpt>
      <trkpt lat="46.72032" lon="6.20909">
        <ele>933.7</ele>
        <time>2024-05-10T07:48:17Z</time>
      </trkpt>
      <trkpt lat="46.71995" lon="6.20853">
        <ele>935</ele>
        <time>2024-05-10T07:48:28Z</time>
      </trkpt>
      <trkpt lat="46.7196" lon="6.20789">
        <ele>935.1</ele>
        <time>2024-05-10T07:48:39Z</time>
      </trkpt>
      <trkpt lat="46.71929" lon="6.20701">
        <ele>934.6</ele>
        <time>2024-05-10T07:48:49Z</time>
      </trkpt>
      <trkpt lat="46.71914" lon="6.20596">
        <ele>933.3</ele>
        <time>2024-05-10T07:49:00Z</time>
      </trkpt>
      <trkpt lat="46.7191" lon="6.20494">
        <ele>931.6</ele>
        <time>2024-05-10T07:49:10Z</time>
      </trkpt>
      <trkpt lat="46.71899" lon="6.20391">
        <ele>930.9</ele>
        <time>2024-05-10T07:49:20Z</time>
      </trkpt>
      <trkpt lat="46.71873" lon="6.2029">
        <ele>930.5</ele>
        <time>2024-05-10T07:49:31Z</time>
      </trkpt>
      <trkpt lat="46.71844" lon="6.20193">
        <ele>930.4</ele>
        <time>2024-05-10T07:49:41Z</time>
      </trkpt>
      <trkpt lat="46.7181" lon="6.20112">
        <ele>930.5</ele>
        <time>2024-05-10T07:49:51Z</time>
      </trkpt>
      <trkpt lat="46.7177" lon="6.20035">
        <ele>932.2</ele>
        <time>2024-05-10T07:50:02Z</time>
      </trkpt>
      <trkpt lat="46.7174" lon="6.19981">
        <ele>934.4</ele>
        <time>2024-05-10T07:50:12Z</time>
      </trkpt>
      <trkpt lat="46.71713" lon="6.19932">
        <ele>935.8</ele>
        <time>2024-05-10T07:50:22Z</time>
      </trkpt>
      <trkpt lat="46.71684" lon="6.1988">
        <ele>936.9</ele>
        <time>2024-05-10T07:50:34Z</time>
      </trkpt>
      <trkpt lat="46.71651" lon="6.19816">
        <ele>936.9</ele>
        <time>2024-05-10T07:50:44Z</time>
      </trkpt>
      <trkpt lat="46.7161" lon="6.19738">
        <ele>935.8</ele>
        <time>2024-05-10T07:50:55Z</time>
      </trkpt>
      <trkpt lat="46.71568" lon="6.19661">
        <ele>935.5</ele>
        <time>2024-05-10T07:51:06Z</time>
      </trkpt>
      <trkpt lat="46.7153" lon="6.19601">
        <ele>935.5</ele>
        <time>2024-05-10T07:51:16Z</time>
      </trkpt>
      <trkpt lat="46.71479" lon="6.19546">
        <ele>935.6</ele>
        <time>2024-05-10T07:51:27Z</time>
      </trkpt>
      <trkpt lat="46.71436" lon="6.19512">
        <ele>935.8</ele>
        <time>2024-05-10T07:51:37Z</time>
      </trkpt>
      <trkpt lat="46.71391" lon="6.19481">
        <ele>936.4</ele>
        <time>2024-05-10T07:51:48Z</time>
      </trkpt>
      <trkpt lat="46.71346" lon="6.19454">
        <ele>936.7</ele>
        <time>2024-05-10T07:51:58Z</time>
      </trkpt>
      <trkpt lat="46.71295" lon="6.19424">
        <ele>936.5</ele>
        <time>2024-05-10T07:52:09Z</time>
      </trkpt>
      <trkpt lat="46.71239" lon="6.19399">
        <ele>935.6</ele>
        <time>2024-05-10T07:52:19Z</time>
      </trkpt>
      <trkpt lat="46.71185" lon="6.19359">
        <ele>935.2</ele>
        <time>2024-05-10T07:52:30Z</time>
      </trkpt>
      <trkpt lat="46.71137" lon="6.19317">
        <ele>935.6</ele>
        <time>2024-05-10T07:52:40Z</time>
      </trkpt>
      <trkpt lat="46.71093" lon="6.19281">
        <ele>935.6</ele>
        <time>2024-05-10T07:52:50Z</time>
      </trkpt>
      <trkpt lat="46.71057" lon="6.19254">
        <ele>935.7</ele>
        <time>2024-05-10T07:53:00Z</time>
      </trkpt>
      <trkpt lat="46.71049" lon="6.19249">
        <ele>935.8</ele>
        <time>2024-05-10T07:53:11Z</time>
      </trkpt>
      <trkpt lat="46.71039" lon="6.19243">
        <ele>935.8</ele>
        <time>2024-05-10T07:53:22Z</time>
      </trkpt>
      <trkpt lat="46.71034" lon="6.19237">
        <ele>935.8</ele>
        <time>2024-05-10T07:53:33Z</time>
      </trkpt>
      <trkpt lat="46.71031" lon="6.19237">
        <ele>935.8</ele>
        <time>2024-05-10T07:53:43Z</time>
      </trkpt>
      <trkpt lat="46.71048" lon="6.19273">
        <ele>935.8</ele>
        <time>2024-05-10T07:53:54Z</time>
      </trkpt>
      <trkpt lat="46.71055" lon="6.19319">
        <ele>936.2</ele>
        <time>2024-05-10T07:54:05Z</time>
      </trkpt>
      <trkpt lat="46.71056" lon="6.19328">
        <ele>936.2</ele>
        <time>2024-05-10T07:54:15Z</time>
      </trkpt>
      <trkpt lat="46.71057" lon="6.19331">
        <ele>936.3</ele>
        <time>2024-05-10T07:54:25Z</time>
      </trkpt>
      <trkpt lat="46.71057" lon="6.19331">
        <ele>936.3</ele>
        <time>2024-05-10T07:54:36Z</time>
      </trkpt>
      <trkpt lat="46.71057" lon="6.19331">
        <ele>936.3</ele>
        <time>2024-05-10T07:54:46Z</time>
      </trkpt>
      <trkpt lat="46.71057" lon="6.19331">
        <ele>936.3</ele>
        <time>2024-05-10T07:54:56Z</time>
      </trkpt>
      <trkpt lat="46.71057" lon="6.19331">
        <ele>936.3</ele>
        <time>2024-05-10T07:55:07Z</time>
      </trkpt>
      <trkpt lat="46.71056" lon="6.1933">
        <ele>936.3</ele>
        <time>2024-05-10T07:55:17Z</time>
      </trkpt>
      <trkpt lat="46.71057" lon="6.19331">
        <ele>936.3</ele>
        <time>2024-05-10T07:55:27Z</time>
      </trkpt>
      <trkpt lat="46.71052" lon="6.19289">
        <ele>935.9</ele>
        <time>2024-05-10T07:55:37Z</time>
      </trkpt>
      <trkpt lat="46.71054" lon="6.19264">
        <ele>935.8</ele>
        <time>2024-05-10T07:55:47Z</time>
      </trkpt>
      <trkpt lat="46.71033" lon="6.19233">
        <ele>935.8</ele>
        <time>2024-05-10T07:55:58Z</time>
      </trkpt>
      <trkpt lat="46.71009" lon="6.1921">
        <ele>935.8</ele>
        <time>2024-05-10T07:56:08Z</time>
      </trkpt>
      <trkpt lat="46.70979" lon="6.1918">
        <ele>935.9</ele>
        <time>2024-05-10T07:56:19Z</time>
      </trkpt>
      <trkpt lat="46.70937" lon="6.19139">
        <ele>935.9</ele>
        <time>2024-05-10T07:56:31Z</time>
      </trkpt>
      <trkpt lat="46.70894" lon="6.19093">
        <ele>935.9</ele>
        <time>2024-05-10T07:56:41Z</time>
      </trkpt>
      <trkpt lat="46.70852" lon="6.19049">
        <ele>935.9</ele>
        <time>2024-05-10T07:56:51Z</time>
      </trkpt>
      <trkpt lat="46.70814" lon="6.19006">
        <ele>936.4</ele>
        <time>2024-05-10T07:57:01Z</time>
      </trkpt>
      <trkpt lat="46.70771" lon="6.18974">
        <ele>937.2</ele>
        <time>2024-05-10T07:57:12Z</time>
      </trkpt>
      <trkpt lat="46.70721" lon="6.18953">
        <ele>937.7</ele>
        <time>2024-05-10T07:57:23Z</time>
      </trkpt>
      <trkpt lat="46.70673" lon="6.18929">
        <ele>938.1</ele>
        <time>2024-05-10T07:57:34Z</time>
      </trkpt>
      <trkpt lat="46.70631" lon="6.18908">
        <ele>938.5</ele>
        <time>2024-05-10T07:57:44Z</time>
      </trkpt>
      <trkpt lat="46.7059" lon="6.18894">
        <ele>938.8</ele>
        <time>2024-05-10T07:57:55Z</time>
      </trkpt>
      <trkpt lat="46.70545" lon="6.18867">
        <ele>939.5</ele>
        <time>2024-05-10T07:58:05Z</time>
      </trkpt>
      <trkpt lat="46.7051" lon="6.18834">
        <ele>939.5</ele>
        <time>2024-05-10T07:58:16Z</time>
      </trkpt>
      <trkpt lat="46.70495" lon="6.18816">
        <ele>939.4</ele>
        <time>2024-05-10T07:58:26Z</time>
      </trkpt>
      <trkpt lat="46.70507" lon="6.18847">
        <ele>939.5</ele>
        <time>2024-05-10T07:58:37Z</time>
      </trkpt>
      <trkpt lat="46.70541" lon="6.1887">
        <ele>939.5</ele>
        <time>2024-05-10T07:58:48Z</time>
      </trkpt>
      <trkpt lat="46.70582" lon="6.18895">
        <ele>938.9</ele>
        <time>2024-05-10T07:58:58Z</time>
      </trkpt>
      <trkpt lat="46.70633" lon="6.18921">
        <ele>938.4</ele>
        <time>2024-05-10T07:59:09Z</time>
      </trkpt>
      <trkpt lat="46.70692" lon="6.18948">
        <ele>937.9</ele>
        <time>2024-05-10T07:59:19Z</time>
      </trkpt>
      <trkpt lat="46.70746" lon="6.18973">
        <ele>937.4</ele>
        <time>2024-05-10T07:59:30Z</time>
      </trkpt>
      <trkpt lat="46.708" lon="6.19003">
        <ele>936.6</ele>
        <time>2024-05-10T07:59:40Z</time>
      </trkpt>
      <trkpt lat="46.70848" lon="6.19057">
        <ele>935.9</ele>
        <time>2024-05-10T07:59:51Z</time>
      </trkpt>
      <trkpt lat="46.70903" lon="6.19113">
        <ele>935.9</ele>
        <time>2024-05-10T08:00:01Z</time>
      </trkpt>
      <trkpt lat="46.70954" lon="6.19163">
        <ele>935.9</ele>
        <time>2024-05-10T08:00:12Z</time>
      </trkpt>
      <trkpt lat="46.71003" lon="6.19211">
        <ele>935.9</ele>
        <time>2024-05-10T08:00:23Z</time>
      </trkpt>
      <trkpt lat="46.71047" lon="6.19256">
        <ele>935.8</ele>
        <time>2024-05-10T08:00:34Z</time>
      </trkpt>
      <trkpt lat="46.71094" lon="6.19292">
        <ele>935.6</ele>
        <time>2024-05-10T08:00:44Z</time>
      </trkpt>
      <trkpt lat="46.71146" lon="6.19332">
        <ele>935.5</ele>
        <time>2024-05-10T08:00:54Z</time>
      </trkpt>
      <trkpt lat="46.71198" lon="6.19375">
        <ele>935.1</ele>
        <time>2024-05-10T08:01:05Z</time>
      </trkpt>
      <trkpt lat="46.71254" lon="6.19415">
        <ele>935.8</ele>
        <time>2024-05-10T08:01:15Z</time>
      </trkpt>
      <trkpt lat="46.71297" lon="6.19432">
        <ele>936.5</ele>
        <time>2024-05-10T08:01:25Z</time>
      </trkpt>
      <trkpt lat="46.71346" lon="6.19461">
        <ele>936.7</ele>
        <time>2024-05-10T08:01:36Z</time>
      </trkpt>
      <trkpt lat="46.71403" lon="6.19493">
        <ele>936.2</ele>
        <time>2024-05-10T08:01:47Z</time>
      </trkpt>
      <trkpt lat="46.71445" lon="6.19523">
        <ele>935.7</ele>
        <time>2024-05-10T08:01:57Z</time>
      </trkpt>
      <trkpt lat="46.71446" lon="6.19547">
        <ele>935.1</ele>
        <time>2024-05-10T08:02:09Z</time>
      </trkpt>
      <trkpt lat="46.71442" lon="6.19551">
        <ele>935</ele>
        <time>2024-05-10T08:02:19Z</time>
      </trkpt>
      <trkpt lat="46.71442" lon="6.19551">
        <ele>935</ele>
        <time>2024-05-10T08:02:29Z</time>
      </trkpt>
      <trkpt lat="46.71442" lon="6.19551">
        <ele>935</ele>
        <time>2024-05-10T08:02:39Z</time>
      </trkpt>
      <trkpt lat="46.71442" lon="6.19551">
        <ele>935</ele>
        <time>2024-05-10T08:02:50Z</time>
      </trkpt>
      <trkpt lat="46.71442" lon="6.19551">
        <ele>935</ele>
        <time>2024-05-10T08:03:00Z</time>
      </trkpt>
      <trkpt lat="46.71442" lon="6.19551">
        <ele>935</ele>
        <time>2024-05-10T08:03:11Z</time>
      </trkpt>
      <trkpt lat="46.71442" lon="6.19551">
        <ele>935</ele>
        <time>2024-05-10T08:03:21Z</time>
      </trkpt>
      <trkpt lat="46.71441" lon="6.19551">
        <ele>935.1</ele>
        <time>2024-05-10T08:03:32Z</time>
      </trkpt>
      <trkpt lat="46.7144" lon="6.19556">
        <ele>935</ele>
        <time>2024-05-10T08:03:43Z</time>
      </trkpt>
      <trkpt lat="46.71435" lon="6.19563">
        <ele>934.9</ele>
        <time>2024-05-10T08:03:54Z</time>
      </trkpt>
      <trkpt lat="46.71439" lon="6.1957">
        <ele>934.5</ele>
        <time>2024-05-10T08:04:04Z</time>
      </trkpt>
      <trkpt lat="46.71465" lon="6.19608">
        <ele>932.6</ele>
        <time>2024-05-10T08:04:15Z</time>
      </trkpt>
      <trkpt lat="46.71452" lon="6.19595">
        <ele>933.4</ele>
        <time>2024-05-10T08:04:33Z</time>
      </trkpt>
      <trkpt lat="46.71438" lon="6.19603">
        <ele>933.7</ele>
        <time>2024-05-10T08:04:43Z</time>
      </trkpt>
      <trkpt lat="46.71447" lon="6.19621">
        <ele>932.8</ele>
        <time>2024-05-10T08:04:54Z</time>
      </trkpt>
      <trkpt lat="46.71437" lon="6.19616">
        <ele>933.2</ele>
        <time>2024-05-10T08:05:04Z</time>
      </trkpt>
      <trkpt lat="46.7145" lon="6.1962">
        <ele>932.8</ele>
        <time>2024-05-10T08:05:15Z</time>
      </trkpt>
      <trkpt lat="46.71478" lon="6.19629">
        <ele>932</ele>
        <time>2024-05-10T08:05:26Z</time>
      </trkpt>
      <trkpt lat="46.71469" lon="6.19615">
        <ele>932.5</ele>
        <time>2024-05-10T08:05:37Z</time>
      </trkpt>
      <trkpt lat="46.71471" lon="6.19622">
        <ele>932.2</ele>
        <time>2024-05-10T08:05:47Z</time>
      </trkpt>
      <trkpt lat="46.7147" lon="6.19618">
        <ele>932.3</ele>
        <time>2024-05-10T08:05:58Z</time>
      </trkpt>
      <trkpt lat="46.71469" lon="6.19607">
        <ele>932.7</ele>
        <time>2024-05-10T08:06:08Z</time>
      </trkpt>
      <trkpt lat="46.71456" lon="6.19606">
        <ele>933</ele>
        <time>2024-05-10T08:06:18Z</time>
      </trkpt>
      <trkpt lat="46.71453" lon="6.196">
        <ele>933.3</ele>
        <time>2024-05-10T08:06:29Z</time>
      </trkpt>
      <trkpt lat="46.71454" lon="6.19599">
        <ele>933.2</ele>
        <time>2024-05-10T08:06:39Z</time>
      </trkpt>
      <trkpt lat="46.71454" lon="6.19594">
        <ele>933.4</ele>
        <time>2024-05-10T08:06:49Z</time>
      </trkpt>
      <trkpt lat="46.71451" lon="6.19592">
        <ele>933.5</ele>
        <time>2024-05-10T08:06:59Z</time>
      </trkpt>
      <trkpt lat="46.71449" lon="6.19591">
        <ele>933.6</ele>
        <time>2024-05-10T08:07:09Z</time>
      </trkpt>
      <trkpt lat="46.71445" lon="6.19582">
        <ele>934</ele>
        <time>2024-05-10T08:07:20Z</time>
      </trkpt>
      <trkpt lat="46.7144" lon="6.19586">
        <ele>934.1</ele>
        <time>2024-05-10T08:07:31Z</time>
      </trkpt>
      <trkpt lat="46.71441" lon="6.19587">
        <ele>934.1</ele>
        <time>2024-05-10T08:07:41Z</time>
      </trkpt>
      <trkpt lat="46.71435" lon="6.19588">
        <ele>934.2</ele>
        <time>2024-05-10T08:07:52Z</time>
      </trkpt>
      <trkpt lat="46.71428" lon="6.19578">
        <ele>934.6</ele>
        <time>2024-05-10T08:08:02Z</time>
      </trkpt>
      <trkpt lat="46.71433" lon="6.19574">
        <ele>934.6</ele>
        <time>2024-05-10T08:08:12Z</time>
      </trkpt>
      <trkpt lat="46.71436" lon="6.19576">
        <ele>934.5</ele>
        <time>2024-05-10T08:08:22Z</time>
      </trkpt>
      <trkpt lat="46.71437" lon="6.19575">
        <ele>934.5</ele>
        <time>2024-05-10T08:08:33Z</time>
      </trkpt>
      <trkpt lat="46.71438" lon="6.19574">
        <ele>934.5</ele>
        <time>2024-05-10T08:08:43Z</time>
      </trkpt>
      <trkpt lat="46.71441" lon="6.19575">
        <ele>934.4</ele>
        <time>2024-05-10T08:08:53Z</time>
      </trkpt>
      <trkpt lat="46.71447" lon="6.19581">
        <ele>934.1</ele>
        <time>2024-05-10T08:09:03Z</time>
      </trkpt>
      <trkpt lat="46.71448" lon="6.19578">
        <ele>934</ele>
        <time>2024-05-10T08:09:14Z</time>
      </trkpt>
      <trkpt lat="46.71447" lon="6.19578">
        <ele>934.1</ele>
        <time>2024-05-10T08:09:24Z</time>
      </trkpt>
      <trkpt lat="46.71447" lon="6.19577">
        <ele>934.3</ele>
        <time>2024-05-10T08:09:35Z</time>
      </trkpt>
      <trkpt lat="46.71449" lon="6.19582">
        <ele>933.9</ele>
        <time>2024-05-10T08:09:45Z</time>
      </trkpt>
      <trkpt lat="46.71448" lon="6.19579">
        <ele>934</ele>
        <time>2024-05-10T08:09:55Z</time>
      </trkpt>
      <trkpt lat="46.71443" lon="6.19558">
        <ele>934.9</ele>
        <time>2024-05-10T08:10:06Z</time>
      </trkpt>
      <trkpt lat="46.71423" lon="6.19548">
        <ele>935.5</ele>
        <time>2024-05-10T08:10:16Z</time>
      </trkpt>
      <trkpt lat="46.71419" lon="6.19547">
        <ele>935.6</ele>
        <time>2024-05-10T08:10:26Z</time>
      </trkpt>
      <trkpt lat="46.71428" lon="6.19556">
        <ele>935.3</ele>
        <time>2024-05-10T08:10:37Z</time>
      </trkpt>
      <trkpt lat="46.71429" lon="6.19559">
        <ele>935.2</ele>
        <time>2024-05-10T08:10:48Z</time>
      </trkpt>
      <trkpt lat="46.7144" lon="6.19568">
        <ele>934.7</ele>
        <time>2024-05-10T08:10:58Z</time>
      </trkpt>
      <trkpt lat="46.71442" lon="6.1957">
        <ele>934.5</ele>
        <time>2024-05-10T08:11:08Z</time>
      </trkpt>
      <trkpt lat="46.71444" lon="6.19572">
        <ele>934.5</ele>
        <time>2024-05-10T08:11:19Z</time>
      </trkpt>
      <trkpt lat="46.71446" lon="6.19575">
        <ele>934.3</ele>
        <time>2024-05-10T08:11:29Z</time>
      </trkpt>
      <trkpt lat="46.71446" lon="6.19578">
        <ele>934.1</ele>
        <time>2024-05-10T08:11:39Z</time>
      </trkpt>
      <trkpt lat="46.71448" lon="6.1958">
        <ele>934.1</ele>
        <time>2024-05-10T08:11:49Z</time>
      </trkpt>
      <trkpt lat="46.71449" lon="6.19579">
        <ele>934.1</ele>
        <time>2024-05-10T08:11:59Z</time>
      </trkpt>
      <trkpt lat="46.7145" lon="6.19578">
        <ele>934.1</ele>
        <time>2024-05-10T08:12:10Z</time>
      </trkpt>
      <trkpt lat="46.71451" lon="6.1958">
        <ele>934</ele>
        <time>2024-05-10T08:12:21Z</time>
      </trkpt>
      <trkpt lat="46.71449" lon="6.19587">
        <ele>933.8</ele>
        <time>2024-05-10T08:12:31Z</time>
      </trkpt>
      <trkpt lat="46.71448" lon="6.19587">
        <ele>933.8</ele>
        <time>2024-05-10T08:12:42Z</time>
      </trkpt>
      <trkpt lat="46.71448" lon="6.19587">
        <ele>933.8</ele>
        <time>2024-05-10T08:12:52Z</time>
      </trkpt>
      <trkpt lat="46.71448" lon="6.19585">
        <ele>933.9</ele>
        <time>2024-05-10T08:13:03Z</time>
      </trkpt>
      <trkpt lat="46.71448" lon="6.19583">
        <ele>933.9</ele>
        <time>2024-05-10T08:13:13Z</time>
      </trkpt>
      <trkpt lat="46.7145" lon="6.19582">
        <ele>933.9</ele>
        <time>2024-05-10T08:13:24Z</time>
      </trkpt>
      <trkpt lat="46.71452" lon="6.19579">
        <ele>934</ele>
        <time>2024-05-10T08:13:34Z</time>
      </trkpt>
      <trkpt lat="46.71451" lon="6.19574">
        <ele>934.1</ele>
        <time>2024-05-10T08:13:44Z</time>
      </trkpt>
      <trkpt lat="46.7145" lon="6.19573">
        <ele>934.4</ele>
        <time>2024-05-10T08:13:55Z</time>
      </trkpt>
      <trkpt lat="46.7145" lon="6.19572">
        <ele>934.4</ele>
        <time>2024-05-10T08:14:05Z</time>
      </trkpt>
      <trkpt lat="46.7145" lon="6.19574">
        <ele>934.2</ele>
        <time>2024-05-10T08:14:16Z</time>
      </trkpt>
      <trkpt lat="46.7145" lon="6.19574">
        <ele>934.2</ele>
        <time>2024-05-10T08:14:27Z</time>
      </trkpt>
      <trkpt lat="46.71449" lon="6.1957">
        <ele>934.4</ele>
        <time>2024-05-10T08:14:38Z</time>
      </trkpt>
      <trkpt lat="46.71447" lon="6.1957">
        <ele>934.4</ele>
        <time>2024-05-10T08:14:49Z</time>
      </trkpt>
      <trkpt lat="46.71445" lon="6.1957">
        <ele>934.4</ele>
        <time>2024-05-10T08:14:59Z</time>
      </trkpt>
      <trkpt lat="46.71446" lon="6.19569">
        <ele>934.4</ele>
        <time>2024-05-10T08:15:09Z</time>
      </trkpt>
      <trkpt lat="46.71446" lon="6.19568">
        <ele>934.6</ele>
        <time>2024-05-10T08:15:19Z</time>
      </trkpt>
      <trkpt lat="46.71445" lon="6.19565">
        <ele>934.6</ele>
        <time>2024-05-10T08:15:30Z</time>
      </trkpt>
      <trkpt lat="46.71445" lon="6.19565">
        <ele>934.6</ele>
        <time>2024-05-10T08:15:41Z</time>
      </trkpt>
      <trkpt lat="46.71441" lon="6.19559">
        <ele>935</ele>
        <time>2024-05-10T08:15:51Z</time>
      </trkpt>
      <trkpt lat="46.71442" lon="6.19559">
        <ele>934.9</ele>
        <time>2024-05-10T08:16:02Z</time>
      </trkpt>
      <trkpt lat="46.71442" lon="6.19559">
        <ele>934.9</ele>
        <time>2024-05-10T08:16:12Z</time>
      </trkpt>
      <trkpt lat="46.71442" lon="6.19559">
        <ele>934.9</ele>
        <time>2024-05-10T08:16:22Z</time>
      </trkpt>
      <trkpt lat="46.71442" lon="6.19559">
        <ele>934.9</ele>
        <time>2024-05-10T08:16:33Z</time>
      </trkpt>
      <trkpt lat="46.71442" lon="6.19559">
        <ele>934.9</ele>
        <time>2024-05-10T08:16:43Z</time>
      </trkpt>
      <trkpt lat="46.71442" lon="6.19559">
        <ele>934.9</ele>
        <time>2024-05-10T08:16:53Z</time>
      </trkpt>
      <trkpt lat="46.71442" lon="6.19559">
        <ele>934.9</ele>
        <time>2024-05-10T08:17:04Z</time>
      </trkpt>
      <trkpt lat="46.71442" lon="6.19559">
        <ele>934.9</ele>
        <time>2024-05-10T08:17:14Z</time>
      </trkpt>
      <trkpt lat="46.71442" lon="6.19559">
        <ele>934.9</ele>
        <time>2024-05-10T08:17:25Z</time>
      </trkpt>
      <trkpt lat="46.71442" lon="6.19559">
        <ele>934.9</ele>
        <time>2024-05-10T08:17:36Z</time>
      </trkpt>
      <trkpt lat="46.71442" lon="6.19559">
        <ele>934.9</ele>
        <time>2024-05-10T08:17:46Z</time>
      </trkpt>
      <trkpt lat="46.71442" lon="6.19559">
        <ele>934.9</ele>
        <time>2024-05-10T08:17:56Z</time>
      </trkpt>
      <trkpt lat="46.71442" lon="6.19559">
        <ele>934.9</ele>
        <time>2024-05-10T08:18:06Z</time>
      </trkpt>
      <trkpt lat="46.71442" lon="6.19559">
        <ele>934.9</ele>
        <time>2024-05-10T08:18:17Z</time>
      </trkpt>
      <trkpt lat="46.71442" lon="6.19559">
        <ele>934.9</ele>
        <time>2024-05-10T08:18:28Z</time>
      </trkpt>
      <trkpt lat="46.71442" lon="6.19559">
        <ele>934.9</ele>
        <time>2024-05-10T08:18:38Z</time>
      </trkpt>
      <trkpt lat="46.71442" lon="6.19559">
        <ele>934.9</ele>
        <time>2024-05-10T08:18:48Z</time>
      </trkpt>
      <trkpt lat="46.71442" lon="6.19559">
        <ele>934.9</ele>
        <time>2024-05-10T08:18:59Z</time>
      </trkpt>
      <trkpt lat="46.71442" lon="6.19559">
        <ele>934.9</ele>
        <time>2024-05-10T08:19:09Z</time>
      </trkpt>
      <trkpt lat="46.71442" lon="6.19559">
        <ele>934.9</ele>
        <time>2024-05-10T08:19:20Z</time>
      </trkpt>
      <trkpt lat="46.71442" lon="6.19559">
        <ele>934.9</ele>
        <time>2024-05-10T08:19:30Z</time>
      </trkpt>
      <trkpt lat="46.71442" lon="6.19559">
        <ele>934.9</ele>
        <time>2024-05-10T08:19:41Z</time>
      </trkpt>
      <trkpt lat="46.71442" lon="6.19559">
        <ele>934.9</ele>
        <time>2024-05-10T08:19:52Z</time>
      </trkpt>
      <trkpt lat="46.71442" lon="6.19559">
        <ele>934.9</ele>
        <time>2024-05-10T08:20:03Z</time>
      </trkpt>
      <trkpt lat="46.71442" lon="6.19559">
        <ele>934.9</ele>
        <time>2024-05-10T08:20:13Z</time>
      </trkpt>
      <trkpt lat="46.71442" lon="6.19559">
        <ele>934.9</ele>
        <time>2024-05-10T08:20:24Z</time>
      </trkpt>
      <trkpt lat="46.71442" lon="6.19559">
        <ele>934.9</ele>
        <time>2024-05-10T08:20:34Z</time>
      </trkpt>
      <trkpt lat="46.71442" lon="6.19559">
        <ele>934.9</ele>
        <time>2024-05-10T08:20:45Z</time>
      </trkpt>
      <trkpt lat="46.71441" lon="6.19558">
        <ele>935</ele>
        <time>2024-05-10T08:20:56Z</time>
      </trkpt>
      <trkpt lat="46.71441" lon="6.19559">
        <ele>935</ele>
        <time>2024-05-10T08:21:06Z</time>
      </trkpt>
      <trkpt lat="46.7144" lon="6.19557">
        <ele>935</ele>
        <time>2024-05-10T08:21:17Z</time>
      </trkpt>
      <trkpt lat="46.7144" lon="6.19557">
        <ele>935</ele>
        <time>2024-05-10T08:21:27Z</time>
      </trkpt>
      <trkpt lat="46.71442" lon="6.19554">
        <ele>935</ele>
        <time>2024-05-10T08:21:37Z</time>
      </trkpt>
      <trkpt lat="46.71444" lon="6.19555">
        <ele>935</ele>
        <time>2024-05-10T08:21:47Z</time>
      </trkpt>
      <trkpt lat="46.71447" lon="6.19559">
        <ele>934.9</ele>
        <time>2024-05-10T08:21:58Z</time>
      </trkpt>
      <trkpt lat="46.71447" lon="6.1956">
        <ele>934.9</ele>
        <time>2024-05-10T08:22:08Z</time>
      </trkpt>
      <trkpt lat="46.71447" lon="6.1956">
        <ele>934.9</ele>
        <time>2024-05-10T08:22:19Z</time>
      </trkpt>
      <trkpt lat="46.71447" lon="6.1956">
        <ele>934.9</ele>
        <time>2024-05-10T08:22:30Z</time>
      </trkpt>
      <trkpt lat="46.71447" lon="6.1956">
        <ele>934.9</ele>
        <time>2024-05-10T08:22:40Z</time>
      </trkpt>
      <trkpt lat="46.71447" lon="6.1956">
        <ele>934.9</ele>
        <time>2024-05-10T08:22:51Z</time>
      </trkpt>
      <trkpt lat="46.71447" lon="6.19559">
        <ele>934.9</ele>
        <time>2024-05-10T08:23:02Z</time>
      </trkpt>
      <trkpt lat="46.71447" lon="6.19559">
        <ele>934.9</ele>
        <time>2024-05-10T08:23:12Z</time>
      </trkpt>
      <trkpt lat="46.71447" lon="6.19559">
        <ele>934.9</ele>
        <time>2024-05-10T08:23:23Z</time>
      </trkpt>
      <trkpt lat="46.71447" lon="6.19559">
        <ele>934.9</ele>
        <time>2024-05-10T08:23:34Z</time>
      </trkpt>
      <trkpt lat="46.71447" lon="6.19559">
        <ele>934.9</ele>
        <time>2024-05-10T08:23:44Z</time>
      </trkpt>
      <trkpt lat="46.71445" lon="6.19558">
        <ele>934.9</ele>
        <time>2024-05-10T08:23:55Z</time>
      </trkpt>
      <trkpt lat="46.71445" lon="6.19559">
        <ele>934.9</ele>
        <time>2024-05-10T08:24:06Z</time>
      </trkpt>
      <trkpt lat="46.71445" lon="6.19559">
        <ele>934.9</ele>
        <time>2024-05-10T08:24:17Z</time>
      </trkpt>
      <trkpt lat="46.71444" lon="6.19558">
        <ele>934.9</ele>
        <time>2024-05-10T08:24:28Z</time>
      </trkpt>
      <trkpt lat="46.71436" lon="6.19549">
        <ele>935.3</ele>
        <time>2024-05-10T08:24:38Z</time>
      </trkpt>
      <trkpt lat="46.71448" lon="6.19548">
        <ele>935.1</ele>
        <time>2024-05-10T08:24:48Z</time>
      </trkpt>
      <trkpt lat="46.7145" lon="6.1953">
        <ele>935.7</ele>
        <time>2024-05-10T08:24:58Z</time>
      </trkpt>
      <trkpt lat="46.71447" lon="6.19522">
        <ele>935.7</ele>
        <time>2024-05-10T08:25:09Z</time>
      </trkpt>
      <trkpt lat="46.71411" lon="6.19494">
        <ele>936.1</ele>
        <time>2024-05-10T08:25:19Z</time>
      </trkpt>
      <trkpt lat="46.71366" lon="6.19468">
        <ele>936.6</ele>
        <time>2024-05-10T08:25:29Z</time>
      </trkpt>
      <trkpt lat="46.7132" lon="6.19439">
        <ele>936.9</ele>
        <time>2024-05-10T08:25:40Z</time>
      </trkpt>
      <trkpt lat="46.71273" lon="6.19416">
        <ele>936</ele>
        <time>2024-05-10T08:25:50Z</time>
      </trkpt>
      <trkpt lat="46.71232" lon="6.19439">
        <ele>935</ele>
        <time>2024-05-10T08:26:00Z</time>
      </trkpt>
      <trkpt lat="46.71187" lon="6.19463">
        <ele>934.8</ele>
        <time>2024-05-10T08:26:11Z</time>
      </trkpt>
      <trkpt lat="46.71146" lon="6.19458">
        <ele>936.8</ele>
        <time>2024-05-10T08:26:21Z</time>
      </trkpt>
      <trkpt lat="46.71122" lon="6.19478">
        <ele>939.5</ele>
        <time>2024-05-10T08:26:32Z</time>
      </trkpt>
      <trkpt lat="46.71103" lon="6.195">
        <ele>940.9</ele>
        <time>2024-05-10T08:26:42Z</time>
      </trkpt>
      <trkpt lat="46.71076" lon="6.19468">
        <ele>938.8</ele>
        <time>2024-05-10T08:26:52Z</time>
      </trkpt>
      <trkpt lat="46.71028" lon="6.1952">
        <ele>937.5</ele>
        <time>2024-05-10T08:27:03Z</time>
      </trkpt>
      <trkpt lat="46.70972" lon="6.19527">
        <ele>936.3</ele>
        <time>2024-05-10T08:27:13Z</time>
      </trkpt>
      <trkpt lat="46.70908" lon="6.19483">
        <ele>935.2</ele>
        <time>2024-05-10T08:27:24Z</time>
      </trkpt>
      <trkpt lat="46.70851" lon="6.1946">
        <ele>935.3</ele>
        <time>2024-05-10T08:27:34Z</time>
      </trkpt>
      <trkpt lat="46.70785" lon="6.19448">
        <ele>935.4</ele>
        <time>2024-05-10T08:27:45Z</time>
      </trkpt>
      <trkpt lat="46.70734" lon="6.19475">
        <ele>935.9</ele>
        <time>2024-05-10T08:27:55Z</time>
      </trkpt>
      <trkpt lat="46.70684" lon="6.19502">
        <ele>936.6</ele>
        <time>2024-05-10T08:28:05Z</time>
      </trkpt>
      <trkpt lat="46.7063" lon="6.19519">
        <ele>936.9</ele>
        <time>2024-05-10T08:28:16Z</time>
      </trkpt>
      <trkpt lat="46.70574" lon="6.19537">
        <ele>937</ele>
        <time>2024-05-10T08:28:26Z</time>
      </trkpt>
      <trkpt lat="46.70519" lon="6.19535">
        <ele>936.9</ele>
        <time>2024-05-10T08:28:36Z</time>
      </trkpt>
      <trkpt lat="46.70514" lon="6.19534">
        <ele>936.9</ele>
        <time>2024-05-10T08:28:47Z</time>
      </trkpt>
      <trkpt lat="46.70535" lon="6.19538">
        <ele>937.1</ele>
        <time>2024-05-10T08:28:57Z</time>
      </trkpt>
      <trkpt lat="46.70505" lon="6.19554">
        <ele>937.3</ele>
        <time>2024-05-10T08:29:08Z</time>
      </trkpt>
      <trkpt lat="46.70462" lon="6.1958">
        <ele>937.6</ele>
        <time>2024-05-10T08:29:18Z</time>
      </trkpt>
      <trkpt lat="46.70423" lon="6.19636">
        <ele>938.1</ele>
        <time>2024-05-10T08:29:29Z</time>
      </trkpt>
      <trkpt lat="46.70397" lon="6.1971">
        <ele>938.7</ele>
        <time>2024-05-10T08:29:40Z</time>
      </trkpt>
      <trkpt lat="46.70356" lon="6.19764">
        <ele>939.5</ele>
        <time>2024-05-10T08:29:51Z</time>
      </trkpt>
      <trkpt lat="46.70318" lon="6.19793">
        <ele>940.3</ele>
        <time>2024-05-10T08:30:01Z</time>
      </trkpt>
      <trkpt lat="46.70276" lon="6.19804">
        <ele>941.2</ele>
        <time>2024-05-10T08:30:12Z</time>
      </trkpt>
      <trkpt lat="46.70257" lon="6.19739">
        <ele>941.9</ele>
        <time>2024-05-10T08:30:23Z</time>
      </trkpt>
      <trkpt lat="46.70237" lon="6.19683">
        <ele>943</ele>
        <time>2024-05-10T08:30:33Z</time>
      </trkpt>
      <trkpt lat="46.70212" lon="6.19631">
        <ele>944.3</ele>
        <time>2024-05-10T08:30:44Z</time>
      </trkpt>
      <trkpt lat="46.70189" lon="6.19582">
        <ele>945.1</ele>
        <time>2024-05-10T08:30:54Z</time>
      </trkpt>
      <trkpt lat="46.7017" lon="6.1953">
        <ele>945.8</ele>
        <time>2024-05-10T08:31:05Z</time>
      </trkpt>
      <trkpt lat="46.70151" lon="6.19489">
        <ele>946.4</ele>
        <time>2024-05-10T08:31:16Z</time>
      </trkpt>
      <trkpt lat="46.70134" lon="6.19448">
        <ele>946.7</ele>
        <time>2024-05-10T08:31:27Z</time>
      </trkpt>
      <trkpt lat="46.70115" lon="6.19414">
        <ele>946.4</ele>
        <time>2024-05-10T08:31:37Z</time>
      </trkpt>
      <trkpt lat="46.70109" lon="6.19404">
        <ele>946.2</ele>
        <time>2024-05-10T08:31:47Z</time>
      </trkpt>
      <trkpt lat="46.70109" lon="6.19404">
        <ele>946.2</ele>
        <time>2024-05-10T08:31:58Z</time>
      </trkpt>
      <trkpt lat="46.70109" lon="6.19404">
        <ele>946.2</ele>
        <time>2024-05-10T08:32:09Z</time>
      </trkpt>
      <trkpt lat="46.70109" lon="6.19404">
        <ele>946.2</ele>
        <time>2024-05-10T08:32:20Z</time>
      </trkpt>
      <trkpt lat="46.70109" lon="6.19404">
        <ele>946.2</ele>
        <time>2024-05-10T08:32:30Z</time>
      </trkpt>
      <trkpt lat="46.70109" lon="6.19404">
        <ele>946.2</ele>
        <time>2024-05-10T08:32:41Z</time>
      </trkpt>
      <trkpt lat="46.70109" lon="6.19404">
        <ele>946.2</ele>
        <time>2024-05-10T08:32:51Z</time>
      </trkpt>
      <trkpt lat="46.70109" lon="6.19404">
        <ele>946.2</ele>
        <time>2024-05-10T08:33:01Z</time>
      </trkpt>
      <trkpt lat="46.70109" lon="6.19404">
        <ele>946.2</ele>
        <time>2024-05-10T08:33:12Z</time>
      </trkpt>
      <trkpt lat="46.70109" lon="6.19404">
        <ele>946.2</ele>
        <time>2024-05-10T08:33:22Z</time>
      </trkpt>
      <trkpt lat="46.70109" lon="6.19404">
        <ele>946.2</ele>
        <time>2024-05-10T08:33:33Z</time>
      </trkpt>
      <trkpt lat="46.70109" lon="6.19404">
        <ele>946.2</ele>
        <time>2024-05-10T08:33:43Z</time>
      </trkpt>
      <trkpt lat="46.70109" lon="6.19404">
        <ele>946.2</ele>
        <time>2024-05-10T08:33:53Z</time>
      </trkpt>
      <trkpt lat="46.7011" lon="6.19405">
        <ele>946.2</ele>
        <time>2024-05-10T08:34:04Z</time>
      </trkpt>
      <trkpt lat="46.7011" lon="6.19405">
        <ele>946.2</ele>
        <time>2024-05-10T08:34:14Z</time>
      </trkpt>
      <trkpt lat="46.7011" lon="6.19405">
        <ele>946.2</ele>
        <time>2024-05-10T08:34:25Z</time>
      </trkpt>
      <trkpt lat="46.70091" lon="6.19372">
        <ele>946.8</ele>
        <time>2024-05-10T08:34:36Z</time>
      </trkpt>
      <trkpt lat="46.70072" lon="6.19315">
        <ele>946.4</ele>
        <time>2024-05-10T08:34:46Z</time>
      </trkpt>
      <trkpt lat="46.70058" lon="6.19243">
        <ele>946</ele>
        <time>2024-05-10T08:34:57Z</time>
      </trkpt>
      <trkpt lat="46.70037" lon="6.19178">
        <ele>946.4</ele>
        <time>2024-05-10T08:35:08Z</time>
      </trkpt>
      <trkpt lat="46.70004" lon="6.19108">
        <ele>947.1</ele>
        <time>2024-05-10T08:35:19Z</time>
      </trkpt>
      <trkpt lat="46.69974" lon="6.19039">
        <ele>947.3</ele>
        <time>2024-05-10T08:35:30Z</time>
      </trkpt>
      <trkpt lat="46.69944" lon="6.18971">
        <ele>948.1</ele>
        <time>2024-05-10T08:35:41Z</time>
      </trkpt>
      <trkpt lat="46.69909" lon="6.18921">
        <ele>950.1</ele>
        <time>2024-05-10T08:35:52Z</time>
      </trkpt>
      <trkpt lat="46.69874" lon="6.18884">
        <ele>951.2</ele>
        <time>2024-05-10T08:36:03Z</time>
      </trkpt>
      <trkpt lat="46.69832" lon="6.18853">
        <ele>951.3</ele>
        <time>2024-05-10T08:36:13Z</time>
      </trkpt>
      <trkpt lat="46.6979" lon="6.18807">
        <ele>952.3</ele>
        <time>2024-05-10T08:36:24Z</time>
      </trkpt>
      <trkpt lat="46.69746" lon="6.18762">
        <ele>952.5</ele>
        <time>2024-05-10T08:36:35Z</time>
      </trkpt>
      <trkpt lat="46.69716" lon="6.18698">
        <ele>952.7</ele>
        <time>2024-05-10T08:36:45Z</time>
      </trkpt>
      <trkpt lat="46.69681" lon="6.18658">
        <ele>954</ele>
        <time>2024-05-10T08:36:55Z</time>
      </trkpt>
      <trkpt lat="46.69651" lon="6.18631">
        <ele>954.2</ele>
        <time>2024-05-10T08:37:06Z</time>
      </trkpt>
      <trkpt lat="46.69643" lon="6.18633">
        <ele>953.9</ele>
        <time>2024-05-10T08:37:16Z</time>
      </trkpt>
      <trkpt lat="46.69638" lon="6.18614">
        <ele>953.5</ele>
        <time>2024-05-10T08:37:27Z</time>
      </trkpt>
      <trkpt lat="46.69585" lon="6.18588">
        <ele>953.8</ele>
        <time>2024-05-10T08:37:38Z</time>
      </trkpt>
      <trkpt lat="46.69539" lon="6.1857">
        <ele>954.9</ele>
        <time>2024-05-10T08:37:49Z</time>
      </trkpt>
      <trkpt lat="46.695" lon="6.18543">
        <ele>955.2</ele>
        <time>2024-05-10T08:37:59Z</time>
      </trkpt>
      <trkpt lat="46.69462" lon="6.18508">
        <ele>955.1</ele>
        <time>2024-05-10T08:38:10Z</time>
      </trkpt>
      <trkpt lat="46.69474" lon="6.18461">
        <ele>954.9</ele>
        <time>2024-05-10T08:38:20Z</time>
      </trkpt>
      <trkpt lat="46.6951" lon="6.18433">
        <ele>955.4</ele>
        <time>2024-05-10T08:38:31Z</time>
      </trkpt>
      <trkpt lat="46.69542" lon="6.18414">
        <ele>957.2</ele>
        <time>2024-05-10T08:38:41Z</time>
      </trkpt>
      <trkpt lat="46.69567" lon="6.18369">
        <ele>958.1</ele>
        <time>2024-05-10T08:38:52Z</time>
      </trkpt>
      <trkpt lat="46.69557" lon="6.18309">
        <ele>959.1</ele>
        <time>2024-05-10T08:39:03Z</time>
      </trkpt>
      <trkpt lat="46.69536" lon="6.18262">
        <ele>960.4</ele>
        <time>2024-05-10T08:39:13Z</time>
      </trkpt>
      <trkpt lat="46.6954" lon="6.18192">
        <ele>960.6</ele>
        <time>2024-05-10T08:39:24Z</time>
      </trkpt>
      <trkpt lat="46.69521" lon="6.18147">
        <ele>960.5</ele>
        <time>2024-05-10T08:39:35Z</time>
      </trkpt>
      <trkpt lat="46.69503" lon="6.18116">
        <ele>960.5</ele>
        <time>2024-05-10T08:39:45Z</time>
      </trkpt>
      <trkpt lat="46.69476" lon="6.18091">
        <ele>962.5</ele>
        <time>2024-05-10T08:39:56Z</time>
      </trkpt>
      <trkpt lat="46.69455" lon="6.18077">
        <ele>964.7</ele>
        <time>2024-05-10T08:40:06Z</time>
      </trkpt>
      <trkpt lat="46.6943" lon="6.1807">
        <ele>967.1</ele>
        <time>2024-05-10T08:40:16Z</time>
      </trkpt>
      <trkpt lat="46.69411" lon="6.18062">
        <ele>969.7</ele>
        <time>2024-05-10T08:40:27Z</time>
      </trkpt>
      <trkpt lat="46.69396" lon="6.18058">
        <ele>972.4</ele>
        <time>2024-05-10T08:40:37Z</time>
      </trkpt>
      <trkpt lat="46.69386" lon="6.18045">
        <ele>974.1</ele>
        <time>2024-05-10T08:40:47Z</time>
      </trkpt>
      <trkpt lat="46.69361" lon="6.18018">
        <ele>975.5</ele>
        <time>2024-05-10T08:40:58Z</time>
      </trkpt>
      <trkpt lat="46.69323" lon="6.17969">
        <ele>975</ele>
        <time>2024-05-10T08:41:09Z</time>
      </trkpt>
      <trkpt lat="46.6929" lon="6.17918">
        <ele>975.5</ele>
        <time>2024-05-10T08:41:20Z</time>
      </trkpt>
      <trkpt lat="46.69265" lon="6.17895">
        <ele>976.8</ele>
        <time>2024-05-10T08:41:30Z</time>
      </trkpt>
      <trkpt lat="46.69261" lon="6.17864">
        <ele>976.8</ele>
        <time>2024-05-10T08:41:40Z</time>
      </trkpt>
      <trkpt lat="46.69283" lon="6.17824">
        <ele>976.3</ele>
        <time>2024-05-10T08:41:50Z</time>
      </trkpt>
      <trkpt lat="46.69314" lon="6.17808">
        <ele>977.3</ele>
        <time>2024-05-10T08:42:00Z</time>
      </trkpt>
      <trkpt lat="46.69323" lon="6.17755">
        <ele>978.7</ele>
        <time>2024-05-10T08:42:11Z</time>
      </trkpt>
      <trkpt lat="46.69332" lon="6.17713">
        <ele>980.2</ele>
        <time>2024-05-10T08:42:22Z</time>
      </trkpt>
      <trkpt lat="46.69382" lon="6.1771">
        <ele>981.4</ele>
        <time>2024-05-10T08:42:33Z</time>
      </trkpt>
      <trkpt lat="46.69424" lon="6.17717">
        <ele>983.7</ele>
        <time>2024-05-10T08:42:44Z</time>
      </trkpt>
      <trkpt lat="46.69476" lon="6.17708">
        <ele>983.2</ele>
        <time>2024-05-10T08:42:55Z</time>
      </trkpt>
      <trkpt lat="46.69482" lon="6.17619">
        <ele>981.3</ele>
        <time>2024-05-10T08:43:06Z</time>
      </trkpt>
      <trkpt lat="46.69457" lon="6.17544">
        <ele>979.6</ele>
        <time>2024-05-10T08:43:17Z</time>
      </trkpt>
      <trkpt lat="46.69433" lon="6.17464">
        <ele>979.9</ele>
        <time>2024-05-10T08:43:28Z</time>
      </trkpt>
      <trkpt lat="46.69407" lon="6.17413">
        <ele>982.1</ele>
        <time>2024-05-10T08:43:38Z</time>
      </trkpt>
      <trkpt lat="46.69382" lon="6.17397">
        <ele>985.9</ele>
        <time>2024-05-10T08:43:49Z</time>
      </trkpt>
      <trkpt lat="46.69367" lon="6.17384">
        <ele>988.5</ele>
        <time>2024-05-10T08:43:59Z</time>
      </trkpt>
      <trkpt lat="46.69346" lon="6.17375">
        <ele>991.8</ele>
        <time>2024-05-10T08:44:10Z</time>
      </trkpt>
      <trkpt lat="46.69332" lon="6.17366">
        <ele>994.6</ele>
        <time>2024-05-10T08:44:20Z</time>
      </trkpt>
      <trkpt lat="46.69323" lon="6.17346">
        <ele>997.3</ele>
        <time>2024-05-10T08:44:31Z</time>
      </trkpt>
      <trkpt lat="46.69315" lon="6.17327">
        <ele>999.9</ele>
        <time>2024-05-10T08:44:42Z</time>
      </trkpt>
      <trkpt lat="46.69306" lon="6.17313">
        <ele>1002.1</ele>
        <time>2024-05-10T08:44:52Z</time>
      </trkpt>
      <trkpt lat="46.69296" lon="6.17298">
        <ele>1004.4</ele>
        <time>2024-05-10T08:45:02Z</time>
      </trkpt>
      <trkpt lat="46.69277" lon="6.17276">
        <ele>1006.4</ele>
        <time>2024-05-10T08:45:13Z</time>
      </trkpt>
      <trkpt lat="46.69256" lon="6.17247">
        <ele>1007.9</ele>
        <time>2024-05-10T08:45:24Z</time>
      </trkpt>
      <trkpt lat="46.69236" lon="6.17224">
        <ele>1009</ele>
        <time>2024-05-10T08:45:35Z</time>
      </trkpt>
      <trkpt lat="46.69201" lon="6.17163">
        <ele>1006.5</ele>
        <time>2024-05-10T08:45:46Z</time>
      </trkpt>
      <trkpt lat="46.6917" lon="6.17108">
        <ele>1005.9</ele>
        <time>2024-05-10T08:45:57Z</time>
      </trkpt>
      <trkpt lat="46.69132" lon="6.17043">
        <ele>1003.3</ele>
        <time>2024-05-10T08:46:07Z</time>
      </trkpt>
      <trkpt lat="46.69089" lon="6.16984">
        <ele>1004.1</ele>
        <time>2024-05-10T08:46:19Z</time>
      </trkpt>
      <trkpt lat="46.69062" lon="6.16952">
        <ele>1007</ele>
        <time>2024-05-10T08:46:29Z</time>
      </trkpt>
      <trkpt lat="46.6904" lon="6.16922">
        <ele>1008.8</ele>
        <time>2024-05-10T08:46:39Z</time>
      </trkpt>
      <trkpt lat="46.69019" lon="6.16889">
        <ele>1011.2</ele>
        <time>2024-05-10T08:46:50Z</time>
      </trkpt>
      <trkpt lat="46.69004" lon="6.1686">
        <ele>1014.2</ele>
        <time>2024-05-10T08:47:00Z</time>
      </trkpt>
      <trkpt lat="46.6899" lon="6.16838">
        <ele>1016.4</ele>
        <time>2024-05-10T08:47:11Z</time>
      </trkpt>
      <trkpt lat="46.68975" lon="6.16816">
        <ele>1018</ele>
        <time>2024-05-10T08:47:22Z</time>
      </trkpt>
      <trkpt lat="46.68966" lon="6.16774">
        <ele>1017.1</ele>
        <time>2024-05-10T08:47:33Z</time>
      </trkpt>
      <trkpt lat="46.68949" lon="6.1673">
        <ele>1017.1</ele>
        <time>2024-05-10T08:47:43Z</time>
      </trkpt>
      <trkpt lat="46.68939" lon="6.16699">
        <ele>1017.8</ele>
        <time>2024-05-10T08:47:53Z</time>
      </trkpt>
      <trkpt lat="46.6893" lon="6.1667">
        <ele>1017.9</ele>
        <time>2024-05-10T08:48:03Z</time>
      </trkpt>
      <trkpt lat="46.68921" lon="6.16631">
        <ele>1015.4</ele>
        <time>2024-05-10T08:48:14Z</time>
      </trkpt>
      <trkpt lat="46.68913" lon="6.16587">
        <ele>1012.1</ele>
        <time>2024-05-10T08:48:25Z</time>
      </trkpt>
      <trkpt lat="46.68906" lon="6.16554">
        <ele>1009.7</ele>
        <time>2024-05-10T08:48:35Z</time>
      </trkpt>
      <trkpt lat="46.68897" lon="6.16532">
        <ele>1008.4</ele>
        <time>2024-05-10T08:48:45Z</time>
      </trkpt>
      <trkpt lat="46.68885" lon="6.16511">
        <ele>1007.5</ele>
        <time>2024-05-10T08:48:56Z</time>
      </trkpt>
      <trkpt lat="46.68869" lon="6.16467">
        <ele>1007</ele>
        <time>2024-05-10T08:49:08Z</time>
      </trkpt>
      <trkpt lat="46.68852" lon="6.16414">
        <ele>1005.3</ele>
        <time>2024-05-10T08:49:18Z</time>
      </trkpt>
      <trkpt lat="46.68841" lon="6.16376">
        <ele>1003.5</ele>
        <time>2024-05-10T08:49:30Z</time>
      </trkpt>
      <trkpt lat="46.68827" lon="6.16343">
        <ele>1001.5</ele>
        <time>2024-05-10T08:49:40Z</time>
      </trkpt>
      <trkpt lat="46.68813" lon="6.16283">
        <ele>996.9</ele>
        <time>2024-05-10T08:49:50Z</time>
      </trkpt>
      <trkpt lat="46.68794" lon="6.16221">
        <ele>993.7</ele>
        <time>2024-05-10T08:50:01Z</time>
      </trkpt>
      <trkpt lat="46.68759" lon="6.16166">
        <ele>990.5</ele>
        <time>2024-05-10T08:50:13Z</time>
      </trkpt>
      <trkpt lat="46.68751" lon="6.16108">
        <ele>985.3</ele>
        <time>2024-05-10T08:50:24Z</time>
      </trkpt>
      <trkpt lat="46.68756" lon="6.16034">
        <ele>979.2</ele>
        <time>2024-05-10T08:50:34Z</time>
      </trkpt>
      <trkpt lat="46.68749" lon="6.15961">
        <ele>978.1</ele>
        <time>2024-05-10T08:50:44Z</time>
      </trkpt>
      <trkpt lat="46.68732" lon="6.15908">
        <ele>976.9</ele>
        <time>2024-05-10T08:50:54Z</time>
      </trkpt>
      <trkpt lat="46.68727" lon="6.1583">
        <ele>977.3</ele>
        <time>2024-05-10T08:51:05Z</time>
      </trkpt>
      <trkpt lat="46.68757" lon="6.15772">
        <ele>977.2</ele>
        <time>2024-05-10T08:51:16Z</time>
      </trkpt>
      <trkpt lat="46.68737" lon="6.15722">
        <ele>977.5</ele>
        <time>2024-05-10T08:51:26Z</time>
      </trkpt>
      <trkpt lat="46.68731" lon="6.15674">
        <ele>978</ele>
        <time>2024-05-10T08:51:38Z</time>
      </trkpt>
      <trkpt lat="46.68707" lon="6.15621">
        <ele>977.8</ele>
        <time>2024-05-10T08:51:48Z</time>
      </trkpt>
      <trkpt lat="46.68697" lon="6.15575">
        <ele>978.1</ele>
        <time>2024-05-10T08:51:59Z</time>
      </trkpt>
      <trkpt lat="46.68689" lon="6.15522">
        <ele>978.7</ele>
        <time>2024-05-10T08:52:09Z</time>
      </trkpt>
      <trkpt lat="46.68681" lon="6.15472">
        <ele>979.1</ele>
        <time>2024-05-10T08:52:20Z</time>
      </trkpt>
      <trkpt lat="46.68673" lon="6.1542">
        <ele>979.4</ele>
        <time>2024-05-10T08:52:31Z</time>
      </trkpt>
      <trkpt lat="46.68661" lon="6.15379">
        <ele>980.1</ele>
        <time>2024-05-10T08:52:41Z</time>
      </trkpt>
      <trkpt lat="46.6865" lon="6.15339">
        <ele>980.9</ele>
        <time>2024-05-10T08:52:51Z</time>
      </trkpt>
      <trkpt lat="46.68635" lon="6.1529">
        <ele>981.1</ele>
        <time>2024-05-10T08:53:02Z</time>
      </trkpt>
      <trkpt lat="46.68619" lon="6.15244">
        <ele>981.1</ele>
        <time>2024-05-10T08:53:12Z</time>
      </trkpt>
      <trkpt lat="46.68606" lon="6.15198">
        <ele>981.7</ele>
        <time>2024-05-10T08:53:23Z</time>
      </trkpt>
      <trkpt lat="46.68598" lon="6.15146">
        <ele>982.4</ele>
        <time>2024-05-10T08:53:34Z</time>
      </trkpt>
      <trkpt lat="46.68585" lon="6.1509">
        <ele>982.5</ele>
        <time>2024-05-10T08:53:44Z</time>
      </trkpt>
      <trkpt lat="46.68573" lon="6.15039">
        <ele>982.7</ele>
        <time>2024-05-10T08:53:54Z</time>
      </trkpt>
      <trkpt lat="46.68558" lon="6.14998">
        <ele>982.7</ele>
        <time>2024-05-10T08:54:05Z</time>
      </trkpt>
      <trkpt lat="46.68531" lon="6.14948">
        <ele>983.1</ele>
        <time>2024-05-10T08:54:15Z</time>
      </trkpt>
      <trkpt lat="46.68517" lon="6.1491">
        <ele>984.2</ele>
        <time>2024-05-10T08:54:25Z</time>
      </trkpt>
      <trkpt lat="46.68507" lon="6.14877">
        <ele>985.1</ele>
        <time>2024-05-10T08:54:36Z</time>
      </trkpt>
      <trkpt lat="46.68489" lon="6.14828">
        <ele>985.5</ele>
        <time>2024-05-10T08:54:46Z</time>
      </trkpt>
      <trkpt lat="46.68469" lon="6.14779">
        <ele>985.5</ele>
        <time>2024-05-10T08:54:56Z</time>
      </trkpt>
      <trkpt lat="46.68466" lon="6.14764">
        <ele>985.5</ele>
        <time>2024-05-10T08:55:07Z</time>
      </trkpt>
      <trkpt lat="46.68464" lon="6.14759">
        <ele>985.4</ele>
        <time>2024-05-10T08:55:17Z</time>
      </trkpt>
      <trkpt lat="46.68464" lon="6.1476">
        <ele>985.4</ele>
        <time>2024-05-10T08:55:29Z</time>
      </trkpt>
      <trkpt lat="46.68453" lon="6.14722">
        <ele>985.5</ele>
        <time>2024-05-10T08:55:39Z</time>
      </trkpt>
      <trkpt lat="46.68435" lon="6.14667">
        <ele>986.3</ele>
        <time>2024-05-10T08:55:49Z</time>
      </trkpt>
      <trkpt lat="46.6842" lon="6.1462">
        <ele>987.1</ele>
        <time>2024-05-10T08:55:59Z</time>
      </trkpt>
      <trkpt lat="46.68404" lon="6.14566">
        <ele>987.9</ele>
        <time>2024-05-10T08:56:10Z</time>
      </trkpt>
      <trkpt lat="46.6839" lon="6.14518">
        <ele>988.4</ele>
        <time>2024-05-10T08:56:20Z</time>
      </trkpt>
      <trkpt lat="46.68376" lon="6.1447">
        <ele>989</ele>
        <time>2024-05-10T08:56:30Z</time>
      </trkpt>
      <trkpt lat="46.68363" lon="6.14417">
        <ele>989.4</ele>
        <time>2024-05-10T08:56:41Z</time>
      </trkpt>
      <trkpt lat="46.6835" lon="6.14369">
        <ele>990.8</ele>
        <time>2024-05-10T08:56:52Z</time>
      </trkpt>
      <trkpt lat="46.68347" lon="6.14341">
        <ele>992.6</ele>
        <time>2024-05-10T08:57:03Z</time>
      </trkpt>
      <trkpt lat="46.68343" lon="6.14317">
        <ele>994.7</ele>
        <time>2024-05-10T08:57:13Z</time>
      </trkpt>
      <trkpt lat="46.68341" lon="6.14295">
        <ele>996.8</ele>
        <time>2024-05-10T08:57:24Z</time>
      </trkpt>
      <trkpt lat="46.68339" lon="6.14276">
        <ele>998.7</ele>
        <time>2024-05-10T08:57:34Z</time>
      </trkpt>
      <trkpt lat="46.68335" lon="6.14259">
        <ele>1000.4</ele>
        <time>2024-05-10T08:57:45Z</time>
      </trkpt>
      <trkpt lat="46.68332" lon="6.14244">
        <ele>1001.6</ele>
        <time>2024-05-10T08:57:56Z</time>
      </trkpt>
      <trkpt lat="46.68326" lon="6.14218">
        <ele>1003.4</ele>
        <time>2024-05-10T08:58:06Z</time>
      </trkpt>
      <trkpt lat="46.68321" lon="6.14182">
        <ele>1004.8</ele>
        <time>2024-05-10T08:58:17Z</time>
      </trkpt>
      <trkpt lat="46.68321" lon="6.14144">
        <ele>1006.2</ele>
        <time>2024-05-10T08:58:28Z</time>
      </trkpt>
      <trkpt lat="46.68324" lon="6.14139">
        <ele>1006.5</ele>
        <time>2024-05-10T08:58:38Z</time>
      </trkpt>
      <trkpt lat="46.68323" lon="6.14135">
        <ele>1006.7</ele>
        <time>2024-05-10T08:58:48Z</time>
      </trkpt>
      <trkpt lat="46.68316" lon="6.1411">
        <ele>1007.4</ele>
        <time>2024-05-10T08:58:59Z</time>
      </trkpt>
      <trkpt lat="46.68308" lon="6.1406">
        <ele>1007.6</ele>
        <time>2024-05-10T08:59:09Z</time>
      </trkpt>
      <trkpt lat="46.68302" lon="6.14009">
        <ele>1007.5</ele>
        <time>2024-05-10T08:59:20Z</time>
      </trkpt>
      <trkpt lat="46.68283" lon="6.13952">
        <ele>1006.7</ele>
        <time>2024-05-10T08:59:30Z</time>
      </trkpt>
      <trkpt lat="46.68265" lon="6.13904">
        <ele>1008.2</ele>
        <time>2024-05-10T08:59:41Z</time>
      </trkpt>
      <trkpt lat="46.68261" lon="6.13886">
        <ele>1009.1</ele>
        <time>2024-05-10T08:59:52Z</time>
      </trkpt>
      <trkpt lat="46.6826" lon="6.13887">
        <ele>1009.1</ele>
        <time>2024-05-10T09:00:03Z</time>
      </trkpt>
      <trkpt lat="46.6826" lon="6.13886">
        <ele>1009.2</ele>
        <time>2024-05-10T09:00:13Z</time>
      </trkpt>
      <trkpt lat="46.68255" lon="6.13871">
        <ele>1009.7</ele>
        <time>2024-05-10T09:00:24Z</time>
      </trkpt>
      <trkpt lat="46.68245" lon="6.13825">
        <ele>1009.8</ele>
        <time>2024-05-10T09:00:35Z</time>
      </trkpt>
      <trkpt lat="46.68225" lon="6.13768">
        <ele>1008.3</ele>
        <time>2024-05-10T09:00:46Z</time>
      </trkpt>
      <trkpt lat="46.68182" lon="6.13712">
        <ele>1005.4</ele>
        <time>2024-05-10T09:00:57Z</time>
      </trkpt>
      <trkpt lat="46.68147" lon="6.13654">
        <ele>1000.7</ele>
        <time>2024-05-10T09:01:07Z</time>
      </trkpt>
      <trkpt lat="46.68112" lon="6.13572">
        <ele>996.3</ele>
        <time>2024-05-10T09:01:18Z</time>
      </trkpt>
      <trkpt lat="46.68086" lon="6.13482">
        <ele>994.4</ele>
        <time>2024-05-10T09:01:29Z</time>
      </trkpt>
      <trkpt lat="46.68093" lon="6.13441">
        <ele>993.9</ele>
        <time>2024-05-10T09:01:39Z</time>
      </trkpt>
      <trkpt lat="46.68091" lon="6.13441">
        <ele>993.9</ele>
        <time>2024-05-10T09:01:49Z</time>
      </trkpt>
      <trkpt lat="46.68088" lon="6.1343">
        <ele>993.9</ele>
        <time>2024-05-10T09:02:00Z</time>
      </trkpt>
      <trkpt lat="46.68047" lon="6.13405">
        <ele>994.5</ele>
        <time>2024-05-10T09:02:11Z</time>
      </trkpt>
      <trkpt lat="46.68007" lon="6.13369">
        <ele>993.9</ele>
        <time>2024-05-10T09:02:21Z</time>
      </trkpt>
      <trkpt lat="46.67955" lon="6.13312">
        <ele>992.4</ele>
        <time>2024-05-10T09:02:32Z</time>
      </trkpt>
      <trkpt lat="46.67912" lon="6.13359">
        <ele>992.6</ele>
        <time>2024-05-10T09:02:42Z</time>
      </trkpt>
      <trkpt lat="46.67876" lon="6.13436">
        <ele>993.3</ele>
        <time>2024-05-10T09:02:53Z</time>
      </trkpt>
      <trkpt lat="46.67844" lon="6.13505">
        <ele>994.6</ele>
        <time>2024-05-10T09:03:04Z</time>
      </trkpt>
      <trkpt lat="46.67812" lon="6.13574">
        <ele>995.5</ele>
        <time>2024-05-10T09:03:15Z</time>
      </trkpt>
      <trkpt lat="46.67781" lon="6.1365">
        <ele>996.1</ele>
        <time>2024-05-10T09:03:26Z</time>
      </trkpt>
      <trkpt lat="46.67751" lon="6.13711">
        <ele>996.9</ele>
        <time>2024-05-10T09:03:37Z</time>
      </trkpt>
      <trkpt lat="46.67717" lon="6.13768">
        <ele>998.1</ele>
        <time>2024-05-10T09:03:47Z</time>
      </trkpt>
      <trkpt lat="46.6768" lon="6.13817">
        <ele>999</ele>
        <time>2024-05-10T09:03:57Z</time>
      </trkpt>
      <trkpt lat="46.67635" lon="6.13829">
        <ele>1000.2</ele>
        <time>2024-05-10T09:04:07Z</time>
      </trkpt>
      <trkpt lat="46.67602" lon="6.1382">
        <ele>1001.6</ele>
        <time>2024-05-10T09:04:17Z</time>
      </trkpt>
      <trkpt lat="46.67597" lon="6.13827">
        <ele>1002.2</ele>
        <time>2024-05-10T09:04:28Z</time>
      </trkpt>
      <trkpt lat="46.67563" lon="6.13801">
        <ele>1003.8</ele>
        <time>2024-05-10T09:04:38Z</time>
      </trkpt>
      <trkpt lat="46.67526" lon="6.13769">
        <ele>1005.8</ele>
        <time>2024-05-10T09:04:49Z</time>
      </trkpt>
      <trkpt lat="46.67479" lon="6.13759">
        <ele>1007.2</ele>
        <time>2024-05-10T09:05:00Z</time>
      </trkpt>
      <trkpt lat="46.67442" lon="6.13773">
        <ele>1008.6</ele>
        <time>2024-05-10T09:05:10Z</time>
      </trkpt>
      <trkpt lat="46.67422" lon="6.13726">
        <ele>1007.5</ele>
        <time>2024-05-10T09:05:20Z</time>
      </trkpt>
      <trkpt lat="46.67406" lon="6.13663">
        <ele>1008.7</ele>
        <time>2024-05-10T09:05:31Z</time>
      </trkpt>
      <trkpt lat="46.67392" lon="6.13601">
        <ele>1009.7</ele>
        <time>2024-05-10T09:05:41Z</time>
      </trkpt>
      <trkpt lat="46.67376" lon="6.13529">
        <ele>1010.4</ele>
        <time>2024-05-10T09:05:52Z</time>
      </trkpt>
      <trkpt lat="46.67351" lon="6.13466">
        <ele>1011.3</ele>
        <time>2024-05-10T09:06:03Z</time>
      </trkpt>
      <trkpt lat="46.67344" lon="6.13452">
        <ele>1011.5</ele>
        <time>2024-05-10T09:06:14Z</time>
      </trkpt>
      <trkpt lat="46.67344" lon="6.13453">
        <ele>1011.5</ele>
        <time>2024-05-10T09:06:25Z</time>
      </trkpt>
      <trkpt lat="46.67344" lon="6.13453">
        <ele>1011.6</ele>
        <time>2024-05-10T09:06:36Z</time>
      </trkpt>
      <trkpt lat="46.67343" lon="6.13452">
        <ele>1011.6</ele>
        <time>2024-05-10T09:06:46Z</time>
      </trkpt>
      <trkpt lat="46.67336" lon="6.13435">
        <ele>1011.9</ele>
        <time>2024-05-10T09:06:56Z</time>
      </trkpt>
      <trkpt lat="46.67312" lon="6.13379">
        <ele>1013.2</ele>
        <time>2024-05-10T09:07:07Z</time>
      </trkpt>
      <trkpt lat="46.67291" lon="6.13326">
        <ele>1014.2</ele>
        <time>2024-05-10T09:07:17Z</time>
      </trkpt>
      <trkpt lat="46.67273" lon="6.13269">
        <ele>1015.2</ele>
        <time>2024-05-10T09:07:27Z</time>
      </trkpt>
      <trkpt lat="46.67246" lon="6.13219">
        <ele>1016.6</ele>
        <time>2024-05-10T09:07:38Z</time>
      </trkpt>
      <trkpt lat="46.67209" lon="6.13196">
        <ele>1017.7</ele>
        <time>2024-05-10T09:07:48Z</time>
      </trkpt>
      <trkpt lat="46.67167" lon="6.13173">
        <ele>1018.8</ele>
        <time>2024-05-10T09:07:59Z</time>
      </trkpt>
      <trkpt lat="46.67133" lon="6.13142">
        <ele>1020.3</ele>
        <time>2024-05-10T09:08:10Z</time>
      </trkpt>
      <trkpt lat="46.67107" lon="6.13112">
        <ele>1021.9</ele>
        <time>2024-05-10T09:08:20Z</time>
      </trkpt>
      <trkpt lat="46.67071" lon="6.13072">
        <ele>1022</ele>
        <time>2024-05-10T09:08:30Z</time>
      </trkpt>
      <trkpt lat="46.67033" lon="6.13031">
        <ele>1022.9</ele>
        <time>2024-05-10T09:08:40Z</time>
      </trkpt>
      <trkpt lat="46.67005" lon="6.13009">
        <ele>1025.4</ele>
        <time>2024-05-10T09:08:51Z</time>
      </trkpt>
      <trkpt lat="46.66982" lon="6.12997">
        <ele>1027.9</ele>
        <time>2024-05-10T09:09:01Z</time>
      </trkpt>
      <trkpt lat="46.66962" lon="6.12979">
        <ele>1030.7</ele>
        <time>2024-05-10T09:09:12Z</time>
      </trkpt>
      <trkpt lat="46.66948" lon="6.12957">
        <ele>1033.6</ele>
        <time>2024-05-10T09:09:23Z</time>
      </trkpt>
      <trkpt lat="46.66938" lon="6.12937">
        <ele>1036.4</ele>
        <time>2024-05-10T09:09:34Z</time>
      </trkpt>
      <trkpt lat="46.66927" lon="6.12917">
        <ele>1039.1</ele>
        <time>2024-05-10T09:09:46Z</time>
      </trkpt>
      <trkpt lat="46.66915" lon="6.12899">
        <ele>1041.9</ele>
        <time>2024-05-10T09:09:56Z</time>
      </trkpt>
      <trkpt lat="46.66903" lon="6.12886">
        <ele>1044.8</ele>
        <time>2024-05-10T09:10:07Z</time>
      </trkpt>
      <trkpt lat="46.66893" lon="6.12872">
        <ele>1047.6</ele>
        <time>2024-05-10T09:10:17Z</time>
      </trkpt>
      <trkpt lat="46.66882" lon="6.12857">
        <ele>1050.3</ele>
        <time>2024-05-10T09:10:28Z</time>
      </trkpt>
      <trkpt lat="46.66872" lon="6.12838">
        <ele>1052.8</ele>
        <time>2024-05-10T09:10:39Z</time>
      </trkpt>
      <trkpt lat="46.66861" lon="6.12819">
        <ele>1055.1</ele>
        <time>2024-05-10T09:10:50Z</time>
      </trkpt>
      <trkpt lat="46.66851" lon="6.12799">
        <ele>1057</ele>
        <time>2024-05-10T09:11:00Z</time>
      </trkpt>
      <trkpt lat="46.66839" lon="6.12774">
        <ele>1058.7</ele>
        <time>2024-05-10T09:11:11Z</time>
      </trkpt>
      <trkpt lat="46.66825" lon="6.12745">
        <ele>1059.9</ele>
        <time>2024-05-10T09:11:21Z</time>
      </trkpt>
      <trkpt lat="46.668" lon="6.12705">
        <ele>1060.2</ele>
        <time>2024-05-10T09:11:31Z</time>
      </trkpt>
      <trkpt lat="46.66766" lon="6.12656">
        <ele>1058.1</ele>
        <time>2024-05-10T09:11:41Z</time>
      </trkpt>
      <trkpt lat="46.6673" lon="6.1261">
        <ele>1058.2</ele>
        <time>2024-05-10T09:11:51Z</time>
      </trkpt>
      <trkpt lat="46.66703" lon="6.12557">
        <ele>1059</ele>
        <time>2024-05-10T09:12:02Z</time>
      </trkpt>
      <trkpt lat="46.66675" lon="6.12492">
        <ele>1056.5</ele>
        <time>2024-05-10T09:12:13Z</time>
      </trkpt>
      <trkpt lat="46.66653" lon="6.12434">
        <ele>1055.1</ele>
        <time>2024-05-10T09:12:24Z</time>
      </trkpt>
      <trkpt lat="46.66635" lon="6.12373">
        <ele>1053.5</ele>
        <time>2024-05-10T09:12:35Z</time>
      </trkpt>
      <trkpt lat="46.66607" lon="6.12309">
        <ele>1051.5</ele>
        <time>2024-05-10T09:12:45Z</time>
      </trkpt>
      <trkpt lat="46.66586" lon="6.12249">
        <ele>1049.3</ele>
        <time>2024-05-10T09:12:55Z</time>
      </trkpt>
      <trkpt lat="46.66557" lon="6.12178">
        <ele>1047.4</ele>
        <time>2024-05-10T09:13:06Z</time>
      </trkpt>
      <trkpt lat="46.6653" lon="6.12114">
        <ele>1046.3</ele>
        <time>2024-05-10T09:13:16Z</time>
      </trkpt>
      <trkpt lat="46.66519" lon="6.12057">
        <ele>1046.7</ele>
        <time>2024-05-10T09:13:27Z</time>
      </trkpt>
      <trkpt lat="46.66519" lon="6.12023">
        <ele>1047.2</ele>
        <time>2024-05-10T09:13:37Z</time>
      </trkpt>
      <trkpt lat="46.66513" lon="6.11977">
        <ele>1047.7</ele>
        <time>2024-05-10T09:13:48Z</time>
      </trkpt>
      <trkpt lat="46.66505" lon="6.11926">
        <ele>1047.4</ele>
        <time>2024-05-10T09:13:59Z</time>
      </trkpt>
      <trkpt lat="46.6651" lon="6.1189">
        <ele>1046.8</ele>
        <time>2024-05-10T09:14:09Z</time>
      </trkpt>
      <trkpt lat="46.66497" lon="6.11841">
        <ele>1045.7</ele>
        <time>2024-05-10T09:14:21Z</time>
      </trkpt>
      <trkpt lat="46.66471" lon="6.11782">
        <ele>1044.2</ele>
        <time>2024-05-10T09:14:31Z</time>
      </trkpt>
      <trkpt lat="46.66446" lon="6.11747">
        <ele>1044.4</ele>
        <time>2024-05-10T09:14:42Z</time>
      </trkpt>
      <trkpt lat="46.66423" lon="6.11718">
        <ele>1045.9</ele>
        <time>2024-05-10T09:14:54Z</time>
      </trkpt>
      <trkpt lat="46.66402" lon="6.1169">
        <ele>1047.3</ele>
        <time>2024-05-10T09:15:04Z</time>
      </trkpt>
      <trkpt lat="46.66413" lon="6.11672">
        <ele>1046.2</ele>
        <time>2024-05-10T09:15:15Z</time>
      </trkpt>
      <trkpt lat="46.66413" lon="6.11672">
        <ele>1046.2</ele>
        <time>2024-05-10T09:15:25Z</time>
      </trkpt>
      <trkpt lat="46.66413" lon="6.11672">
        <ele>1046.2</ele>
        <time>2024-05-10T09:15:35Z</time>
      </trkpt>
      <trkpt lat="46.66413" lon="6.11672">
        <ele>1046.2</ele>
        <time>2024-05-10T09:15:46Z</time>
      </trkpt>
      <trkpt lat="46.66413" lon="6.11672">
        <ele>1046.2</ele>
        <time>2024-05-10T09:15:56Z</time>
      </trkpt>
      <trkpt lat="46.66413" lon="6.11672">
        <ele>1046.2</ele>
        <time>2024-05-10T09:16:07Z</time>
      </trkpt>
      <trkpt lat="46.6642" lon="6.11659">
        <ele>1045.2</ele>
        <time>2024-05-10T09:16:17Z</time>
      </trkpt>
      <trkpt lat="46.66447" lon="6.11592">
        <ele>1041.3</ele>
        <time>2024-05-10T09:16:28Z</time>
      </trkpt>
      <trkpt lat="46.66448" lon="6.11516">
        <ele>1034.7</ele>
        <time>2024-05-10T09:16:40Z</time>
      </trkpt>
      <trkpt lat="46.66446" lon="6.11426">
        <ele>1028.8</ele>
        <time>2024-05-10T09:16:51Z</time>
      </trkpt>
      <trkpt lat="46.66453" lon="6.11333">
        <ele>1024.2</ele>
        <time>2024-05-10T09:17:01Z</time>
      </trkpt>
      <trkpt lat="46.66425" lon="6.11259">
        <ele>1019.2</ele>
        <time>2024-05-10T09:17:11Z</time>
      </trkpt>
      <trkpt lat="46.6639" lon="6.11172">
        <ele>1013.4</ele>
        <time>2024-05-10T09:17:22Z</time>
      </trkpt>
      <trkpt lat="46.66348" lon="6.11097">
        <ele>1007.6</ele>
        <time>2024-05-10T09:17:32Z</time>
      </trkpt>
      <trkpt lat="46.66299" lon="6.11023">
        <ele>1002.3</ele>
        <time>2024-05-10T09:17:43Z</time>
      </trkpt>
      <trkpt lat="46.66297" lon="6.10931">
        <ele>999.2</ele>
        <time>2024-05-10T09:17:54Z</time>
      </trkpt>
      <trkpt lat="46.66338" lon="6.10969">
        <ele>997.1</ele>
        <time>2024-05-10T09:18:04Z</time>
      </trkpt>
      <trkpt lat="46.66378" lon="6.11035">
        <ele>993.3</ele>
        <time>2024-05-10T09:18:15Z</time>
      </trkpt>
      <trkpt lat="46.66436" lon="6.11043">
        <ele>988.5</ele>
        <time>2024-05-10T09:18:25Z</time>
      </trkpt>
      <trkpt lat="46.66429" lon="6.11022">
        <ele>987.1</ele>
        <time>2024-05-10T09:18:35Z</time>
      </trkpt>
      <trkpt lat="46.66411" lon="6.10953">
        <ele>985.9</ele>
        <time>2024-05-10T09:18:46Z</time>
      </trkpt>
      <trkpt lat="46.66402" lon="6.109">
        <ele>988.2</ele>
        <time>2024-05-10T09:18:56Z</time>
      </trkpt>
      <trkpt lat="46.66386" lon="6.10867">
        <ele>990.6</ele>
        <time>2024-05-10T09:19:06Z</time>
      </trkpt>
      <trkpt lat="46.66373" lon="6.10835">
        <ele>992.3</ele>
        <time>2024-05-10T09:19:16Z</time>
      </trkpt>
      <trkpt lat="46.66361" lon="6.10804">
        <ele>995</ele>
        <time>2024-05-10T09:19:27Z</time>
      </trkpt>
      <trkpt lat="46.6635" lon="6.10779">
        <ele>997.4</ele>
        <time>2024-05-10T09:19:38Z</time>
      </trkpt>
      <trkpt lat="46.6634" lon="6.10758">
        <ele>999.6</ele>
        <time>2024-05-10T09:19:48Z</time>
      </trkpt>
      <trkpt lat="46.66328" lon="6.10737">
        <ele>1001.7</ele>
        <time>2024-05-10T09:19:59Z</time>
      </trkpt>
      <trkpt lat="46.66317" lon="6.10712">
        <ele>1004.1</ele>
        <time>2024-05-10T09:20:10Z</time>
      </trkpt>
      <trkpt lat="46.66306" lon="6.10691">
        <ele>1006.1</ele>
        <time>2024-05-10T09:20:20Z</time>
      </trkpt>
      <trkpt lat="46.66296" lon="6.10664">
        <ele>1008.1</ele>
        <time>2024-05-10T09:20:31Z</time>
      </trkpt>
      <trkpt lat="46.66286" lon="6.10637">
        <ele>1010.1</ele>
        <time>2024-05-10T09:20:42Z</time>
      </trkpt>
      <trkpt lat="46.66273" lon="6.10613">
        <ele>1012.4</ele>
        <time>2024-05-10T09:20:53Z</time>
      </trkpt>
      <trkpt lat="46.66262" lon="6.10588">
        <ele>1014.5</ele>
        <time>2024-05-10T09:21:04Z</time>
      </trkpt>
      <trkpt lat="46.66253" lon="6.10561">
        <ele>1016.3</ele>
        <time>2024-05-10T09:21:15Z</time>
      </trkpt>
      <trkpt lat="46.66245" lon="6.10534">
        <ele>1018.1</ele>
        <time>2024-05-10T09:21:25Z</time>
      </trkpt>
      <trkpt lat="46.66235" lon="6.10507">
        <ele>1020</ele>
        <time>2024-05-10T09:21:36Z</time>
      </trkpt>
      <trkpt lat="46.66229" lon="6.10478">
        <ele>1021.6</ele>
        <time>2024-05-10T09:21:46Z</time>
      </trkpt>
      <trkpt lat="46.66222" lon="6.10444">
        <ele>1023.2</ele>
        <time>2024-05-10T09:21:57Z</time>
      </trkpt>
      <trkpt lat="46.66215" lon="6.10411">
        <ele>1024.2</ele>
        <time>2024-05-10T09:22:07Z</time>
      </trkpt>
      <trkpt lat="46.66209" lon="6.10365">
        <ele>1024.1</ele>
        <time>2024-05-10T09:22:18Z</time>
      </trkpt>
      <trkpt lat="46.66196" lon="6.10313">
        <ele>1024.1</ele>
        <time>2024-05-10T09:22:28Z</time>
      </trkpt>
      <trkpt lat="46.66171" lon="6.1027">
        <ele>1024.9</ele>
        <time>2024-05-10T09:22:39Z</time>
      </trkpt>
      <trkpt lat="46.66145" lon="6.10207">
        <ele>1025.4</ele>
        <time>2024-05-10T09:22:50Z</time>
      </trkpt>
      <trkpt lat="46.6611" lon="6.10148">
        <ele>1027.6</ele>
        <time>2024-05-10T09:23:01Z</time>
      </trkpt>
      <trkpt lat="46.66096" lon="6.10118">
        <ele>1029.3</ele>
        <time>2024-05-10T09:23:11Z</time>
      </trkpt>
      <trkpt lat="46.66088" lon="6.10076">
        <ele>1030.3</ele>
        <time>2024-05-10T09:23:21Z</time>
      </trkpt>
      <trkpt lat="46.66077" lon="6.10039">
        <ele>1032.3</ele>
        <time>2024-05-10T09:23:31Z</time>
      </trkpt>
      <trkpt lat="46.66066" lon="6.10005">
        <ele>1034.3</ele>
        <time>2024-05-10T09:23:42Z</time>
      </trkpt>
      <trkpt lat="46.66058" lon="6.09973">
        <ele>1035.4</ele>
        <time>2024-05-10T09:23:52Z</time>
      </trkpt>
      <trkpt lat="46.66042" lon="6.09934">
        <ele>1036</ele>
        <time>2024-05-10T09:24:02Z</time>
      </trkpt>
      <trkpt lat="46.66028" lon="6.0989">
        <ele>1036.6</ele>
        <time>2024-05-10T09:24:12Z</time>
      </trkpt>
      <trkpt lat="46.66006" lon="6.09841">
        <ele>1037.1</ele>
        <time>2024-05-10T09:24:23Z</time>
      </trkpt>
      <trkpt lat="46.65984" lon="6.09793">
        <ele>1038.2</ele>
        <time>2024-05-10T09:24:33Z</time>
      </trkpt>
      <trkpt lat="46.65965" lon="6.0975">
        <ele>1039.2</ele>
        <time>2024-05-10T09:24:44Z</time>
      </trkpt>
      <trkpt lat="46.65936" lon="6.09708">
        <ele>1040.3</ele>
        <time>2024-05-10T09:24:55Z</time>
      </trkpt>
      <trkpt lat="46.65919" lon="6.09672">
        <ele>1041.8</ele>
        <time>2024-05-10T09:25:05Z</time>
      </trkpt>
      <trkpt lat="46.65898" lon="6.09634">
        <ele>1042</ele>
        <time>2024-05-10T09:25:15Z</time>
      </trkpt>
      <trkpt lat="46.65863" lon="6.09586">
        <ele>1040.7</ele>
        <time>2024-05-10T09:25:26Z</time>
      </trkpt>
      <trkpt lat="46.6584" lon="6.09527">
        <ele>1037.9</ele>
        <time>2024-05-10T09:25:36Z</time>
      </trkpt>
      <trkpt lat="46.65838" lon="6.09516">
        <ele>1037.4</ele>
        <time>2024-05-10T09:25:46Z</time>
      </trkpt>
      <trkpt lat="46.65837" lon="6.09515">
        <ele>1037.3</ele>
        <time>2024-05-10T09:25:57Z</time>
      </trkpt>
      <trkpt lat="46.6581" lon="6.0947">
        <ele>1034.7</ele>
        <time>2024-05-10T09:26:08Z</time>
      </trkpt>
      <trkpt lat="46.65763" lon="6.0939">
        <ele>1031.9</ele>
        <time>2024-05-10T09:26:19Z</time>
      </trkpt>
      <trkpt lat="46.65733" lon="6.09335">
        <ele>1032.2</ele>
        <time>2024-05-10T09:26:29Z</time>
      </trkpt>
      <trkpt lat="46.65708" lon="6.09306">
        <ele>1032.6</ele>
        <time>2024-05-10T09:26:39Z</time>
      </trkpt>
      <trkpt lat="46.65679" lon="6.09251">
        <ele>1032</ele>
        <time>2024-05-10T09:26:50Z</time>
      </trkpt>
      <trkpt lat="46.65625" lon="6.09182">
        <ele>1029.9</ele>
        <time>2024-05-10T09:27:01Z</time>
      </trkpt>
      <trkpt lat="46.65594" lon="6.09103">
        <ele>1030.6</ele>
        <time>2024-05-10T09:27:12Z</time>
      </trkpt>
      <trkpt lat="46.65562" lon="6.09047">
        <ele>1031.3</ele>
        <time>2024-05-10T09:27:22Z</time>
      </trkpt>
      <trkpt lat="46.65528" lon="6.08986">
        <ele>1030.2</ele>
        <time>2024-05-10T09:27:32Z</time>
      </trkpt>
      <trkpt lat="46.65494" lon="6.0891">
        <ele>1028.7</ele>
        <time>2024-05-10T09:27:42Z</time>
      </trkpt>
      <trkpt lat="46.65457" lon="6.08845">
        <ele>1025.5</ele>
        <time>2024-05-10T09:27:52Z</time>
      </trkpt>
      <trkpt lat="46.65405" lon="6.08747">
        <ele>1021.1</ele>
        <time>2024-05-10T09:28:03Z</time>
      </trkpt>
      <trkpt lat="46.6537" lon="6.08656">
        <ele>1015.9</ele>
        <time>2024-05-10T09:28:13Z</time>
      </trkpt>
      <trkpt lat="46.65311" lon="6.08622">
        <ele>1008.6</ele>
        <time>2024-05-10T09:28:24Z</time>
      </trkpt>
      <trkpt lat="46.65259" lon="6.08577">
        <ele>1006.2</ele>
        <time>2024-05-10T09:28:35Z</time>
      </trkpt>
      <trkpt lat="46.65248" lon="6.08522">
        <ele>1007.6</ele>
        <time>2024-05-10T09:28:45Z</time>
      </trkpt>
      <trkpt lat="46.65238" lon="6.0848">
        <ele>1010</ele>
        <time>2024-05-10T09:28:55Z</time>
      </trkpt>
      <trkpt lat="46.65226" lon="6.08444">
        <ele>1012.8</ele>
        <time>2024-05-10T09:29:06Z</time>
      </trkpt>
      <trkpt lat="46.65202" lon="6.08461">
        <ele>1015.3</ele>
        <time>2024-05-10T09:29:18Z</time>
      </trkpt>
      <trkpt lat="46.65189" lon="6.08486">
        <ele>1017.1</ele>
        <time>2024-05-10T09:29:29Z</time>
      </trkpt>
      <trkpt lat="46.65166" lon="6.08516">
        <ele>1018.2</ele>
        <time>2024-05-10T09:29:40Z</time>
      </trkpt>
      <trkpt lat="46.65158" lon="6.08518">
        <ele>1018.1</ele>
        <time>2024-05-10T09:29:51Z</time>
      </trkpt>
      <trkpt lat="46.65144" lon="6.08548">
        <ele>1016</ele>
        <time>2024-05-10T09:30:02Z</time>
      </trkpt>
      <trkpt lat="46.65107" lon="6.08591">
        <ele>1011.6</ele>
        <time>2024-05-10T09:30:13Z</time>
      </trkpt>
      <trkpt lat="46.65074" lon="6.08637">
        <ele>1011.6</ele>
        <time>2024-05-10T09:30:24Z</time>
      </trkpt>
      <trkpt lat="46.65074" lon="6.08675">
        <ele>1013.1</ele>
        <time>2024-05-10T09:30:35Z</time>
      </trkpt>
      <trkpt lat="46.65066" lon="6.08712">
        <ele>1014.4</ele>
        <time>2024-05-10T09:30:45Z</time>
      </trkpt>
      <trkpt lat="46.65053" lon="6.08729">
        <ele>1016.1</ele>
        <time>2024-05-10T09:30:55Z</time>
      </trkpt>
      <trkpt lat="46.65036" lon="6.08714">
        <ele>1018.4</ele>
        <time>2024-05-10T09:31:06Z</time>
      </trkpt>
      <trkpt lat="46.65027" lon="6.08682">
        <ele>1019.4</ele>
        <time>2024-05-10T09:31:16Z</time>
      </trkpt>
      <trkpt lat="46.65019" lon="6.0865">
        <ele>1019.9</ele>
        <time>2024-05-10T09:31:26Z</time>
      </trkpt>
      <trkpt lat="46.65003" lon="6.08611">
        <ele>1019.9</ele>
        <time>2024-05-10T09:31:36Z</time>
      </trkpt>
      <trkpt lat="46.64993" lon="6.08576">
        <ele>1019.5</ele>
        <time>2024-05-10T09:31:47Z</time>
      </trkpt>
      <trkpt lat="46.64984" lon="6.08546">
        <ele>1019.2</ele>
        <time>2024-05-10T09:31:58Z</time>
      </trkpt>
      <trkpt lat="46.64981" lon="6.08541">
        <ele>1019.1</ele>
        <time>2024-05-10T09:32:09Z</time>
      </trkpt>
      <trkpt lat="46.64981" lon="6.08533">
        <ele>1019.1</ele>
        <time>2024-05-10T09:32:19Z</time>
      </trkpt>
      <trkpt lat="46.6496" lon="6.08503">
        <ele>1016.8</ele>
        <time>2024-05-10T09:32:30Z</time>
      </trkpt>
      <trkpt lat="46.64926" lon="6.08521">
        <ele>1013.2</ele>
        <time>2024-05-10T09:32:40Z</time>
      </trkpt>
      <trkpt lat="46.64921" lon="6.08525">
        <ele>1012.8</ele>
        <time>2024-05-10T09:32:50Z</time>
      </trkpt>
      <trkpt lat="46.6491" lon="6.08536">
        <ele>1012.5</ele>
        <time>2024-05-10T09:33:00Z</time>
      </trkpt>
      <trkpt lat="46.64884" lon="6.08567">
        <ele>1013</ele>
        <time>2024-05-10T09:33:11Z</time>
      </trkpt>
      <trkpt lat="46.64879" lon="6.08569">
        <ele>1013.3</ele>
        <time>2024-05-10T09:33:21Z</time>
      </trkpt>
      <trkpt lat="46.64876" lon="6.08567">
        <ele>1013.5</ele>
        <time>2024-05-10T09:33:32Z</time>
      </trkpt>
      <trkpt lat="46.64859" lon="6.08555">
        <ele>1014.7</ele>
        <time>2024-05-10T09:33:43Z</time>
      </trkpt>
      <trkpt lat="46.64836" lon="6.08538">
        <ele>1016.3</ele>
        <time>2024-05-10T09:33:53Z</time>
      </trkpt>
      <trkpt lat="46.64811" lon="6.08523">
        <ele>1017.6</ele>
        <time>2024-05-10T09:34:03Z</time>
      </trkpt>
      <trkpt lat="46.64793" lon="6.08495">
        <ele>1019.3</ele>
        <time>2024-05-10T09:34:14Z</time>
      </trkpt>
      <trkpt lat="46.64773" lon="6.08469">
        <ele>1020.7</ele>
        <time>2024-05-10T09:34:25Z</time>
      </trkpt>
      <trkpt lat="46.64755" lon="6.08448">
        <ele>1022.2</ele>
        <time>2024-05-10T09:34:35Z</time>
      </trkpt>
      <trkpt lat="46.64737" lon="6.08431">
        <ele>1023.7</ele>
        <time>2024-05-10T09:34:45Z</time>
      </trkpt>
      <trkpt lat="46.64719" lon="6.08418">
        <ele>1025.3</ele>
        <time>2024-05-10T09:34:56Z</time>
      </trkpt>
      <trkpt lat="46.64699" lon="6.08398">
        <ele>1026.3</ele>
        <time>2024-05-10T09:35:06Z</time>
      </trkpt>
      <trkpt lat="46.64679" lon="6.08366">
        <ele>1027.1</ele>
        <time>2024-05-10T09:35:17Z</time>
      </trkpt>
      <trkpt lat="46.64659" lon="6.08337">
        <ele>1028.2</ele>
        <time>2024-05-10T09:35:27Z</time>
      </trkpt>
      <trkpt lat="46.64629" lon="6.08311">
        <ele>1028.8</ele>
        <time>2024-05-10T09:35:38Z</time>
      </trkpt>
      <trkpt lat="46.64598" lon="6.08277">
        <ele>1028.9</ele>
        <time>2024-05-10T09:35:49Z</time>
      </trkpt>
      <trkpt lat="46.64576" lon="6.08244">
        <ele>1027.5</ele>
        <time>2024-05-10T09:36:00Z</time>
      </trkpt>
      <trkpt lat="46.64554" lon="6.08213">
        <ele>1025.3</ele>
        <time>2024-05-10T09:36:10Z</time>
      </trkpt>
      <trkpt lat="46.64536" lon="6.08174">
        <ele>1022.3</ele>
        <time>2024-05-10T09:36:21Z</time>
      </trkpt>
      <trkpt lat="46.64513" lon="6.08164">
        <ele>1022.3</ele>
        <time>2024-05-10T09:36:32Z</time>
      </trkpt>
      <trkpt lat="46.64485" lon="6.08148">
        <ele>1022.3</ele>
        <time>2024-05-10T09:36:43Z</time>
      </trkpt>
      <trkpt lat="46.64447" lon="6.0812">
        <ele>1022.7</ele>
        <time>2024-05-10T09:36:53Z</time>
      </trkpt>
      <trkpt lat="46.64407" lon="6.08088">
        <ele>1023</ele>
        <time>2024-05-10T09:37:03Z</time>
      </trkpt>
      <trkpt lat="46.64372" lon="6.08034">
        <ele>1023.4</ele>
        <time>2024-05-10T09:37:14Z</time>
      </trkpt>
      <trkpt lat="46.64341" lon="6.07974">
        <ele>1023.9</ele>
        <time>2024-05-10T09:37:24Z</time>
      </trkpt>
      <trkpt lat="46.64308" lon="6.07918">
        <ele>1024.5</ele>
        <time>2024-05-10T09:37:35Z</time>
      </trkpt>
      <trkpt lat="46.64268" lon="6.07872">
        <ele>1024.9</ele>
        <time>2024-05-10T09:37:45Z</time>
      </trkpt>
      <trkpt lat="46.64241" lon="6.07803">
        <ele>1024.9</ele>
        <time>2024-05-10T09:37:55Z</time>
      </trkpt>
      <trkpt lat="46.64206" lon="6.07731">
        <ele>1025.5</ele>
        <time>2024-05-10T09:38:06Z</time>
      </trkpt>
      <trkpt lat="46.64172" lon="6.07658">
        <ele>1025.6</ele>
        <time>2024-05-10T09:38:16Z</time>
      </trkpt>
      <trkpt lat="46.64129" lon="6.07608">
        <ele>1026.1</ele>
        <time>2024-05-10T09:38:26Z</time>
      </trkpt>
      <trkpt lat="46.64088" lon="6.07564">
        <ele>1026.5</ele>
        <time>2024-05-10T09:38:36Z</time>
      </trkpt>
      <trkpt lat="46.64045" lon="6.07521">
        <ele>1027.1</ele>
        <time>2024-05-10T09:38:46Z</time>
      </trkpt>
      <trkpt lat="46.63996" lon="6.07481">
        <ele>1027.4</ele>
        <time>2024-05-10T09:38:57Z</time>
      </trkpt>
      <trkpt lat="46.63946" lon="6.07471">
        <ele>1028</ele>
        <time>2024-05-10T09:39:07Z</time>
      </trkpt>
      <trkpt lat="46.63915" lon="6.07519">
        <ele>1027.6</ele>
        <time>2024-05-10T09:39:19Z</time>
      </trkpt>
      <trkpt lat="46.63869" lon="6.07487">
        <ele>1027.5</ele>
        <time>2024-05-10T09:39:29Z</time>
      </trkpt>
      <trkpt lat="46.63851" lon="6.07442">
        <ele>1029.6</ele>
        <time>2024-05-10T09:39:40Z</time>
      </trkpt>
      <trkpt lat="46.63841" lon="6.07399">
        <ele>1031.7</ele>
        <time>2024-05-10T09:39:50Z</time>
      </trkpt>
      <trkpt lat="46.63822" lon="6.07363">
        <ele>1033.9</ele>
        <time>2024-05-10T09:40:01Z</time>
      </trkpt>
      <trkpt lat="46.63821" lon="6.0732">
        <ele>1035.8</ele>
        <time>2024-05-10T09:40:12Z</time>
      </trkpt>
      <trkpt lat="46.63831" lon="6.07288">
        <ele>1037.3</ele>
        <time>2024-05-10T09:40:22Z</time>
      </trkpt>
      <trkpt lat="46.63828" lon="6.07248">
        <ele>1038.9</ele>
        <time>2024-05-10T09:40:34Z</time>
      </trkpt>
      <trkpt lat="46.63809" lon="6.07211">
        <ele>1040.5</ele>
        <time>2024-05-10T09:40:44Z</time>
      </trkpt>
      <trkpt lat="46.63792" lon="6.0717">
        <ele>1041.9</ele>
        <time>2024-05-10T09:40:55Z</time>
      </trkpt>
      <trkpt lat="46.63776" lon="6.07133">
        <ele>1043.7</ele>
        <time>2024-05-10T09:41:06Z</time>
      </trkpt>
      <trkpt lat="46.6375" lon="6.07127">
        <ele>1045.5</ele>
        <time>2024-05-10T09:41:16Z</time>
      </trkpt>
      <trkpt lat="46.63732" lon="6.07095">
        <ele>1047.3</ele>
        <time>2024-05-10T09:41:26Z</time>
      </trkpt>
      <trkpt lat="46.63708" lon="6.07081">
        <ele>1048.9</ele>
        <time>2024-05-10T09:41:37Z</time>
      </trkpt>
      <trkpt lat="46.63686" lon="6.07101">
        <ele>1050.8</ele>
        <time>2024-05-10T09:41:48Z</time>
      </trkpt>
      <trkpt lat="46.63666" lon="6.07113">
        <ele>1052.7</ele>
        <time>2024-05-10T09:41:59Z</time>
      </trkpt>
      <trkpt lat="46.63647" lon="6.07116">
        <ele>1054.7</ele>
        <time>2024-05-10T09:42:09Z</time>
      </trkpt>
      <trkpt lat="46.63634" lon="6.07136">
        <ele>1056.5</ele>
        <time>2024-05-10T09:42:20Z</time>
      </trkpt>
      <trkpt lat="46.63622" lon="6.07164">
        <ele>1058.4</ele>
        <time>2024-05-10T09:42:30Z</time>
      </trkpt>
      <trkpt lat="46.63607" lon="6.07183">
        <ele>1060.1</ele>
        <time>2024-05-10T09:42:41Z</time>
      </trkpt>
      <trkpt lat="46.63586" lon="6.07197">
        <ele>1061.6</ele>
        <time>2024-05-10T09:42:51Z</time>
      </trkpt>
      <trkpt lat="46.6356" lon="6.07191">
        <ele>1062.7</ele>
        <time>2024-05-10T09:43:02Z</time>
      </trkpt>
      <trkpt lat="46.63544" lon="6.07161">
        <ele>1064.1</ele>
        <time>2024-05-10T09:43:12Z</time>
      </trkpt>
      <trkpt lat="46.63525" lon="6.07142">
        <ele>1065.6</ele>
        <time>2024-05-10T09:43:22Z</time>
      </trkpt>
      <trkpt lat="46.635" lon="6.07145">
        <ele>1066.9</ele>
        <time>2024-05-10T09:43:32Z</time>
      </trkpt>
      <trkpt lat="46.6347" lon="6.0715">
        <ele>1067.7</ele>
        <time>2024-05-10T09:43:43Z</time>
      </trkpt>
      <trkpt lat="46.6343" lon="6.07152">
        <ele>1068.3</ele>
        <time>2024-05-10T09:43:54Z</time>
      </trkpt>
      <trkpt lat="46.63409" lon="6.07102">
        <ele>1066.5</ele>
        <time>2024-05-10T09:44:05Z</time>
      </trkpt>
      <trkpt lat="46.63381" lon="6.07077">
        <ele>1063.9</ele>
        <time>2024-05-10T09:44:15Z</time>
      </trkpt>
      <trkpt lat="46.63345" lon="6.0702">
        <ele>1061.9</ele>
        <time>2024-05-10T09:44:25Z</time>
      </trkpt>
      <trkpt lat="46.63313" lon="6.06932">
        <ele>1057.3</ele>
        <time>2024-05-10T09:44:36Z</time>
      </trkpt>
      <trkpt lat="46.63313" lon="6.06859">
        <ele>1054.2</ele>
        <time>2024-05-10T09:44:46Z</time>
      </trkpt>
      <trkpt lat="46.63284" lon="6.068">
        <ele>1051.1</ele>
        <time>2024-05-10T09:44:56Z</time>
      </trkpt>
      <trkpt lat="46.63232" lon="6.06791">
        <ele>1048</ele>
        <time>2024-05-10T09:45:07Z</time>
      </trkpt>
      <trkpt lat="46.632" lon="6.0676">
        <ele>1047.1</ele>
        <time>2024-05-10T09:45:17Z</time>
      </trkpt>
      <trkpt lat="46.63181" lon="6.06745">
        <ele>1047</ele>
        <time>2024-05-10T09:45:28Z</time>
      </trkpt>
      <trkpt lat="46.6314" lon="6.06732">
        <ele>1047.2</ele>
        <time>2024-05-10T09:45:38Z</time>
      </trkpt>
      <trkpt lat="46.63102" lon="6.06726">
        <ele>1048.1</ele>
        <time>2024-05-10T09:45:49Z</time>
      </trkpt>
      <trkpt lat="46.63069" lon="6.06709">
        <ele>1049.2</ele>
        <time>2024-05-10T09:45:59Z</time>
      </trkpt>
      <trkpt lat="46.63054" lon="6.06659">
        <ele>1050.7</ele>
        <time>2024-05-10T09:46:10Z</time>
      </trkpt>
      <trkpt lat="46.63032" lon="6.06621">
        <ele>1050.8</ele>
        <time>2024-05-10T09:46:21Z</time>
      </trkpt>
      <trkpt lat="46.63003" lon="6.06613">
        <ele>1049.2</ele>
        <time>2024-05-10T09:46:32Z</time>
      </trkpt>
      <trkpt lat="46.62983" lon="6.06638">
        <ele>1047.9</ele>
        <time>2024-05-10T09:46:42Z</time>
      </trkpt>
      <trkpt lat="46.62956" lon="6.06664">
        <ele>1047.3</ele>
        <time>2024-05-10T09:46:53Z</time>
      </trkpt>
      <trkpt lat="46.6293" lon="6.06695">
        <ele>1047.4</ele>
        <time>2024-05-10T09:47:04Z</time>
      </trkpt>
      <trkpt lat="46.62892" lon="6.06719">
        <ele>1047</ele>
        <time>2024-05-10T09:47:15Z</time>
      </trkpt>
      <trkpt lat="46.62863" lon="6.06678">
        <ele>1045.4</ele>
        <time>2024-05-10T09:47:25Z</time>
      </trkpt>
      <trkpt lat="46.62821" lon="6.06636">
        <ele>1042.2</ele>
        <time>2024-05-10T09:47:36Z</time>
      </trkpt>
      <trkpt lat="46.62775" lon="6.06583">
        <ele>1042.3</ele>
        <time>2024-05-10T09:47:46Z</time>
      </trkpt>
      <trkpt lat="46.62727" lon="6.06558">
        <ele>1042.8</ele>
        <time>2024-05-10T09:47:57Z</time>
      </trkpt>
      <trkpt lat="46.62685" lon="6.06521">
        <ele>1043.4</ele>
        <time>2024-05-10T09:48:07Z</time>
      </trkpt>
      <trkpt lat="46.62634" lon="6.06495">
        <ele>1042.8</ele>
        <time>2024-05-10T09:48:18Z</time>
      </trkpt>
      <trkpt lat="46.62592" lon="6.06462">
        <ele>1040.6</ele>
        <time>2024-05-10T09:48:28Z</time>
      </trkpt>
      <trkpt lat="46.62577" lon="6.06407">
        <ele>1036.8</ele>
        <time>2024-05-10T09:48:39Z</time>
      </trkpt>
      <trkpt lat="46.6255" lon="6.06361">
        <ele>1034.5</ele>
        <time>2024-05-10T09:48:49Z</time>
      </trkpt>
      <trkpt lat="46.62518" lon="6.06378">
        <ele>1031.3</ele>
        <time>2024-05-10T09:49:00Z</time>
      </trkpt>
      <trkpt lat="46.62468" lon="6.06402">
        <ele>1027.6</ele>
        <time>2024-05-10T09:49:11Z</time>
      </trkpt>
      <trkpt lat="46.62417" lon="6.06421">
        <ele>1025.4</ele>
        <time>2024-05-10T09:49:21Z</time>
      </trkpt>
      <trkpt lat="46.6239" lon="6.06496">
        <ele>1022.2</ele>
        <time>2024-05-10T09:49:31Z</time>
      </trkpt>
      <trkpt lat="46.6235" lon="6.06577">
        <ele>1021.9</ele>
        <time>2024-05-10T09:49:42Z</time>
      </trkpt>
      <trkpt lat="46.62311" lon="6.06604">
        <ele>1024.4</ele>
        <time>2024-05-10T09:49:53Z</time>
      </trkpt>
      <trkpt lat="46.62281" lon="6.06626">
        <ele>1026.4</ele>
        <time>2024-05-10T09:50:04Z</time>
      </trkpt>
      <trkpt lat="46.62262" lon="6.06646">
        <ele>1027.9</ele>
        <time>2024-05-10T09:50:14Z</time>
      </trkpt>
      <trkpt lat="46.62238" lon="6.06672">
        <ele>1028.3</ele>
        <time>2024-05-10T09:50:25Z</time>
      </trkpt>
      <trkpt lat="46.62209" lon="6.06706">
        <ele>1028.6</ele>
        <time>2024-05-10T09:50:36Z</time>
      </trkpt>
      <trkpt lat="46.62175" lon="6.06728">
        <ele>1029.9</ele>
        <time>2024-05-10T09:50:46Z</time>
      </trkpt>
      <trkpt lat="46.62142" lon="6.06735">
        <ele>1031.6</ele>
        <time>2024-05-10T09:50:57Z</time>
      </trkpt>
      <trkpt lat="46.62119" lon="6.06752">
        <ele>1033.8</ele>
        <time>2024-05-10T09:51:08Z</time>
      </trkpt>
      <trkpt lat="46.62097" lon="6.06756">
        <ele>1036</ele>
        <time>2024-05-10T09:51:19Z</time>
      </trkpt>
      <trkpt lat="46.62084" lon="6.06769">
        <ele>1037.5</ele>
        <time>2024-05-10T09:51:30Z</time>
      </trkpt>
      <trkpt lat="46.62068" lon="6.06794">
        <ele>1039.5</ele>
        <time>2024-05-10T09:51:40Z</time>
      </trkpt>
      <trkpt lat="46.62052" lon="6.06807">
        <ele>1040.9</ele>
        <time>2024-05-10T09:51:51Z</time>
      </trkpt>
      <trkpt lat="46.62046" lon="6.06833">
        <ele>1042.1</ele>
        <time>2024-05-10T09:52:01Z</time>
      </trkpt>
      <trkpt lat="46.6204" lon="6.06862">
        <ele>1043.5</ele>
        <time>2024-05-10T09:52:12Z</time>
      </trkpt>
      <trkpt lat="46.62029" lon="6.06888">
        <ele>1045.2</ele>
        <time>2024-05-10T09:52:22Z</time>
      </trkpt>
      <trkpt lat="46.62025" lon="6.06912">
        <ele>1046.6</ele>
        <time>2024-05-10T09:52:32Z</time>
      </trkpt>
      <trkpt lat="46.62022" lon="6.06935">
        <ele>1047.8</ele>
        <time>2024-05-10T09:52:42Z</time>
      </trkpt>
      <trkpt lat="46.6201" lon="6.0696">
        <ele>1049.1</ele>
        <time>2024-05-10T09:52:53Z</time>
      </trkpt>
      <trkpt lat="46.61999" lon="6.06982">
        <ele>1050.3</ele>
        <time>2024-05-10T09:53:03Z</time>
      </trkpt>
      <trkpt lat="46.61982" lon="6.07006">
        <ele>1051.9</ele>
        <time>2024-05-10T09:53:14Z</time>
      </trkpt>
      <trkpt lat="46.61963" lon="6.07026">
        <ele>1053.4</ele>
        <time>2024-05-10T09:53:25Z</time>
      </trkpt>
      <trkpt lat="46.61945" lon="6.07044">
        <ele>1054.8</ele>
        <time>2024-05-10T09:53:36Z</time>
      </trkpt>
      <trkpt lat="46.61933" lon="6.07067">
        <ele>1056.2</ele>
        <time>2024-05-10T09:53:47Z</time>
      </trkpt>
      <trkpt lat="46.61922" lon="6.07093">
        <ele>1057.8</ele>
        <time>2024-05-10T09:53:57Z</time>
      </trkpt>
      <trkpt lat="46.61909" lon="6.07117">
        <ele>1059.5</ele>
        <time>2024-05-10T09:54:08Z</time>
      </trkpt>
      <trkpt lat="46.61893" lon="6.07139">
        <ele>1061</ele>
        <time>2024-05-10T09:54:18Z</time>
      </trkpt>
      <trkpt lat="46.61874" lon="6.0716">
        <ele>1062.6</ele>
        <time>2024-05-10T09:54:29Z</time>
      </trkpt>
      <trkpt lat="46.61859" lon="6.07173">
        <ele>1063.8</ele>
        <time>2024-05-10T09:54:40Z</time>
      </trkpt>
      <trkpt lat="46.61844" lon="6.0719">
        <ele>1065.2</ele>
        <time>2024-05-10T09:54:50Z</time>
      </trkpt>
      <trkpt lat="46.61827" lon="6.07205">
        <ele>1066.6</ele>
        <time>2024-05-10T09:55:00Z</time>
      </trkpt>
      <trkpt lat="46.61806" lon="6.07216">
        <ele>1068.1</ele>
        <time>2024-05-10T09:55:10Z</time>
      </trkpt>
      <trkpt lat="46.61785" lon="6.0721">
        <ele>1069.7</ele>
        <time>2024-05-10T09:55:20Z</time>
      </trkpt>
      <trkpt lat="46.61765" lon="6.07205">
        <ele>1071.4</ele>
        <time>2024-05-10T09:55:31Z</time>
      </trkpt>
      <trkpt lat="46.61744" lon="6.07206">
        <ele>1073.1</ele>
        <time>2024-05-10T09:55:41Z</time>
      </trkpt>
      <trkpt lat="46.61725" lon="6.07205">
        <ele>1074.8</ele>
        <time>2024-05-10T09:55:51Z</time>
      </trkpt>
      <trkpt lat="46.61702" lon="6.07205">
        <ele>1076.7</ele>
        <time>2024-05-10T09:56:02Z</time>
      </trkpt>
      <trkpt lat="46.61673" lon="6.07214">
        <ele>1077.6</ele>
        <time>2024-05-10T09:56:14Z</time>
      </trkpt>
      <trkpt lat="46.6164" lon="6.0724">
        <ele>1077.8</ele>
        <time>2024-05-10T09:56:24Z</time>
      </trkpt>
      <trkpt lat="46.6161" lon="6.07267">
        <ele>1078.2</ele>
        <time>2024-05-10T09:56:35Z</time>
      </trkpt>
      <trkpt lat="46.61563" lon="6.07299">
        <ele>1077.3</ele>
        <time>2024-05-10T09:56:45Z</time>
      </trkpt>
      <trkpt lat="46.61529" lon="6.07353">
        <ele>1074.5</ele>
        <time>2024-05-10T09:56:56Z</time>
      </trkpt>
      <trkpt lat="46.61486" lon="6.07414">
        <ele>1070.5</ele>
        <time>2024-05-10T09:57:07Z</time>
      </trkpt>
      <trkpt lat="46.6145" lon="6.07469">
        <ele>1067.8</ele>
        <time>2024-05-10T09:57:17Z</time>
      </trkpt>
      <trkpt lat="46.61419" lon="6.07549">
        <ele>1066.7</ele>
        <time>2024-05-10T09:57:28Z</time>
      </trkpt>
      <trkpt lat="46.614" lon="6.07612">
        <ele>1067</ele>
        <time>2024-05-10T09:57:39Z</time>
      </trkpt>
      <trkpt lat="46.61373" lon="6.07669">
        <ele>1067</ele>
        <time>2024-05-10T09:57:49Z</time>
      </trkpt>
      <trkpt lat="46.61336" lon="6.07725">
        <ele>1067.5</ele>
        <time>2024-05-10T09:57:59Z</time>
      </trkpt>
      <trkpt lat="46.61314" lon="6.0777">
        <ele>1067.9</ele>
        <time>2024-05-10T09:58:09Z</time>
      </trkpt>
      <trkpt lat="46.61289" lon="6.07823">
        <ele>1068.1</ele>
        <time>2024-05-10T09:58:20Z</time>
      </trkpt>
      <trkpt lat="46.61279" lon="6.07889">
        <ele>1068</ele>
        <time>2024-05-10T09:58:30Z</time>
      </trkpt>
      <trkpt lat="46.61261" lon="6.07954">
        <ele>1067.6</ele>
        <time>2024-05-10T09:58:40Z</time>
      </trkpt>
      <trkpt lat="46.6123" lon="6.08014">
        <ele>1066.8</ele>
        <time>2024-05-10T09:58:51Z</time>
      </trkpt>
      <trkpt lat="46.61218" lon="6.08055">
        <ele>1065.7</ele>
        <time>2024-05-10T09:59:01Z</time>
      </trkpt>
      <trkpt lat="46.61217" lon="6.08056">
        <ele>1065.6</ele>
        <time>2024-05-10T09:59:12Z</time>
      </trkpt>
      <trkpt lat="46.61216" lon="6.08056">
        <ele>1065.6</ele>
        <time>2024-05-10T09:59:22Z</time>
      </trkpt>
      <trkpt lat="46.61216" lon="6.08056">
        <ele>1065.6</ele>
        <time>2024-05-10T09:59:32Z</time>
      </trkpt>
      <trkpt lat="46.61216" lon="6.08056">
        <ele>1065.6</ele>
        <time>2024-05-10T09:59:43Z</time>
      </trkpt>
      <trkpt lat="46.61217" lon="6.08064">
        <ele>1065.4</ele>
        <time>2024-05-10T09:59:53Z</time>
      </trkpt>
      <trkpt lat="46.61215" lon="6.08112">
        <ele>1064.3</ele>
        <time>2024-05-10T10:00:04Z</time>
      </trkpt>
      <trkpt lat="46.61217" lon="6.08172">
        <ele>1064.6</ele>
        <time>2024-05-10T10:00:15Z</time>
      </trkpt>
      <trkpt lat="46.61202" lon="6.08208">
        <ele>1066</ele>
        <time>2024-05-10T10:00:25Z</time>
      </trkpt>
      <trkpt lat="46.61188" lon="6.08255">
        <ele>1066.8</ele>
        <time>2024-05-10T10:00:35Z</time>
      </trkpt>
      <trkpt lat="46.61163" lon="6.08295">
        <ele>1067.1</ele>
        <time>2024-05-10T10:00:46Z</time>
      </trkpt>
      <trkpt lat="46.61133" lon="6.08339">
        <ele>1066.3</ele>
        <time>2024-05-10T10:00:56Z</time>
      </trkpt>
      <trkpt lat="46.61097" lon="6.08394">
        <ele>1064.5</ele>
        <time>2024-05-10T10:01:07Z</time>
      </trkpt>
      <trkpt lat="46.6106" lon="6.08453">
        <ele>1062.8</ele>
        <time>2024-05-10T10:01:17Z</time>
      </trkpt>
      <trkpt lat="46.61036" lon="6.08514">
        <ele>1060.7</ele>
        <time>2024-05-10T10:01:28Z</time>
      </trkpt>
      <trkpt lat="46.61003" lon="6.08557">
        <ele>1059.2</ele>
        <time>2024-05-10T10:01:38Z</time>
      </trkpt>
      <trkpt lat="46.60965" lon="6.08575">
        <ele>1059.2</ele>
        <time>2024-05-10T10:01:49Z</time>
      </trkpt>
      <trkpt lat="46.60925" lon="6.08598">
        <ele>1059.6</ele>
        <time>2024-05-10T10:01:59Z</time>
      </trkpt>
      <trkpt lat="46.60881" lon="6.08626">
        <ele>1060</ele>
        <time>2024-05-10T10:02:10Z</time>
      </trkpt>
      <trkpt lat="46.60842" lon="6.08654">
        <ele>1060.6</ele>
        <time>2024-05-10T10:02:21Z</time>
      </trkpt>
      <trkpt lat="46.60808" lon="6.08686">
        <ele>1061.8</ele>
        <time>2024-05-10T10:02:31Z</time>
      </trkpt>
      <trkpt lat="46.60777" lon="6.08711">
        <ele>1060.3</ele>
        <time>2024-05-10T10:02:41Z</time>
      </trkpt>
      <trkpt lat="46.60775" lon="6.08716">
        <ele>1060</ele>
        <time>2024-05-10T10:02:51Z</time>
      </trkpt>
      <trkpt lat="46.60775" lon="6.08716">
        <ele>1060</ele>
        <time>2024-05-10T10:03:02Z</time>
      </trkpt>
      <trkpt lat="46.60774" lon="6.08716">
        <ele>1060</ele>
        <time>2024-05-10T10:03:13Z</time>
      </trkpt>
      <trkpt lat="46.60774" lon="6.08716">
        <ele>1060</ele>
        <time>2024-05-10T10:03:23Z</time>
      </trkpt>
      <trkpt lat="46.60774" lon="6.08717">
        <ele>1059.9</ele>
        <time>2024-05-10T10:03:34Z</time>
      </trkpt>
      <trkpt lat="46.60758" lon="6.08739">
        <ele>1059</ele>
        <time>2024-05-10T10:03:44Z</time>
      </trkpt>
      <trkpt lat="46.6074" lon="6.08777">
        <ele>1058.5</ele>
        <time>2024-05-10T10:03:55Z</time>
      </trkpt>
      <trkpt lat="46.60727" lon="6.08825">
        <ele>1058.2</ele>
        <time>2024-05-10T10:04:05Z</time>
      </trkpt>
      <trkpt lat="46.6071" lon="6.08883">
        <ele>1058.2</ele>
        <time>2024-05-10T10:04:16Z</time>
      </trkpt>
      <trkpt lat="46.60684" lon="6.08938">
        <ele>1058.5</ele>
        <time>2024-05-10T10:04:26Z</time>
      </trkpt>
      <trkpt lat="46.60656" lon="6.08993">
        <ele>1058.6</ele>
        <time>2024-05-10T10:04:37Z</time>
      </trkpt>
      <trkpt lat="46.60632" lon="6.09032">
        <ele>1058.5</ele>
        <time>2024-05-10T10:04:47Z</time>
      </trkpt>
      <trkpt lat="46.60596" lon="6.09066">
        <ele>1058.9</ele>
        <time>2024-05-10T10:04:58Z</time>
      </trkpt>
      <trkpt lat="46.60564" lon="6.09101">
        <ele>1059.4</ele>
        <time>2024-05-10T10:05:08Z</time>
      </trkpt>
      <trkpt lat="46.60528" lon="6.09131">
        <ele>1059.9</ele>
        <time>2024-05-10T10:05:19Z</time>
      </trkpt>
      <trkpt lat="46.60482" lon="6.09144">
        <ele>1060.8</ele>
        <time>2024-05-10T10:05:30Z</time>
      </trkpt>
      <trkpt lat="46.6044" lon="6.09151">
        <ele>1061.1</ele>
        <time>2024-05-10T10:05:40Z</time>
      </trkpt>
      <trkpt lat="46.60396" lon="6.09157">
        <ele>1061.2</ele>
        <time>2024-05-10T10:05:51Z</time>
      </trkpt>
      <trkpt lat="46.6034" lon="6.09158">
        <ele>1062</ele>
        <time>2024-05-10T10:06:01Z</time>
      </trkpt>
      <trkpt lat="46.6029" lon="6.09176">
        <ele>1062.4</ele>
        <time>2024-05-10T10:06:12Z</time>
      </trkpt>
      <trkpt lat="46.6024" lon="6.09212">
        <ele>1061.8</ele>
        <time>2024-05-10T10:06:23Z</time>
      </trkpt>
      <trkpt lat="46.6018" lon="6.09271">
        <ele>1059.2</ele>
        <time>2024-05-10T10:06:33Z</time>
      </trkpt>
      <trkpt lat="46.60126" lon="6.09324">
        <ele>1059.1</ele>
        <time>2024-05-10T10:06:43Z</time>
      </trkpt>
      <trkpt lat="46.6011" lon="6.09339">
        <ele>1059.6</ele>
        <time>2024-05-10T10:06:53Z</time>
      </trkpt>
      <trkpt lat="46.60081" lon="6.0937">
        <ele>1060.3</ele>
        <time>2024-05-10T10:07:04Z</time>
      </trkpt>
      <trkpt lat="46.60054" lon="6.094">
        <ele>1061.3</ele>
        <time>2024-05-10T10:07:15Z</time>
      </trkpt>
      <trkpt lat="46.60018" lon="6.09431">
        <ele>1063.4</ele>
        <time>2024-05-10T10:07:26Z</time>
      </trkpt>
      <trkpt lat="46.59986" lon="6.09454">
        <ele>1065.3</ele>
        <time>2024-05-10T10:07:36Z</time>
      </trkpt>
      <trkpt lat="46.59956" lon="6.0949">
        <ele>1066.2</ele>
        <time>2024-05-10T10:07:46Z</time>
      </trkpt>
      <trkpt lat="46.59934" lon="6.09541">
        <ele>1066.8</ele>
        <time>2024-05-10T10:07:56Z</time>
      </trkpt>
      <trkpt lat="46.59911" lon="6.09604">
        <ele>1067.4</ele>
        <time>2024-05-10T10:08:07Z</time>
      </trkpt>
      <trkpt lat="46.59898" lon="6.09638">
        <ele>1067.8</ele>
        <time>2024-05-10T10:08:17Z</time>
      </trkpt>
      <trkpt lat="46.59898" lon="6.09638">
        <ele>1067.8</ele>
        <time>2024-05-10T10:08:27Z</time>
      </trkpt>
      <trkpt lat="46.59899" lon="6.09639">
        <ele>1067.8</ele>
        <time>2024-05-10T10:08:37Z</time>
      </trkpt>
      <trkpt lat="46.59901" lon="6.09639">
        <ele>1067.8</ele>
        <time>2024-05-10T10:08:48Z</time>
      </trkpt>
      <trkpt lat="46.59907" lon="6.09662">
        <ele>1068.1</ele>
        <time>2024-05-10T10:08:58Z</time>
      </trkpt>
      <trkpt lat="46.59913" lon="6.097">
        <ele>1068.7</ele>
        <time>2024-05-10T10:09:08Z</time>
      </trkpt>
      <trkpt lat="46.59923" lon="6.09738">
        <ele>1068.8</ele>
        <time>2024-05-10T10:09:18Z</time>
      </trkpt>
      <trkpt lat="46.59931" lon="6.09787">
        <ele>1068.8</ele>
        <time>2024-05-10T10:09:28Z</time>
      </trkpt>
      <trkpt lat="46.59926" lon="6.09829">
        <ele>1069.4</ele>
        <time>2024-05-10T10:09:39Z</time>
      </trkpt>
      <trkpt lat="46.5993" lon="6.09876">
        <ele>1070.1</ele>
        <time>2024-05-10T10:09:50Z</time>
      </trkpt>
      <trkpt lat="46.59941" lon="6.09917">
        <ele>1070.9</ele>
        <time>2024-05-10T10:10:00Z</time>
      </trkpt>
      <trkpt lat="46.59951" lon="6.09956">
        <ele>1071.5</ele>
        <time>2024-05-10T10:10:11Z</time>
      </trkpt>
      <trkpt lat="46.59954" lon="6.09982">
        <ele>1072.1</ele>
        <time>2024-05-10T10:10:21Z</time>
      </trkpt>
      <trkpt lat="46.59955" lon="6.09986">
        <ele>1072.2</ele>
        <time>2024-05-10T10:10:32Z</time>
      </trkpt>
      <trkpt lat="46.59957" lon="6.09992">
        <ele>1072.4</ele>
        <time>2024-05-10T10:10:43Z</time>
      </trkpt>
      <trkpt lat="46.59959" lon="6.0999">
        <ele>1072.5</ele>
        <time>2024-05-10T10:10:54Z</time>
      </trkpt>
      <trkpt lat="46.59959" lon="6.09993">
        <ele>1072.5</ele>
        <time>2024-05-10T10:11:05Z</time>
      </trkpt>
      <trkpt lat="46.5996" lon="6.09991">
        <ele>1072.6</ele>
        <time>2024-05-10T10:11:16Z</time>
      </trkpt>
      <trkpt lat="46.59963" lon="6.09993">
        <ele>1072.6</ele>
        <time>2024-05-10T10:11:27Z</time>
      </trkpt>
      <trkpt lat="46.59969" lon="6.10005">
        <ele>1072.5</ele>
        <time>2024-05-10T10:11:37Z</time>
      </trkpt>
      <trkpt lat="46.59988" lon="6.10034">
        <ele>1072.1</ele>
        <time>2024-05-10T10:11:47Z</time>
      </trkpt>
      <trkpt lat="46.60004" lon="6.10068">
        <ele>1072.2</ele>
        <time>2024-05-10T10:11:57Z</time>
      </trkpt>
      <trkpt lat="46.60025" lon="6.10112">
        <ele>1072.5</ele>
        <time>2024-05-10T10:12:08Z</time>
      </trkpt>
      <trkpt lat="46.60045" lon="6.10144">
        <ele>1072.8</ele>
        <time>2024-05-10T10:12:18Z</time>
      </trkpt>
      <trkpt lat="46.60076" lon="6.10171">
        <ele>1073.5</ele>
        <time>2024-05-10T10:12:29Z</time>
      </trkpt>
      <trkpt lat="46.601" lon="6.1019">
        <ele>1073.9</ele>
        <time>2024-05-10T10:12:39Z</time>
      </trkpt>
      <trkpt lat="46.60121" lon="6.1021">
        <ele>1074</ele>
        <time>2024-05-10T10:12:50Z</time>
      </trkpt>
      <trkpt lat="46.60122" lon="6.10208">
        <ele>1074</ele>
        <time>2024-05-10T10:13:00Z</time>
      </trkpt>
      <trkpt lat="46.60122" lon="6.10208">
        <ele>1074</ele>
        <time>2024-05-10T10:13:10Z</time>
      </trkpt>
      <trkpt lat="46.60122" lon="6.10208">
        <ele>1074</ele>
        <time>2024-05-10T10:13:21Z</time>
      </trkpt>
      <trkpt lat="46.60122" lon="6.10208">
        <ele>1074</ele>
        <time>2024-05-10T10:13:32Z</time>
      </trkpt>
      <trkpt lat="46.6013" lon="6.10218">
        <ele>1074.1</ele>
        <time>2024-05-10T10:13:42Z</time>
      </trkpt>
      <trkpt lat="46.60159" lon="6.10261">
        <ele>1074.3</ele>
        <time>2024-05-10T10:13:53Z</time>
      </trkpt>
      <trkpt lat="46.60177" lon="6.10306">
        <ele>1075.2</ele>
        <time>2024-05-10T10:14:04Z</time>
      </trkpt>
      <trkpt lat="46.60172" lon="6.10356">
        <ele>1075.8</ele>
        <time>2024-05-10T10:14:14Z</time>
      </trkpt>
      <trkpt lat="46.60148" lon="6.10383">
        <ele>1076.2</ele>
        <time>2024-05-10T10:14:24Z</time>
      </trkpt>
      <trkpt lat="46.60123" lon="6.10407">
        <ele>1077.1</ele>
        <time>2024-05-10T10:14:35Z</time>
      </trkpt>
      <trkpt lat="46.60092" lon="6.10458">
        <ele>1075.9</ele>
        <time>2024-05-10T10:14:46Z</time>
      </trkpt>
      <trkpt lat="46.60062" lon="6.10507">
        <ele>1075.7</ele>
        <time>2024-05-10T10:14:56Z</time>
      </trkpt>
      <trkpt lat="46.60057" lon="6.10518">
        <ele>1075.9</ele>
        <time>2024-05-10T10:15:06Z</time>
      </trkpt>
      <trkpt lat="46.60055" lon="6.10521">
        <ele>1076</ele>
        <time>2024-05-10T10:15:16Z</time>
      </trkpt>
      <trkpt lat="46.60038" lon="6.1056">
        <ele>1075.8</ele>
        <time>2024-05-10T10:15:27Z</time>
      </trkpt>
      <trkpt lat="46.60049" lon="6.10618">
        <ele>1074.1</ele>
        <time>2024-05-10T10:15:38Z</time>
      </trkpt>
      <trkpt lat="46.60069" lon="6.10702">
        <ele>1072.7</ele>
        <time>2024-05-10T10:15:48Z</time>
      </trkpt>
      <trkpt lat="46.60073" lon="6.10753">
        <ele>1072.8</ele>
        <time>2024-05-10T10:15:59Z</time>
      </trkpt>
      <trkpt lat="46.60065" lon="6.10828">
        <ele>1073</ele>
        <time>2024-05-10T10:16:10Z</time>
      </trkpt>
      <trkpt lat="46.60046" lon="6.10897">
        <ele>1072.9</ele>
        <time>2024-05-10T10:16:21Z</time>
      </trkpt>
      <trkpt lat="46.60019" lon="6.10992">
        <ele>1073.4</ele>
        <time>2024-05-10T10:16:31Z</time>
      </trkpt>
      <trkpt lat="46.59999" lon="6.11073">
        <ele>1076</ele>
        <time>2024-05-10T10:16:41Z</time>
      </trkpt>
      <trkpt lat="46.59986" lon="6.11129">
        <ele>1079.4</ele>
        <time>2024-05-10T10:16:52Z</time>
      </trkpt>
      <trkpt lat="46.59974" lon="6.11175">
        <ele>1082.4</ele>
        <time>2024-05-10T10:17:02Z</time>
      </trkpt>
      <trkpt lat="46.59968" lon="6.11207">
        <ele>1084.8</ele>
        <time>2024-05-10T10:17:13Z</time>
      </trkpt>
      <trkpt lat="46.59966" lon="6.11227">
        <ele>1086.2</ele>
        <time>2024-05-10T10:17:23Z</time>
      </trkpt>
      <trkpt lat="46.59959" lon="6.11263">
        <ele>1088.3</ele>
        <time>2024-05-10T10:17:34Z</time>
      </trkpt>
      <trkpt lat="46.59951" lon="6.11297">
        <ele>1089.7</ele>
        <time>2024-05-10T10:17:44Z</time>
      </trkpt>
      <trkpt lat="46.59934" lon="6.11338">
        <ele>1089.7</ele>
        <time>2024-05-10T10:17:55Z</time>
      </trkpt>
      <trkpt lat="46.59884" lon="6.11391">
        <ele>1086.5</ele>
        <time>2024-05-10T10:18:05Z</time>
      </trkpt>
      <trkpt lat="46.59836" lon="6.11396">
        <ele>1087.7</ele>
        <time>2024-05-10T10:18:16Z</time>
      </trkpt>
      <trkpt lat="46.59812" lon="6.11407">
        <ele>1088.7</ele>
        <time>2024-05-10T10:18:26Z</time>
      </trkpt>
      <trkpt lat="46.59791" lon="6.11401">
        <ele>1088.7</ele>
        <time>2024-05-10T10:18:37Z</time>
      </trkpt>
      <trkpt lat="46.59782" lon="6.11382">
        <ele>1088.4</ele>
        <time>2024-05-10T10:18:48Z</time>
      </trkpt>
      <trkpt lat="46.59781" lon="6.11382">
        <ele>1088.4</ele>
        <time>2024-05-10T10:18:58Z</time>
      </trkpt>
      <trkpt lat="46.59781" lon="6.11381">
        <ele>1088.4</ele>
        <time>2024-05-10T10:19:09Z</time>
      </trkpt>
      <trkpt lat="46.59781" lon="6.11381">
        <ele>1088.4</ele>
        <time>2024-05-10T10:19:19Z</time>
      </trkpt>
      <trkpt lat="46.59781" lon="6.11381">
        <ele>1088.4</ele>
        <time>2024-05-10T10:19:30Z</time>
      </trkpt>
      <trkpt lat="46.59781" lon="6.11381">
        <ele>1088.4</ele>
        <time>2024-05-10T10:19:40Z</time>
      </trkpt>
      <trkpt lat="46.59781" lon="6.11381">
        <ele>1088.4</ele>
        <time>2024-05-10T10:19:50Z</time>
      </trkpt>
      <trkpt lat="46.59781" lon="6.11381">
        <ele>1088.4</ele>
        <time>2024-05-10T10:20:00Z</time>
      </trkpt>
      <trkpt lat="46.5978" lon="6.11378">
        <ele>1088.3</ele>
        <time>2024-05-10T10:20:10Z</time>
      </trkpt>
      <trkpt lat="46.59781" lon="6.11378">
        <ele>1088.3</ele>
        <time>2024-05-10T10:20:21Z</time>
      </trkpt>
      <trkpt lat="46.59781" lon="6.11378">
        <ele>1088.3</ele>
        <time>2024-05-10T10:20:32Z</time>
      </trkpt>
      <trkpt lat="46.59772" lon="6.11375">
        <ele>1088.1</ele>
        <time>2024-05-10T10:20:42Z</time>
      </trkpt>
      <trkpt lat="46.59755" lon="6.11342">
        <ele>1086.9</ele>
        <time>2024-05-10T10:20:53Z</time>
      </trkpt>
      <trkpt lat="46.59727" lon="6.11314">
        <ele>1085</ele>
        <time>2024-05-10T10:21:03Z</time>
      </trkpt>
      <trkpt lat="46.59689" lon="6.1131">
        <ele>1083.9</ele>
        <time>2024-05-10T10:21:14Z</time>
      </trkpt>
      <trkpt lat="46.59674" lon="6.11336">
        <ele>1083.7</ele>
        <time>2024-05-10T10:21:25Z</time>
      </trkpt>
      <trkpt lat="46.59672" lon="6.11339">
        <ele>1083.7</ele>
        <time>2024-05-10T10:21:35Z</time>
      </trkpt>
      <trkpt lat="46.59673" lon="6.11339">
        <ele>1083.7</ele>
        <time>2024-05-10T10:21:46Z</time>
      </trkpt>
      <trkpt lat="46.59674" lon="6.11338">
        <ele>1083.6</ele>
        <time>2024-05-10T10:21:56Z</time>
      </trkpt>
      <trkpt lat="46.59674" lon="6.11338">
        <ele>1083.6</ele>
        <time>2024-05-10T10:22:07Z</time>
      </trkpt>
      <trkpt lat="46.59674" lon="6.11338">
        <ele>1083.6</ele>
        <time>2024-05-10T10:22:18Z</time>
      </trkpt>
      <trkpt lat="46.59674" lon="6.11337">
        <ele>1083.6</ele>
        <time>2024-05-10T10:22:28Z</time>
      </trkpt>
      <trkpt lat="46.59674" lon="6.11337">
        <ele>1083.6</ele>
        <time>2024-05-10T10:22:39Z</time>
      </trkpt>
      <trkpt lat="46.59671" lon="6.11345">
        <ele>1083.5</ele>
        <time>2024-05-10T10:22:49Z</time>
      </trkpt>
      <trkpt lat="46.59644" lon="6.11405">
        <ele>1080.4</ele>
        <time>2024-05-10T10:23:00Z</time>
      </trkpt>
      <trkpt lat="46.59586" lon="6.11497">
        <ele>1076.6</ele>
        <time>2024-05-10T10:23:10Z</time>
      </trkpt>
      <trkpt lat="46.5954" lon="6.11479">
        <ele>1079.6</ele>
        <time>2024-05-10T10:23:21Z</time>
      </trkpt>
      <trkpt lat="46.59485" lon="6.11478">
        <ele>1078.2</ele>
        <time>2024-05-10T10:23:32Z</time>
      </trkpt>
      <trkpt lat="46.59418" lon="6.11487">
        <ele>1077.7</ele>
        <time>2024-05-10T10:23:44Z</time>
      </trkpt>
      <trkpt lat="46.59375" lon="6.11496">
        <ele>1079.7</ele>
        <time>2024-05-10T10:23:54Z</time>
      </trkpt>
      <trkpt lat="46.59345" lon="6.11542">
        <ele>1080.5</ele>
        <time>2024-05-10T10:24:04Z</time>
      </trkpt>
      <trkpt lat="46.59313" lon="6.11583">
        <ele>1081.4</ele>
        <time>2024-05-10T10:24:14Z</time>
      </trkpt>
      <trkpt lat="46.5928" lon="6.11623">
        <ele>1082.5</ele>
        <time>2024-05-10T10:24:24Z</time>
      </trkpt>
      <trkpt lat="46.59254" lon="6.11673">
        <ele>1083.8</ele>
        <time>2024-05-10T10:24:35Z</time>
      </trkpt>
      <trkpt lat="46.59237" lon="6.11727">
        <ele>1085.1</ele>
        <time>2024-05-10T10:24:46Z</time>
      </trkpt>
      <trkpt lat="46.59223" lon="6.1178">
        <ele>1086.8</ele>
        <time>2024-05-10T10:24:57Z</time>
      </trkpt>
      <trkpt lat="46.5921" lon="6.11799">
        <ele>1088.6</ele>
        <time>2024-05-10T10:25:07Z</time>
      </trkpt>
      <trkpt lat="46.59192" lon="6.11779">
        <ele>1088.8</ele>
        <time>2024-05-10T10:25:17Z</time>
      </trkpt>
      <trkpt lat="46.59172" lon="6.11749">
        <ele>1087.5</ele>
        <time>2024-05-10T10:25:28Z</time>
      </trkpt>
      <trkpt lat="46.59152" lon="6.11692">
        <ele>1085.7</ele>
        <time>2024-05-10T10:25:39Z</time>
      </trkpt>
      <trkpt lat="46.59137" lon="6.1165">
        <ele>1084.9</ele>
        <time>2024-05-10T10:25:49Z</time>
      </trkpt>
      <trkpt lat="46.59122" lon="6.11617">
        <ele>1084.5</ele>
        <time>2024-05-10T10:25:59Z</time>
      </trkpt>
      <trkpt lat="46.591" lon="6.11582">
        <ele>1084.4</ele>
        <time>2024-05-10T10:26:10Z</time>
      </trkpt>
      <trkpt lat="46.59075" lon="6.11547">
        <ele>1084.6</ele>
        <time>2024-05-10T10:26:21Z</time>
      </trkpt>
      <trkpt lat="46.59049" lon="6.11511">
        <ele>1085</ele>
        <time>2024-05-10T10:26:31Z</time>
      </trkpt>
      <trkpt lat="46.59023" lon="6.11489">
        <ele>1085.6</ele>
        <time>2024-05-10T10:26:42Z</time>
      </trkpt>
      <trkpt lat="46.58996" lon="6.11464">
        <ele>1086.3</ele>
        <time>2024-05-10T10:26:53Z</time>
      </trkpt>
      <trkpt lat="46.58975" lon="6.1144">
        <ele>1087.4</ele>
        <time>2024-05-10T10:27:04Z</time>
      </trkpt>
      <trkpt lat="46.58955" lon="6.11416">
        <ele>1087.8</ele>
        <time>2024-05-10T10:27:14Z</time>
      </trkpt>
      <trkpt lat="46.58926" lon="6.11395">
        <ele>1086.8</ele>
        <time>2024-05-10T10:27:25Z</time>
      </trkpt>
      <trkpt lat="46.58889" lon="6.11377">
        <ele>1085.6</ele>
        <time>2024-05-10T10:27:35Z</time>
      </trkpt>
      <trkpt lat="46.58863" lon="6.11356">
        <ele>1086.6</ele>
        <time>2024-05-10T10:27:46Z</time>
      </trkpt>
      <trkpt lat="46.58835" lon="6.11337">
        <ele>1087.8</ele>
        <time>2024-05-10T10:27:56Z</time>
      </trkpt>
      <trkpt lat="46.5881" lon="6.11312">
        <ele>1089.2</ele>
        <time>2024-05-10T10:28:07Z</time>
      </trkpt>
      <trkpt lat="46.58793" lon="6.11293">
        <ele>1090.7</ele>
        <time>2024-05-10T10:28:18Z</time>
      </trkpt>
      <trkpt lat="46.58779" lon="6.11267">
        <ele>1092.2</ele>
        <time>2024-05-10T10:28:29Z</time>
      </trkpt>
      <trkpt lat="46.58765" lon="6.1124">
        <ele>1093.2</ele>
        <time>2024-05-10T10:28:40Z</time>
      </trkpt>
      <trkpt lat="46.5875" lon="6.11208">
        <ele>1093.6</ele>
        <time>2024-05-10T10:28:50Z</time>
      </trkpt>
      <trkpt lat="46.58724" lon="6.11175">
        <ele>1093.5</ele>
        <time>2024-05-10T10:29:00Z</time>
      </trkpt>
      <trkpt lat="46.58716" lon="6.11119">
        <ele>1093.7</ele>
        <time>2024-05-10T10:29:11Z</time>
      </trkpt>
      <trkpt lat="46.58732" lon="6.1107">
        <ele>1094.1</ele>
        <time>2024-05-10T10:29:21Z</time>
      </trkpt>
      <trkpt lat="46.58742" lon="6.11019">
        <ele>1095.9</ele>
        <time>2024-05-10T10:29:32Z</time>
      </trkpt>
      <trkpt lat="46.58751" lon="6.1098">
        <ele>1097.4</ele>
        <time>2024-05-10T10:29:42Z</time>
      </trkpt>
      <trkpt lat="46.58763" lon="6.10933">
        <ele>1097.5</ele>
        <time>2024-05-10T10:29:52Z</time>
      </trkpt>
      <trkpt lat="46.58775" lon="6.10863">
        <ele>1096.1</ele>
        <time>2024-05-10T10:30:02Z</time>
      </trkpt>
      <trkpt lat="46.58781" lon="6.10798">
        <ele>1095.5</ele>
        <time>2024-05-10T10:30:13Z</time>
      </trkpt>
      <trkpt lat="46.58756" lon="6.10784">
        <ele>1096.5</ele>
        <time>2024-05-10T10:30:23Z</time>
      </trkpt>
      <trkpt lat="46.5874" lon="6.10775">
        <ele>1098.2</ele>
        <time>2024-05-10T10:30:33Z</time>
      </trkpt>
      <trkpt lat="46.58725" lon="6.10767">
        <ele>1100.4</ele>
        <time>2024-05-10T10:30:44Z</time>
      </trkpt>
      <trkpt lat="46.58708" lon="6.10762">
        <ele>1102.6</ele>
        <time>2024-05-10T10:30:54Z</time>
      </trkpt>
      <trkpt lat="46.58693" lon="6.10758">
        <ele>1104.9</ele>
        <time>2024-05-10T10:31:04Z</time>
      </trkpt>
      <trkpt lat="46.58679" lon="6.10755">
        <ele>1106.6</ele>
        <time>2024-05-10T10:31:15Z</time>
      </trkpt>
      <trkpt lat="46.58662" lon="6.10753">
        <ele>1107.5</ele>
        <time>2024-05-10T10:31:25Z</time>
      </trkpt>
      <trkpt lat="46.58632" lon="6.10754">
        <ele>1107.7</ele>
        <time>2024-05-10T10:31:35Z</time>
      </trkpt>
      <trkpt lat="46.58603" lon="6.1075">
        <ele>1107.6</ele>
        <time>2024-05-10T10:31:45Z</time>
      </trkpt>
      <trkpt lat="46.58577" lon="6.10745">
        <ele>1108.9</ele>
        <time>2024-05-10T10:31:56Z</time>
      </trkpt>
      <trkpt lat="46.58555" lon="6.10735">
        <ele>1110.1</ele>
        <time>2024-05-10T10:32:07Z</time>
      </trkpt>
      <trkpt lat="46.58549" lon="6.107">
        <ele>1110.6</ele>
        <time>2024-05-10T10:32:17Z</time>
      </trkpt>
      <trkpt lat="46.58544" lon="6.10666">
        <ele>1111.3</ele>
        <time>2024-05-10T10:32:28Z</time>
      </trkpt>
      <trkpt lat="46.58539" lon="6.10629">
        <ele>1112.1</ele>
        <time>2024-05-10T10:32:38Z</time>
      </trkpt>
      <trkpt lat="46.58536" lon="6.10596">
        <ele>1113.2</ele>
        <time>2024-05-10T10:32:50Z</time>
      </trkpt>
      <trkpt lat="46.58529" lon="6.10564">
        <ele>1114.6</ele>
        <time>2024-05-10T10:33:00Z</time>
      </trkpt>
      <trkpt lat="46.58523" lon="6.10535">
        <ele>1116.3</ele>
        <time>2024-05-10T10:33:11Z</time>
      </trkpt>
      <trkpt lat="46.58513" lon="6.10501">
        <ele>1117.2</ele>
        <time>2024-05-10T10:33:21Z</time>
      </trkpt>
      <trkpt lat="46.58492" lon="6.10496">
        <ele>1118.1</ele>
        <time>2024-05-10T10:33:32Z</time>
      </trkpt>
      <trkpt lat="46.5847" lon="6.10498">
        <ele>1119.2</ele>
        <time>2024-05-10T10:33:43Z</time>
      </trkpt>
      <trkpt lat="46.5845" lon="6.10498">
        <ele>1120</ele>
        <time>2024-05-10T10:33:54Z</time>
      </trkpt>
      <trkpt lat="46.58429" lon="6.10496">
        <ele>1120.9</ele>
        <time>2024-05-10T10:34:04Z</time>
      </trkpt>
      <trkpt lat="46.5842" lon="6.10509">
        <ele>1121.8</ele>
        <time>2024-05-10T10:34:14Z</time>
      </trkpt>
      <trkpt lat="46.58416" lon="6.1054">
        <ele>1122.2</ele>
        <time>2024-05-10T10:34:24Z</time>
      </trkpt>
      <trkpt lat="46.58407" lon="6.10584">
        <ele>1122.8</ele>
        <time>2024-05-10T10:34:35Z</time>
      </trkpt>
      <trkpt lat="46.58396" lon="6.10629">
        <ele>1123.2</ele>
        <time>2024-05-10T10:34:45Z</time>
      </trkpt>
      <trkpt lat="46.58377" lon="6.10669">
        <ele>1123.2</ele>
        <time>2024-05-10T10:34:56Z</time>
      </trkpt>
      <trkpt lat="46.58344" lon="6.10706">
        <ele>1122.4</ele>
        <time>2024-05-10T10:35:07Z</time>
      </trkpt>
      <trkpt lat="46.58306" lon="6.10731">
        <ele>1122.3</ele>
        <time>2024-05-10T10:35:17Z</time>
      </trkpt>
      <trkpt lat="46.58267" lon="6.10744">
        <ele>1123.1</ele>
        <time>2024-05-10T10:35:28Z</time>
      </trkpt>
      <trkpt lat="46.58231" lon="6.10738">
        <ele>1124.5</ele>
        <time>2024-05-10T10:35:38Z</time>
      </trkpt>
      <trkpt lat="46.582" lon="6.10717">
        <ele>1125.9</ele>
        <time>2024-05-10T10:35:48Z</time>
      </trkpt>
      <trkpt lat="46.5817" lon="6.10692">
        <ele>1125.4</ele>
        <time>2024-05-10T10:35:59Z</time>
      </trkpt>
      <trkpt lat="46.58163" lon="6.10686">
        <ele>1124.9</ele>
        <time>2024-05-10T10:36:09Z</time>
      </trkpt>
      <trkpt lat="46.58185" lon="6.10705">
        <ele>1126</ele>
        <time>2024-05-10T10:36:20Z</time>
      </trkpt>
      <trkpt lat="46.58203" lon="6.10704">
        <ele>1125.9</ele>
        <time>2024-05-10T10:36:30Z</time>
      </trkpt>
      <trkpt lat="46.58203" lon="6.10703">
        <ele>1126</ele>
        <time>2024-05-10T10:36:41Z</time>
      </trkpt>
      <trkpt lat="46.58202" lon="6.10702">
        <ele>1126</ele>
        <time>2024-05-10T10:36:51Z</time>
      </trkpt>
      <trkpt lat="46.58202" lon="6.10702">
        <ele>1126</ele>
        <time>2024-05-10T10:37:02Z</time>
      </trkpt>
      <trkpt lat="46.58201" lon="6.107">
        <ele>1126</ele>
        <time>2024-05-10T10:37:13Z</time>
      </trkpt>
      <trkpt lat="46.58201" lon="6.107">
        <ele>1126</ele>
        <time>2024-05-10T10:37:24Z</time>
      </trkpt>
      <trkpt lat="46.58202" lon="6.10701">
        <ele>1126</ele>
        <time>2024-05-10T10:37:34Z</time>
      </trkpt>
      <trkpt lat="46.58202" lon="6.10701">
        <ele>1126</ele>
        <time>2024-05-10T10:37:45Z</time>
      </trkpt>
      <trkpt lat="46.58202" lon="6.10701">
        <ele>1126</ele>
        <time>2024-05-10T10:37:56Z</time>
      </trkpt>
      <trkpt lat="46.582" lon="6.10704">
        <ele>1126</ele>
        <time>2024-05-10T10:38:06Z</time>
      </trkpt>
      <trkpt lat="46.58194" lon="6.10715">
        <ele>1126</ele>
        <time>2024-05-10T10:38:17Z</time>
      </trkpt>
      <trkpt lat="46.58186" lon="6.10707">
        <ele>1126.1</ele>
        <time>2024-05-10T10:38:28Z</time>
      </trkpt>
      <trkpt lat="46.58152" lon="6.10677">
        <ele>1124.2</ele>
        <time>2024-05-10T10:38:38Z</time>
      </trkpt>
      <trkpt lat="46.58093" lon="6.10605">
        <ele>1120</ele>
        <time>2024-05-10T10:38:49Z</time>
      </trkpt>
      <trkpt lat="46.58023" lon="6.10552">
        <ele>1120.3</ele>
        <time>2024-05-10T10:39:00Z</time>
      </trkpt>
      <trkpt lat="46.57973" lon="6.10547">
        <ele>1122.4</ele>
        <time>2024-05-10T10:39:10Z</time>
      </trkpt>
      <trkpt lat="46.57937" lon="6.10549">
        <ele>1124.8</ele>
        <time>2024-05-10T10:39:21Z</time>
      </trkpt>
      <trkpt lat="46.57907" lon="6.10552">
        <ele>1126.4</ele>
        <time>2024-05-10T10:39:31Z</time>
      </trkpt>
      <trkpt lat="46.57875" lon="6.10567">
        <ele>1127.5</ele>
        <time>2024-05-10T10:39:42Z</time>
      </trkpt>
      <trkpt lat="46.57837" lon="6.10574">
        <ele>1129</ele>
        <time>2024-05-10T10:39:53Z</time>
      </trkpt>
      <trkpt lat="46.57804" lon="6.10565">
        <ele>1131.3</ele>
        <time>2024-05-10T10:40:04Z</time>
      </trkpt>
      <trkpt lat="46.57777" lon="6.1054">
        <ele>1133.6</ele>
        <time>2024-05-10T10:40:15Z</time>
      </trkpt>
      <trkpt lat="46.57759" lon="6.10503">
        <ele>1135.1</ele>
        <time>2024-05-10T10:40:25Z</time>
      </trkpt>
      <trkpt lat="46.57733" lon="6.10474">
        <ele>1136.2</ele>
        <time>2024-05-10T10:40:35Z</time>
      </trkpt>
      <trkpt lat="46.57706" lon="6.10431">
        <ele>1137.3</ele>
        <time>2024-05-10T10:40:45Z</time>
      </trkpt>
      <trkpt lat="46.57679" lon="6.1039">
        <ele>1137.8</ele>
        <time>2024-05-10T10:40:56Z</time>
      </trkpt>
      <trkpt lat="46.57628" lon="6.10327">
        <ele>1133.9</ele>
        <time>2024-05-10T10:41:07Z</time>
      </trkpt>
      <trkpt lat="46.57552" lon="6.10272">
        <ele>1130.9</ele>
        <time>2024-05-10T10:41:17Z</time>
      </trkpt>
      <trkpt lat="46.57531" lon="6.1022">
        <ele>1133.8</ele>
        <time>2024-05-10T10:41:28Z</time>
      </trkpt>
      <trkpt lat="46.57529" lon="6.10184">
        <ele>1134.5</ele>
        <time>2024-05-10T10:41:39Z</time>
      </trkpt>
      <trkpt lat="46.57515" lon="6.10132">
        <ele>1133</ele>
        <time>2024-05-10T10:41:49Z</time>
      </trkpt>
      <trkpt lat="46.57524" lon="6.10064">
        <ele>1131.2</ele>
        <time>2024-05-10T10:41:59Z</time>
      </trkpt>
      <trkpt lat="46.57503" lon="6.09987">
        <ele>1127.6</ele>
        <time>2024-05-10T10:42:10Z</time>
      </trkpt>
      <trkpt lat="46.57483" lon="6.09925">
        <ele>1125.4</ele>
        <time>2024-05-10T10:42:21Z</time>
      </trkpt>
      <trkpt lat="46.57474" lon="6.0987">
        <ele>1124.6</ele>
        <time>2024-05-10T10:42:31Z</time>
      </trkpt>
      <trkpt lat="46.57475" lon="6.09819">
        <ele>1123.8</ele>
        <time>2024-05-10T10:42:41Z</time>
      </trkpt>
      <trkpt lat="46.5745" lon="6.09794">
        <ele>1121.9</ele>
        <time>2024-05-10T10:42:51Z</time>
      </trkpt>
      <trkpt lat="46.57437" lon="6.09786">
        <ele>1121.3</ele>
        <time>2024-05-10T10:43:02Z</time>
      </trkpt>
      <trkpt lat="46.57435" lon="6.09784">
        <ele>1121.2</ele>
        <time>2024-05-10T10:43:13Z</time>
      </trkpt>
      <trkpt lat="46.57435" lon="6.09784">
        <ele>1121.2</ele>
        <time>2024-05-10T10:43:23Z</time>
      </trkpt>
      <trkpt lat="46.57435" lon="6.09788">
        <ele>1121.1</ele>
        <time>2024-05-10T10:43:33Z</time>
      </trkpt>
      <trkpt lat="46.57435" lon="6.09788">
        <ele>1121.1</ele>
        <time>2024-05-10T10:43:44Z</time>
      </trkpt>
      <trkpt lat="46.57441" lon="6.09793">
        <ele>1120.8</ele>
        <time>2024-05-10T10:43:55Z</time>
      </trkpt>
      <trkpt lat="46.57442" lon="6.09789">
        <ele>1120.7</ele>
        <time>2024-05-10T10:44:05Z</time>
      </trkpt>
      <trkpt lat="46.57442" lon="6.09793">
        <ele>1120.6</ele>
        <time>2024-05-10T10:44:15Z</time>
      </trkpt>
      <trkpt lat="46.57445" lon="6.09793">
        <ele>1120.5</ele>
        <time>2024-05-10T10:44:26Z</time>
      </trkpt>
      <trkpt lat="46.57445" lon="6.09793">
        <ele>1120.5</ele>
        <time>2024-05-10T10:44:36Z</time>
      </trkpt>
      <trkpt lat="46.57441" lon="6.09795">
        <ele>1120.3</ele>
        <time>2024-05-10T10:44:46Z</time>
      </trkpt>
      <trkpt lat="46.57441" lon="6.09793">
        <ele>1120.2</ele>
        <time>2024-05-10T10:44:57Z</time>
      </trkpt>
      <trkpt lat="46.57441" lon="6.09793">
        <ele>1120.2</ele>
        <time>2024-05-10T10:45:07Z</time>
      </trkpt>
      <trkpt lat="46.57441" lon="6.09793">
        <ele>1120.2</ele>
        <time>2024-05-10T10:45:18Z</time>
      </trkpt>
      <trkpt lat="46.57441" lon="6.09793">
        <ele>1120.2</ele>
        <time>2024-05-10T10:45:29Z</time>
      </trkpt>
      <trkpt lat="46.57441" lon="6.09793">
        <ele>1120.2</ele>
        <time>2024-05-10T10:45:39Z</time>
      </trkpt>
      <trkpt lat="46.57441" lon="6.09791">
        <ele>1120.2</ele>
        <time>2024-05-10T10:45:49Z</time>
      </trkpt>
      <trkpt lat="46.57438" lon="6.09789">
        <ele>1120.1</ele>
        <time>2024-05-10T10:46:00Z</time>
      </trkpt>
      <trkpt lat="46.57438" lon="6.09789">
        <ele>1120.1</ele>
        <time>2024-05-10T10:46:11Z</time>
      </trkpt>
      <trkpt lat="46.57438" lon="6.09789">
        <ele>1120.1</ele>
        <time>2024-05-10T10:46:21Z</time>
      </trkpt>
      <trkpt lat="46.57438" lon="6.09789">
        <ele>1120.1</ele>
        <time>2024-05-10T10:46:31Z</time>
      </trkpt>
      <trkpt lat="46.57437" lon="6.09788">
        <ele>1120</ele>
        <time>2024-05-10T10:46:42Z</time>
      </trkpt>
      <trkpt lat="46.57437" lon="6.09788">
        <ele>1120</ele>
        <time>2024-05-10T10:46:52Z</time>
      </trkpt>
      <trkpt lat="46.57435" lon="6.09784">
        <ele>1119.9</ele>
        <time>2024-05-10T10:47:03Z</time>
      </trkpt>
      <trkpt lat="46.57433" lon="6.09786">
        <ele>1119.7</ele>
        <time>2024-05-10T10:47:13Z</time>
      </trkpt>
      <trkpt lat="46.57433" lon="6.09784">
        <ele>1119.7</ele>
        <time>2024-05-10T10:47:24Z</time>
      </trkpt>
      <trkpt lat="46.57433" lon="6.09786">
        <ele>1119.6</ele>
        <time>2024-05-10T10:47:34Z</time>
      </trkpt>
      <trkpt lat="46.57416" lon="6.09783">
        <ele>1118.9</ele>
        <time>2024-05-10T10:47:44Z</time>
      </trkpt>
      <trkpt lat="46.57371" lon="6.09763">
        <ele>1117.1</ele>
        <time>2024-05-10T10:47:54Z</time>
      </trkpt>
      <trkpt lat="46.57312" lon="6.09745">
        <ele>1116.1</ele>
        <time>2024-05-10T10:48:05Z</time>
      </trkpt>
      <trkpt lat="46.57288" lon="6.09676">
        <ele>1114.9</ele>
        <time>2024-05-10T10:48:16Z</time>
      </trkpt>
      <trkpt lat="46.57263" lon="6.09614">
        <ele>1114</ele>
        <time>2024-05-10T10:48:26Z</time>
      </trkpt>
      <trkpt lat="46.57233" lon="6.09549">
        <ele>1111.6</ele>
        <time>2024-05-10T10:48:36Z</time>
      </trkpt>
      <trkpt lat="46.57213" lon="6.09495">
        <ele>1110</ele>
        <time>2024-05-10T10:48:46Z</time>
      </trkpt>
      <trkpt lat="46.57199" lon="6.09469">
        <ele>1107.6</ele>
        <time>2024-05-10T10:48:56Z</time>
      </trkpt>
      <trkpt lat="46.57158" lon="6.09426">
        <ele>1102.2</ele>
        <time>2024-05-10T10:49:07Z</time>
      </trkpt>
      <trkpt lat="46.57114" lon="6.09373">
        <ele>1099.7</ele>
        <time>2024-05-10T10:49:18Z</time>
      </trkpt>
      <trkpt lat="46.57055" lon="6.09304">
        <ele>1097.8</ele>
        <time>2024-05-10T10:49:28Z</time>
      </trkpt>
      <trkpt lat="46.57004" lon="6.09244">
        <ele>1100.1</ele>
        <time>2024-05-10T10:49:39Z</time>
      </trkpt>
      <trkpt lat="46.56975" lon="6.0922">
        <ele>1102</ele>
        <time>2024-05-10T10:49:51Z</time>
      </trkpt>
      <trkpt lat="46.56934" lon="6.09199">
        <ele>1101.3</ele>
        <time>2024-05-10T10:50:01Z</time>
      </trkpt>
      <trkpt lat="46.56891" lon="6.09158">
        <ele>1101.8</ele>
        <time>2024-05-10T10:50:11Z</time>
      </trkpt>
      <trkpt lat="46.56867" lon="6.0912">
        <ele>1103.9</ele>
        <time>2024-05-10T10:50:22Z</time>
      </trkpt>
      <trkpt lat="46.56848" lon="6.09076">
        <ele>1104.4</ele>
        <time>2024-05-10T10:50:33Z</time>
      </trkpt>
      <trkpt lat="46.56823" lon="6.0901">
        <ele>1104.1</ele>
        <time>2024-05-10T10:50:44Z</time>
      </trkpt>
      <trkpt lat="46.56794" lon="6.08938">
        <ele>1103.7</ele>
        <time>2024-05-10T10:50:55Z</time>
      </trkpt>
      <trkpt lat="46.56752" lon="6.0889">
        <ele>1102.3</ele>
        <time>2024-05-10T10:51:06Z</time>
      </trkpt>
      <trkpt lat="46.56723" lon="6.08812">
        <ele>1099.7</ele>
        <time>2024-05-10T10:51:16Z</time>
      </trkpt>
      <trkpt lat="46.56699" lon="6.0874">
        <ele>1097.5</ele>
        <time>2024-05-10T10:51:26Z</time>
      </trkpt>
      <trkpt lat="46.56672" lon="6.0867">
        <ele>1096.3</ele>
        <time>2024-05-10T10:51:37Z</time>
      </trkpt>
      <trkpt lat="46.56653" lon="6.08618">
        <ele>1096.3</ele>
        <time>2024-05-10T10:51:48Z</time>
      </trkpt>
      <trkpt lat="46.56632" lon="6.08577">
        <ele>1097.1</ele>
        <time>2024-05-10T10:51:58Z</time>
      </trkpt>
      <trkpt lat="46.56612" lon="6.08526">
        <ele>1098.2</ele>
        <time>2024-05-10T10:52:09Z</time>
      </trkpt>
      <trkpt lat="46.56603" lon="6.08472">
        <ele>1099.9</ele>
        <time>2024-05-10T10:52:20Z</time>
      </trkpt>
      <trkpt lat="46.56605" lon="6.0843">
        <ele>1100.9</ele>
        <time>2024-05-10T10:52:31Z</time>
      </trkpt>
      <trkpt lat="46.56616" lon="6.08395">
        <ele>1100.2</ele>
        <time>2024-05-10T10:52:41Z</time>
      </trkpt>
      <trkpt lat="46.56641" lon="6.08331">
        <ele>1098.3</ele>
        <time>2024-05-10T10:52:52Z</time>
      </trkpt>
      <trkpt lat="46.56669" lon="6.08252">
        <ele>1095.9</ele>
        <time>2024-05-10T10:53:03Z</time>
      </trkpt>
      <trkpt lat="46.56692" lon="6.08184">
        <ele>1093.7</ele>
        <time>2024-05-10T10:53:13Z</time>
      </trkpt>
      <trkpt lat="46.5672" lon="6.08124">
        <ele>1091</ele>
        <time>2024-05-10T10:53:23Z</time>
      </trkpt>
      <trkpt lat="46.56732" lon="6.08082">
        <ele>1091.4</ele>
        <time>2024-05-10T10:53:34Z</time>
      </trkpt>
      <trkpt lat="46.56735" lon="6.08041">
        <ele>1092.4</ele>
        <time>2024-05-10T10:53:44Z</time>
      </trkpt>
      <trkpt lat="46.56719" lon="6.08007">
        <ele>1093.7</ele>
        <time>2024-05-10T10:53:55Z</time>
      </trkpt>
      <trkpt lat="46.56699" lon="6.07972">
        <ele>1095</ele>
        <time>2024-05-10T10:54:05Z</time>
      </trkpt>
      <trkpt lat="46.56684" lon="6.07962">
        <ele>1095.7</ele>
        <time>2024-05-10T10:54:16Z</time>
      </trkpt>
      <trkpt lat="46.56667" lon="6.07983">
        <ele>1095.1</ele>
        <time>2024-05-10T10:54:26Z</time>
      </trkpt>
      <trkpt lat="46.56634" lon="6.08005">
        <ele>1093.5</ele>
        <time>2024-05-10T10:54:36Z</time>
      </trkpt>
      <trkpt lat="46.56586" lon="6.07922">
        <ele>1087.2</ele>
        <time>2024-05-10T10:54:47Z</time>
      </trkpt>
      <trkpt lat="46.56522" lon="6.0784">
        <ele>1079.4</ele>
        <time>2024-05-10T10:54:58Z</time>
      </trkpt>
      <trkpt lat="46.56418" lon="6.07863">
        <ele>1074.5</ele>
        <time>2024-05-10T10:55:09Z</time>
      </trkpt>
      <trkpt lat="46.56358" lon="6.07829">
        <ele>1077.3</ele>
        <time>2024-05-10T10:55:19Z</time>
      </trkpt>
      <trkpt lat="46.5633" lon="6.07794">
        <ele>1079.5</ele>
        <time>2024-05-10T10:55:30Z</time>
      </trkpt>
      <trkpt lat="46.56318" lon="6.07747">
        <ele>1081.2</ele>
        <time>2024-05-10T10:55:41Z</time>
      </trkpt>
      <trkpt lat="46.56308" lon="6.07703">
        <ele>1082.2</ele>
        <time>2024-05-10T10:55:51Z</time>
      </trkpt>
      <trkpt lat="46.56303" lon="6.07644">
        <ele>1081.5</ele>
        <time>2024-05-10T10:56:01Z</time>
      </trkpt>
      <trkpt lat="46.56335" lon="6.07571">
        <ele>1080</ele>
        <time>2024-05-10T10:56:12Z</time>
      </trkpt>
      <trkpt lat="46.56353" lon="6.07542">
        <ele>1079.4</ele>
        <time>2024-05-10T10:56:23Z</time>
      </trkpt>
      <trkpt lat="46.56344" lon="6.0754">
        <ele>1079.5</ele>
        <time>2024-05-10T10:56:34Z</time>
      </trkpt>
      <trkpt lat="46.56323" lon="6.07546">
        <ele>1079.8</ele>
        <time>2024-05-10T10:56:45Z</time>
      </trkpt>
      <trkpt lat="46.56302" lon="6.07544">
        <ele>1082.4</ele>
        <time>2024-05-10T10:56:55Z</time>
      </trkpt>
      <trkpt lat="46.56281" lon="6.07563">
        <ele>1084.4</ele>
        <time>2024-05-10T10:57:05Z</time>
      </trkpt>
      <trkpt lat="46.56267" lon="6.07593">
        <ele>1086.6</ele>
        <time>2024-05-10T10:57:16Z</time>
      </trkpt>
      <trkpt lat="46.56256" lon="6.07627">
        <ele>1088.8</ele>
        <time>2024-05-10T10:57:27Z</time>
      </trkpt>
      <trkpt lat="46.5625" lon="6.07655">
        <ele>1090.6</ele>
        <time>2024-05-10T10:57:37Z</time>
      </trkpt>
      <trkpt lat="46.56244" lon="6.07682">
        <ele>1092.3</ele>
        <time>2024-05-10T10:57:47Z</time>
      </trkpt>
      <trkpt lat="46.56236" lon="6.07713">
        <ele>1094.4</ele>
        <time>2024-05-10T10:57:58Z</time>
      </trkpt>
      <trkpt lat="46.5623" lon="6.07745">
        <ele>1096.5</ele>
        <time>2024-05-10T10:58:10Z</time>
      </trkpt>
      <trkpt lat="46.56224" lon="6.07775">
        <ele>1098.6</ele>
        <time>2024-05-10T10:58:20Z</time>
      </trkpt>
      <trkpt lat="46.56215" lon="6.07807">
        <ele>1101.1</ele>
        <time>2024-05-10T10:58:31Z</time>
      </trkpt>
      <trkpt lat="46.56209" lon="6.07834">
        <ele>1103.2</ele>
        <time>2024-05-10T10:58:41Z</time>
      </trkpt>
      <trkpt lat="46.56195" lon="6.07862">
        <ele>1105.5</ele>
        <time>2024-05-10T10:58:52Z</time>
      </trkpt>
      <trkpt lat="46.56183" lon="6.07886">
        <ele>1107.5</ele>
        <time>2024-05-10T10:59:02Z</time>
      </trkpt>
      <trkpt lat="46.56167" lon="6.0791">
        <ele>1109.5</ele>
        <time>2024-05-10T10:59:13Z</time>
      </trkpt>
      <trkpt lat="46.56153" lon="6.07934">
        <ele>1111.5</ele>
        <time>2024-05-10T10:59:23Z</time>
      </trkpt>
      <trkpt lat="46.56143" lon="6.07964">
        <ele>1113.9</ele>
        <time>2024-05-10T10:59:34Z</time>
      </trkpt>
      <trkpt lat="46.56138" lon="6.07994">
        <ele>1115.9</ele>
        <time>2024-05-10T10:59:45Z</time>
      </trkpt>
      <trkpt lat="46.56138" lon="6.08025">
        <ele>1117.7</ele>
        <time>2024-05-10T10:59:56Z</time>
      </trkpt>
      <trkpt lat="46.56139" lon="6.08052">
        <ele>1119.4</ele>
        <time>2024-05-10T11:00:07Z</time>
      </trkpt>
      <trkpt lat="46.56141" lon="6.08077">
        <ele>1120.8</ele>
        <time>2024-05-10T11:00:17Z</time>
      </trkpt>
      <trkpt lat="46.56145" lon="6.08104">
        <ele>1122.4</ele>
        <time>2024-05-10T11:00:28Z</time>
      </trkpt>
      <trkpt lat="46.56147" lon="6.08131">
        <ele>1124</ele>
        <time>2024-05-10T11:00:38Z</time>
      </trkpt>
      <trkpt lat="46.5615" lon="6.08161">
        <ele>1125.8</ele>
        <time>2024-05-10T11:00:49Z</time>
      </trkpt>
      <trkpt lat="46.56153" lon="6.08191">
        <ele>1127.7</ele>
        <time>2024-05-10T11:01:00Z</time>
      </trkpt>
      <trkpt lat="46.56152" lon="6.08217">
        <ele>1129.5</ele>
        <time>2024-05-10T11:01:10Z</time>
      </trkpt>
      <trkpt lat="46.56148" lon="6.08242">
        <ele>1131.1</ele>
        <time>2024-05-10T11:01:20Z</time>
      </trkpt>
      <trkpt lat="46.56145" lon="6.08271">
        <ele>1133</ele>
        <time>2024-05-10T11:01:31Z</time>
      </trkpt>
      <trkpt lat="46.56145" lon="6.08294">
        <ele>1134.5</ele>
        <time>2024-05-10T11:01:41Z</time>
      </trkpt>
      <trkpt lat="46.56146" lon="6.08324">
        <ele>1136.6</ele>
        <time>2024-05-10T11:01:52Z</time>
      </trkpt>
      <trkpt lat="46.56151" lon="6.08353">
        <ele>1138.5</ele>
        <time>2024-05-10T11:02:02Z</time>
      </trkpt>
      <trkpt lat="46.56157" lon="6.08381">
        <ele>1140.6</ele>
        <time>2024-05-10T11:02:13Z</time>
      </trkpt>
      <trkpt lat="46.56156" lon="6.08409">
        <ele>1142.5</ele>
        <time>2024-05-10T11:02:24Z</time>
      </trkpt>
      <trkpt lat="46.56148" lon="6.08429">
        <ele>1143.9</ele>
        <time>2024-05-10T11:02:34Z</time>
      </trkpt>
      <trkpt lat="46.56139" lon="6.08453">
        <ele>1145.6</ele>
        <time>2024-05-10T11:02:45Z</time>
      </trkpt>
      <trkpt lat="46.56127" lon="6.08472">
        <ele>1147.3</ele>
        <time>2024-05-10T11:02:55Z</time>
      </trkpt>
      <trkpt lat="46.56117" lon="6.08496">
        <ele>1149.1</ele>
        <time>2024-05-10T11:03:05Z</time>
      </trkpt>
      <trkpt lat="46.56109" lon="6.08524">
        <ele>1150.9</ele>
        <time>2024-05-10T11:03:16Z</time>
      </trkpt>
      <trkpt lat="46.56089" lon="6.08542">
        <ele>1152.5</ele>
        <time>2024-05-10T11:03:27Z</time>
      </trkpt>
      <trkpt lat="46.56067" lon="6.08548">
        <ele>1153.8</ele>
        <time>2024-05-10T11:03:37Z</time>
      </trkpt>
      <trkpt lat="46.56046" lon="6.0854">
        <ele>1155.1</ele>
        <time>2024-05-10T11:03:47Z</time>
      </trkpt>
      <trkpt lat="46.56026" lon="6.08526">
        <ele>1156.7</ele>
        <time>2024-05-10T11:03:58Z</time>
      </trkpt>
      <trkpt lat="46.56011" lon="6.08506">
        <ele>1158.3</ele>
        <time>2024-05-10T11:04:09Z</time>
      </trkpt>
      <trkpt lat="46.55995" lon="6.08492">
        <ele>1160</ele>
        <time>2024-05-10T11:04:19Z</time>
      </trkpt>
      <trkpt lat="46.55977" lon="6.0849">
        <ele>1161.6</ele>
        <time>2024-05-10T11:04:29Z</time>
      </trkpt>
      <trkpt lat="46.55956" lon="6.08493">
        <ele>1163.4</ele>
        <time>2024-05-10T11:04:40Z</time>
      </trkpt>
      <trkpt lat="46.55939" lon="6.08483">
        <ele>1165</ele>
        <time>2024-05-10T11:04:50Z</time>
      </trkpt>
      <trkpt lat="46.55923" lon="6.08466">
        <ele>1166.8</ele>
        <time>2024-05-10T11:05:01Z</time>
      </trkpt>
      <trkpt lat="46.55908" lon="6.08451">
        <ele>1168.6</ele>
        <time>2024-05-10T11:05:11Z</time>
      </trkpt>
      <trkpt lat="46.5589" lon="6.08439">
        <ele>1170.4</ele>
        <time>2024-05-10T11:05:21Z</time>
      </trkpt>
      <trkpt lat="46.55874" lon="6.08424">
        <ele>1172.3</ele>
        <time>2024-05-10T11:05:32Z</time>
      </trkpt>
      <trkpt lat="46.55858" lon="6.08406">
        <ele>1174.2</ele>
        <time>2024-05-10T11:05:44Z</time>
      </trkpt>
      <trkpt lat="46.55839" lon="6.08392">
        <ele>1176.3</ele>
        <time>2024-05-10T11:05:54Z</time>
      </trkpt>
      <trkpt lat="46.55832" lon="6.08388">
        <ele>1177.1</ele>
        <time>2024-05-10T11:06:05Z</time>
      </trkpt>
      <trkpt lat="46.55832" lon="6.08388">
        <ele>1177.1</ele>
        <time>2024-05-10T11:06:16Z</time>
      </trkpt>
      <trkpt lat="46.55832" lon="6.08388">
        <ele>1177.1</ele>
        <time>2024-05-10T11:06:26Z</time>
      </trkpt>
      <trkpt lat="46.55832" lon="6.08388">
        <ele>1177.1</ele>
        <time>2024-05-10T11:06:36Z</time>
      </trkpt>
      <trkpt lat="46.55832" lon="6.08388">
        <ele>1177.1</ele>
        <time>2024-05-10T11:06:46Z</time>
      </trkpt>
      <trkpt lat="46.55832" lon="6.08388">
        <ele>1177.1</ele>
        <time>2024-05-10T11:06:57Z</time>
      </trkpt>
      <trkpt lat="46.55832" lon="6.08388">
        <ele>1177.1</ele>
        <time>2024-05-10T11:07:08Z</time>
      </trkpt>
      <trkpt lat="46.55829" lon="6.08386">
        <ele>1177.4</ele>
        <time>2024-05-10T11:07:18Z</time>
      </trkpt>
      <trkpt lat="46.5583" lon="6.08386">
        <ele>1177.4</ele>
        <time>2024-05-10T11:07:28Z</time>
      </trkpt>
      <trkpt lat="46.5583" lon="6.08386">
        <ele>1177.4</ele>
        <time>2024-05-10T11:07:39Z</time>
      </trkpt>
      <trkpt lat="46.5583" lon="6.08386">
        <ele>1177.4</ele>
        <time>2024-05-10T11:07:49Z</time>
      </trkpt>
      <trkpt lat="46.5583" lon="6.08386">
        <ele>1177.4</ele>
        <time>2024-05-10T11:08:00Z</time>
      </trkpt>
      <trkpt lat="46.5583" lon="6.08386">
        <ele>1177.4</ele>
        <time>2024-05-10T11:08:10Z</time>
      </trkpt>
      <trkpt lat="46.5583" lon="6.08386">
        <ele>1177.4</ele>
        <time>2024-05-10T11:08:20Z</time>
      </trkpt>
      <trkpt lat="46.5583" lon="6.08386">
        <ele>1177.4</ele>
        <time>2024-05-10T11:08:31Z</time>
      </trkpt>
      <trkpt lat="46.5583" lon="6.08386">
        <ele>1177.4</ele>
        <time>2024-05-10T11:08:42Z</time>
      </trkpt>
      <trkpt lat="46.5583" lon="6.08386">
        <ele>1177.4</ele>
        <time>2024-05-10T11:08:53Z</time>
      </trkpt>
      <trkpt lat="46.5583" lon="6.08386">
        <ele>1177.4</ele>
        <time>2024-05-10T11:09:03Z</time>
      </trkpt>
      <trkpt lat="46.5583" lon="6.08386">
        <ele>1177.4</ele>
        <time>2024-05-10T11:09:14Z</time>
      </trkpt>
      <trkpt lat="46.5583" lon="6.08386">
        <ele>1177.4</ele>
        <time>2024-05-10T11:09:24Z</time>
      </trkpt>
      <trkpt lat="46.5583" lon="6.08386">
        <ele>1177.4</ele>
        <time>2024-05-10T11:09:35Z</time>
      </trkpt>
      <trkpt lat="46.5583" lon="6.08386">
        <ele>1177.4</ele>
        <time>2024-05-10T11:09:46Z</time>
      </trkpt>
      <trkpt lat="46.5583" lon="6.08386">
        <ele>1177.4</ele>
        <time>2024-05-10T11:09:56Z</time>
      </trkpt>
      <trkpt lat="46.5583" lon="6.08386">
        <ele>1177.4</ele>
        <time>2024-05-10T11:10:06Z</time>
      </trkpt>
      <trkpt lat="46.5583" lon="6.08386">
        <ele>1177.4</ele>
        <time>2024-05-10T11:10:17Z</time>
      </trkpt>
      <trkpt lat="46.5583" lon="6.08386">
        <ele>1177.4</ele>
        <time>2024-05-10T11:10:27Z</time>
      </trkpt>
      <trkpt lat="46.5583" lon="6.08386">
        <ele>1177.4</ele>
        <time>2024-05-10T11:10:38Z</time>
      </trkpt>
      <trkpt lat="46.5583" lon="6.08386">
        <ele>1177.4</ele>
        <time>2024-05-10T11:10:48Z</time>
      </trkpt>
      <trkpt lat="46.5583" lon="6.08386">
        <ele>1177.4</ele>
        <time>2024-05-10T11:10:59Z</time>
      </trkpt>
      <trkpt lat="46.5583" lon="6.08386">
        <ele>1177.4</ele>
        <time>2024-05-10T11:11:10Z</time>
      </trkpt>
      <trkpt lat="46.5583" lon="6.08386">
        <ele>1177.4</ele>
        <time>2024-05-10T11:11:21Z</time>
      </trkpt>
      <trkpt lat="46.5583" lon="6.08386">
        <ele>1177.4</ele>
        <time>2024-05-10T11:11:31Z</time>
      </trkpt>
      <trkpt lat="46.5583" lon="6.08386">
        <ele>1177.4</ele>
        <time>2024-05-10T11:11:42Z</time>
      </trkpt>
      <trkpt lat="46.5583" lon="6.08386">
        <ele>1177.4</ele>
        <time>2024-05-10T11:11:53Z</time>
      </trkpt>
      <trkpt lat="46.5583" lon="6.08386">
        <ele>1177.4</ele>
        <time>2024-05-10T11:12:03Z</time>
      </trkpt>
      <trkpt lat="46.5583" lon="6.08386">
        <ele>1177.4</ele>
        <time>2024-05-10T11:12:13Z</time>
      </trkpt>
      <trkpt lat="46.5583" lon="6.08386">
        <ele>1177.4</ele>
        <time>2024-05-10T11:12:23Z</time>
      </trkpt>
      <trkpt lat="46.5583" lon="6.08386">
        <ele>1177.4</ele>
        <time>2024-05-10T11:12:34Z</time>
      </trkpt>
      <trkpt lat="46.5583" lon="6.08386">
        <ele>1177.4</ele>
        <time>2024-05-10T11:12:45Z</time>
      </trkpt>
      <trkpt lat="46.5583" lon="6.08386">
        <ele>1177.4</ele>
        <time>2024-05-10T11:12:55Z</time>
      </trkpt>
      <trkpt lat="46.5583" lon="6.08386">
        <ele>1177.4</ele>
        <time>2024-05-10T11:13:06Z</time>
      </trkpt>
      <trkpt lat="46.55829" lon="6.08386">
        <ele>1177.4</ele>
        <time>2024-05-10T11:13:17Z</time>
      </trkpt>
      <trkpt lat="46.55829" lon="6.08386">
        <ele>1177.4</ele>
        <time>2024-05-10T11:13:28Z</time>
      </trkpt>
      <trkpt lat="46.55829" lon="6.08386">
        <ele>1177.4</ele>
        <time>2024-05-10T11:13:38Z</time>
      </trkpt>
      <trkpt lat="46.55829" lon="6.08386">
        <ele>1177.4</ele>
        <time>2024-05-10T11:13:49Z</time>
      </trkpt>
      <trkpt lat="46.55829" lon="6.08386">
        <ele>1177.4</ele>
        <time>2024-05-10T11:13:59Z</time>
      </trkpt>
      <trkpt lat="46.55829" lon="6.08386">
        <ele>1177.4</ele>
        <time>2024-05-10T11:14:10Z</time>
      </trkpt>
      <trkpt lat="46.55829" lon="6.08386">
        <ele>1177.5</ele>
        <time>2024-05-10T11:14:20Z</time>
      </trkpt>
      <trkpt lat="46.55829" lon="6.08386">
        <ele>1177.5</ele>
        <time>2024-05-10T11:14:31Z</time>
      </trkpt>
      <trkpt lat="46.55829" lon="6.08386">
        <ele>1177.5</ele>
        <time>2024-05-10T11:14:41Z</time>
      </trkpt>
      <trkpt lat="46.55829" lon="6.08386">
        <ele>1177.5</ele>
        <time>2024-05-10T11:14:52Z</time>
      </trkpt>
      <trkpt lat="46.55829" lon="6.08386">
        <ele>1177.5</ele>
        <time>2024-05-10T11:15:03Z</time>
      </trkpt>
      <trkpt lat="46.55829" lon="6.08386">
        <ele>1177.5</ele>
        <time>2024-05-10T11:15:13Z</time>
      </trkpt>
      <trkpt lat="46.55829" lon="6.08386">
        <ele>1177.5</ele>
        <time>2024-05-10T11:15:23Z</time>
      </trkpt>
      <trkpt lat="46.55829" lon="6.08386">
        <ele>1177.5</ele>
        <time>2024-05-10T11:15:34Z</time>
      </trkpt>
      <trkpt lat="46.55829" lon="6.08386">
        <ele>1177.5</ele>
        <time>2024-05-10T11:15:44Z</time>
      </trkpt>
      <trkpt lat="46.55829" lon="6.08386">
        <ele>1177.5</ele>
        <time>2024-05-10T11:15:54Z</time>
      </trkpt>
      <trkpt lat="46.55829" lon="6.08386">
        <ele>1177.5</ele>
        <time>2024-05-10T11:16:05Z</time>
      </trkpt>
      <trkpt lat="46.55829" lon="6.08386">
        <ele>1177.5</ele>
        <time>2024-05-10T11:16:15Z</time>
      </trkpt>
      <trkpt lat="46.55811" lon="6.08387">
        <ele>1179.2</ele>
        <time>2024-05-10T11:16:26Z</time>
      </trkpt>
      <trkpt lat="46.55787" lon="6.08387">
        <ele>1181.5</ele>
        <time>2024-05-10T11:16:37Z</time>
      </trkpt>
      <trkpt lat="46.55765" lon="6.08387">
        <ele>1183.6</ele>
        <time>2024-05-10T11:16:48Z</time>
      </trkpt>
      <trkpt lat="46.55744" lon="6.08373">
        <ele>1186</ele>
        <time>2024-05-10T11:16:59Z</time>
      </trkpt>
      <trkpt lat="46.55721" lon="6.08368">
        <ele>1188.3</ele>
        <time>2024-05-10T11:17:10Z</time>
      </trkpt>
      <trkpt lat="46.5571" lon="6.08391">
        <ele>1190.2</ele>
        <time>2024-05-10T11:17:20Z</time>
      </trkpt>
      <trkpt lat="46.55718" lon="6.08414">
        <ele>1191.8</ele>
        <time>2024-05-10T11:17:30Z</time>
      </trkpt>
      <trkpt lat="46.5574" lon="6.08419">
        <ele>1193.1</ele>
        <time>2024-05-10T11:17:40Z</time>
      </trkpt>
      <trkpt lat="46.55767" lon="6.08427">
        <ele>1194.2</ele>
        <time>2024-05-10T11:17:50Z</time>
      </trkpt>
      <trkpt lat="46.55793" lon="6.08442">
        <ele>1195.9</ele>
        <time>2024-05-10T11:18:01Z</time>
      </trkpt>
      <trkpt lat="46.55792" lon="6.0847">
        <ele>1197.6</ele>
        <time>2024-05-10T11:18:12Z</time>
      </trkpt>
      <trkpt lat="46.55772" lon="6.08474">
        <ele>1199.4</ele>
        <time>2024-05-10T11:18:23Z</time>
      </trkpt>
      <trkpt lat="46.55749" lon="6.08468">
        <ele>1201.4</ele>
        <time>2024-05-10T11:18:34Z</time>
      </trkpt>
      <trkpt lat="46.55727" lon="6.08457">
        <ele>1203.5</ele>
        <time>2024-05-10T11:18:45Z</time>
      </trkpt>
      <trkpt lat="46.55707" lon="6.08441">
        <ele>1205.5</ele>
        <time>2024-05-10T11:18:56Z</time>
      </trkpt>
      <trkpt lat="46.55684" lon="6.08429">
        <ele>1207.9</ele>
        <time>2024-05-10T11:19:07Z</time>
      </trkpt>
      <trkpt lat="46.55665" lon="6.08422">
        <ele>1210</ele>
        <time>2024-05-10T11:19:17Z</time>
      </trkpt>
      <trkpt lat="46.55643" lon="6.08418">
        <ele>1212.2</ele>
        <time>2024-05-10T11:19:27Z</time>
      </trkpt>
      <trkpt lat="46.55621" lon="6.08411">
        <ele>1214.5</ele>
        <time>2024-05-10T11:19:38Z</time>
      </trkpt>
      <trkpt lat="46.55603" lon="6.08398">
        <ele>1216.6</ele>
        <time>2024-05-10T11:19:49Z</time>
      </trkpt>
      <trkpt lat="46.55592" lon="6.08395">
        <ele>1217.8</ele>
        <time>2024-05-10T11:20:00Z</time>
      </trkpt>
      <trkpt lat="46.55592" lon="6.08394">
        <ele>1217.9</ele>
        <time>2024-05-10T11:20:11Z</time>
      </trkpt>
      <trkpt lat="46.55592" lon="6.08393">
        <ele>1218</ele>
        <time>2024-05-10T11:20:22Z</time>
      </trkpt>
      <trkpt lat="46.55592" lon="6.08393">
        <ele>1218</ele>
        <time>2024-05-10T11:20:32Z</time>
      </trkpt>
      <trkpt lat="46.55592" lon="6.08393">
        <ele>1218</ele>
        <time>2024-05-10T11:20:43Z</time>
      </trkpt>
      <trkpt lat="46.55581" lon="6.084">
        <ele>1219.3</ele>
        <time>2024-05-10T11:20:54Z</time>
      </trkpt>
      <trkpt lat="46.55564" lon="6.08422">
        <ele>1221.7</ele>
        <time>2024-05-10T11:21:05Z</time>
      </trkpt>
      <trkpt lat="46.55546" lon="6.08462">
        <ele>1224</ele>
        <time>2024-05-10T11:21:16Z</time>
      </trkpt>
      <trkpt lat="46.55527" lon="6.08499">
        <ele>1226.2</ele>
        <time>2024-05-10T11:21:27Z</time>
      </trkpt>
      <trkpt lat="46.55479" lon="6.08526">
        <ele>1227.8</ele>
        <time>2024-05-10T11:21:38Z</time>
      </trkpt>
      <trkpt lat="46.55436" lon="6.08559">
        <ele>1229.5</ele>
        <time>2024-05-10T11:21:48Z</time>
      </trkpt>
      <trkpt lat="46.55409" lon="6.08621">
        <ele>1230.4</ele>
        <time>2024-05-10T11:21:58Z</time>
      </trkpt>
      <trkpt lat="46.55377" lon="6.08673">
        <ele>1230.3</ele>
        <time>2024-05-10T11:22:08Z</time>
      </trkpt>
      <trkpt lat="46.55316" lon="6.08721">
        <ele>1226.7</ele>
        <time>2024-05-10T11:22:19Z</time>
      </trkpt>
      <trkpt lat="46.55239" lon="6.08771">
        <ele>1224.8</ele>
        <time>2024-05-10T11:22:30Z</time>
      </trkpt>
      <trkpt lat="46.55165" lon="6.08777">
        <ele>1224.8</ele>
        <time>2024-05-10T11:22:40Z</time>
      </trkpt>
      <trkpt lat="46.55101" lon="6.08823">
        <ele>1223.9</ele>
        <time>2024-05-10T11:22:50Z</time>
      </trkpt>
      <trkpt lat="46.55025" lon="6.08839">
        <ele>1225.5</ele>
        <time>2024-05-10T11:23:01Z</time>
      </trkpt>
      <trkpt lat="46.5498" lon="6.08882">
        <ele>1227.5</ele>
        <time>2024-05-10T11:23:12Z</time>
      </trkpt>
      <trkpt lat="46.54944" lon="6.08921">
        <ele>1228.7</ele>
        <time>2024-05-10T11:23:22Z</time>
      </trkpt>
      <trkpt lat="46.54907" lon="6.08958">
        <ele>1230.8</ele>
        <time>2024-05-10T11:23:32Z</time>
      </trkpt>
      <trkpt lat="46.54885" lon="6.0898">
        <ele>1234</ele>
        <time>2024-05-10T11:23:44Z</time>
      </trkpt>
      <trkpt lat="46.54867" lon="6.0901">
        <ele>1237.1</ele>
        <time>2024-05-10T11:23:54Z</time>
      </trkpt>
      <trkpt lat="46.54846" lon="6.09044">
        <ele>1239.4</ele>
        <time>2024-05-10T11:24:05Z</time>
      </trkpt>
      <trkpt lat="46.54823" lon="6.09075">
        <ele>1240.7</ele>
        <time>2024-05-10T11:24:16Z</time>
      </trkpt>
      <trkpt lat="46.54795" lon="6.09097">
        <ele>1242.4</ele>
        <time>2024-05-10T11:24:27Z</time>
      </trkpt>
      <trkpt lat="46.5477" lon="6.09117">
        <ele>1244.8</ele>
        <time>2024-05-10T11:24:38Z</time>
      </trkpt>
      <trkpt lat="46.54744" lon="6.09136">
        <ele>1247.4</ele>
        <time>2024-05-10T11:24:49Z</time>
      </trkpt>
      <trkpt lat="46.54719" lon="6.09148">
        <ele>1249.8</ele>
        <time>2024-05-10T11:24:59Z</time>
      </trkpt>
      <trkpt lat="46.54699" lon="6.09176">
        <ele>1251.4</ele>
        <time>2024-05-10T11:25:09Z</time>
      </trkpt>
      <trkpt lat="46.5468" lon="6.09232">
        <ele>1250.5</ele>
        <time>2024-05-10T11:25:20Z</time>
      </trkpt>
      <trkpt lat="46.54621" lon="6.09283">
        <ele>1244</ele>
        <time>2024-05-10T11:25:30Z</time>
      </trkpt>
      <trkpt lat="46.546" lon="6.09392">
        <ele>1235.3</ele>
        <time>2024-05-10T11:25:41Z</time>
      </trkpt>
      <trkpt lat="46.54535" lon="6.09426">
        <ele>1228.6</ele>
        <time>2024-05-10T11:25:52Z</time>
      </trkpt>
      <trkpt lat="46.54562" lon="6.09478">
        <ele>1226.9</ele>
        <time>2024-05-10T11:26:02Z</time>
      </trkpt>
      <trkpt lat="46.54562" lon="6.09595">
        <ele>1223.1</ele>
        <time>2024-05-10T11:26:13Z</time>
      </trkpt>
      <trkpt lat="46.54551" lon="6.09702">
        <ele>1222.3</ele>
        <time>2024-05-10T11:26:23Z</time>
      </trkpt>
      <trkpt lat="46.54553" lon="6.09756">
        <ele>1222.4</ele>
        <time>2024-05-10T11:26:34Z</time>
      </trkpt>
      <trkpt lat="46.54542" lon="6.09782">
        <ele>1221.1</ele>
        <time>2024-05-10T11:26:45Z</time>
      </trkpt>
      <trkpt lat="46.54508" lon="6.09846">
        <ele>1219.3</ele>
        <time>2024-05-10T11:26:55Z</time>
      </trkpt>
      <trkpt lat="46.54475" lon="6.09909">
        <ele>1216.4</ele>
        <time>2024-05-10T11:27:05Z</time>
      </trkpt>
      <trkpt lat="46.54426" lon="6.09948">
        <ele>1215.5</ele>
        <time>2024-05-10T11:27:16Z</time>
      </trkpt>
      <trkpt lat="46.54406" lon="6.10016">
        <ele>1216.6</ele>
        <time>2024-05-10T11:27:27Z</time>
      </trkpt>
      <trkpt lat="46.54361" lon="6.10064">
        <ele>1214.5</ele>
        <time>2024-05-10T11:27:37Z</time>
      </trkpt>
      <trkpt lat="46.54312" lon="6.10108">
        <ele>1210</ele>
        <time>2024-05-10T11:27:47Z</time>
      </trkpt>
      <trkpt lat="46.54283" lon="6.10123">
        <ele>1206.1</ele>
        <time>2024-05-10T11:27:58Z</time>
      </trkpt>
      <trkpt lat="46.54219" lon="6.10152">
        <ele>1203</ele>
        <time>2024-05-10T11:28:08Z</time>
      </trkpt>
      <trkpt lat="46.54159" lon="6.10181">
        <ele>1203.9</ele>
        <time>2024-05-10T11:28:19Z</time>
      </trkpt>
      <trkpt lat="46.54095" lon="6.10205">
        <ele>1201.7</ele>
        <time>2024-05-10T11:28:29Z</time>
      </trkpt>
      <trkpt lat="46.54063" lon="6.10208">
        <ele>1204.3</ele>
        <time>2024-05-10T11:28:39Z</time>
      </trkpt>
      <trkpt lat="46.54032" lon="6.10222">
        <ele>1206.5</ele>
        <time>2024-05-10T11:28:50Z</time>
      </trkpt>
      <trkpt lat="46.54002" lon="6.10234">
        <ele>1208.5</ele>
        <time>2024-05-10T11:29:00Z</time>
      </trkpt>
      <trkpt lat="46.53972" lon="6.10244">
        <ele>1210.6</ele>
        <time>2024-05-10T11:29:11Z</time>
      </trkpt>
      <trkpt lat="46.53937" lon="6.1024">
        <ele>1211.7</ele>
        <time>2024-05-10T11:29:22Z</time>
      </trkpt>
      <trkpt lat="46.53892" lon="6.10213">
        <ele>1212.2</ele>
        <time>2024-05-10T11:29:32Z</time>
      </trkpt>
      <trkpt lat="46.53856" lon="6.10203">
        <ele>1214.8</ele>
        <time>2024-05-10T11:29:42Z</time>
      </trkpt>
      <trkpt lat="46.53829" lon="6.10164">
        <ele>1216</ele>
        <time>2024-05-10T11:29:53Z</time>
      </trkpt>
      <trkpt lat="46.53779" lon="6.10142">
        <ele>1213.9</ele>
        <time>2024-05-10T11:30:04Z</time>
      </trkpt>
      <trkpt lat="46.53718" lon="6.10156">
        <ele>1213.9</ele>
        <time>2024-05-10T11:30:15Z</time>
      </trkpt>
      <trkpt lat="46.5368" lon="6.10175">
        <ele>1216.4</ele>
        <time>2024-05-10T11:30:25Z</time>
      </trkpt>
      <trkpt lat="46.53637" lon="6.10185">
        <ele>1216.6</ele>
        <time>2024-05-10T11:30:36Z</time>
      </trkpt>
      <trkpt lat="46.53598" lon="6.10158">
        <ele>1218.9</ele>
        <time>2024-05-10T11:30:46Z</time>
      </trkpt>
      <trkpt lat="46.53579" lon="6.10124">
        <ele>1220.6</ele>
        <time>2024-05-10T11:30:56Z</time>
      </trkpt>
      <trkpt lat="46.53559" lon="6.10089">
        <ele>1222.3</ele>
        <time>2024-05-10T11:31:07Z</time>
      </trkpt>
      <trkpt lat="46.53529" lon="6.10067">
        <ele>1225</ele>
        <time>2024-05-10T11:31:18Z</time>
      </trkpt>
      <trkpt lat="46.53498" lon="6.10072">
        <ele>1227.6</ele>
        <time>2024-05-10T11:31:29Z</time>
      </trkpt>
      <trkpt lat="46.53465" lon="6.10085">
        <ele>1229</ele>
        <time>2024-05-10T11:31:40Z</time>
      </trkpt>
      <trkpt lat="46.53419" lon="6.10087">
        <ele>1228.4</ele>
        <time>2024-05-10T11:31:50Z</time>
      </trkpt>
      <trkpt lat="46.53375" lon="6.10039">
        <ele>1226.7</ele>
        <time>2024-05-10T11:32:01Z</time>
      </trkpt>
      <trkpt lat="46.53343" lon="6.09959">
        <ele>1226.1</ele>
        <time>2024-05-10T11:32:12Z</time>
      </trkpt>
      <trkpt lat="46.53315" lon="6.099">
        <ele>1228.4</ele>
        <time>2024-05-10T11:32:22Z</time>
      </trkpt>
      <trkpt lat="46.53299" lon="6.09864">
        <ele>1230</ele>
        <time>2024-05-10T11:32:32Z</time>
      </trkpt>
      <trkpt lat="46.53275" lon="6.09814">
        <ele>1231.3</ele>
        <time>2024-05-10T11:32:42Z</time>
      </trkpt>
      <trkpt lat="46.53252" lon="6.09764">
        <ele>1232.9</ele>
        <time>2024-05-10T11:32:52Z</time>
      </trkpt>
      <trkpt lat="46.5323" lon="6.09728">
        <ele>1234.1</ele>
        <time>2024-05-10T11:33:02Z</time>
      </trkpt>
      <trkpt lat="46.53203" lon="6.09685">
        <ele>1235.8</ele>
        <time>2024-05-10T11:33:13Z</time>
      </trkpt>
      <trkpt lat="46.53184" lon="6.09659">
        <ele>1237.4</ele>
        <time>2024-05-10T11:33:24Z</time>
      </trkpt>
      <trkpt lat="46.53156" lon="6.09623">
        <ele>1238.2</ele>
        <time>2024-05-10T11:33:34Z</time>
      </trkpt>
      <trkpt lat="46.5313" lon="6.09585">
        <ele>1239.3</ele>
        <time>2024-05-10T11:33:45Z</time>
      </trkpt>
      <trkpt lat="46.53108" lon="6.09548">
        <ele>1240.8</ele>
        <time>2024-05-10T11:33:56Z</time>
      </trkpt>
      <trkpt lat="46.53086" lon="6.09514">
        <ele>1242.3</ele>
        <time>2024-05-10T11:34:07Z</time>
      </trkpt>
      <trkpt lat="46.53058" lon="6.09491">
        <ele>1244.1</ele>
        <time>2024-05-10T11:34:18Z</time>
      </trkpt>
      <trkpt lat="46.53039" lon="6.09474">
        <ele>1245.9</ele>
        <time>2024-05-10T11:34:28Z</time>
      </trkpt>
      <trkpt lat="46.53021" lon="6.09461">
        <ele>1248.1</ele>
        <time>2024-05-10T11:34:39Z</time>
      </trkpt>
      <trkpt lat="46.53003" lon="6.09446">
        <ele>1250.2</ele>
        <time>2024-05-10T11:34:50Z</time>
      </trkpt>
      <trkpt lat="46.52982" lon="6.09429">
        <ele>1251.9</ele>
        <time>2024-05-10T11:35:01Z</time>
      </trkpt>
      <trkpt lat="46.52964" lon="6.09407">
        <ele>1253.4</ele>
        <time>2024-05-10T11:35:11Z</time>
      </trkpt>
      <trkpt lat="46.52945" lon="6.09385">
        <ele>1255.1</ele>
        <time>2024-05-10T11:35:22Z</time>
      </trkpt>
      <trkpt lat="46.52926" lon="6.09367">
        <ele>1257.2</ele>
        <time>2024-05-10T11:35:32Z</time>
      </trkpt>
      <trkpt lat="46.52905" lon="6.09358">
        <ele>1259.1</ele>
        <time>2024-05-10T11:35:42Z</time>
      </trkpt>
      <trkpt lat="46.529" lon="6.09359">
        <ele>1259.8</ele>
        <time>2024-05-10T11:35:53Z</time>
      </trkpt>
      <trkpt lat="46.529" lon="6.09359">
        <ele>1259.8</ele>
        <time>2024-05-10T11:36:04Z</time>
      </trkpt>
      <trkpt lat="46.529" lon="6.09359">
        <ele>1259.8</ele>
        <time>2024-05-10T11:36:14Z</time>
      </trkpt>
      <trkpt lat="46.529" lon="6.09359">
        <ele>1259.8</ele>
        <time>2024-05-10T11:36:25Z</time>
      </trkpt>
      <trkpt lat="46.529" lon="6.09359">
        <ele>1259.8</ele>
        <time>2024-05-10T11:36:35Z</time>
      </trkpt>
      <trkpt lat="46.52899" lon="6.09352">
        <ele>1259.4</ele>
        <time>2024-05-10T11:36:45Z</time>
      </trkpt>
      <trkpt lat="46.52899" lon="6.09351">
        <ele>1259.3</ele>
        <time>2024-05-10T11:36:55Z</time>
      </trkpt>
      <trkpt lat="46.52899" lon="6.09351">
        <ele>1259.3</ele>
        <time>2024-05-10T11:37:06Z</time>
      </trkpt>
      <trkpt lat="46.52899" lon="6.0935">
        <ele>1259.3</ele>
        <time>2024-05-10T11:37:16Z</time>
      </trkpt>
      <trkpt lat="46.52899" lon="6.0935">
        <ele>1259.3</ele>
        <time>2024-05-10T11:37:27Z</time>
      </trkpt>
      <trkpt lat="46.52899" lon="6.0935">
        <ele>1259.3</ele>
        <time>2024-05-10T11:37:38Z</time>
      </trkpt>
      <trkpt lat="46.52899" lon="6.0935">
        <ele>1259.3</ele>
        <time>2024-05-10T11:37:48Z</time>
      </trkpt>
      <trkpt lat="46.52897" lon="6.09353">
        <ele>1259.1</ele>
        <time>2024-05-10T11:37:59Z</time>
      </trkpt>
      <trkpt lat="46.52897" lon="6.09353">
        <ele>1259.1</ele>
        <time>2024-05-10T11:38:09Z</time>
      </trkpt>
      <trkpt lat="46.52897" lon="6.09353">
        <ele>1259.1</ele>
        <time>2024-05-10T11:38:20Z</time>
      </trkpt>
      <trkpt lat="46.52886" lon="6.09331">
        <ele>1257.6</ele>
        <time>2024-05-10T11:38:31Z</time>
      </trkpt>
      <trkpt lat="46.52854" lon="6.09234">
        <ele>1251.6</ele>
        <time>2024-05-10T11:38:42Z</time>
      </trkpt>
      <trkpt lat="46.52796" lon="6.09136">
        <ele>1250.5</ele>
        <time>2024-05-10T11:38:52Z</time>
      </trkpt>
      <trkpt lat="46.52732" lon="6.09074">
        <ele>1247.7</ele>
        <time>2024-05-10T11:39:03Z</time>
      </trkpt>
      <trkpt lat="46.52658" lon="6.08976">
        <ele>1238.8</ele>
        <time>2024-05-10T11:39:14Z</time>
      </trkpt>
      <trkpt lat="46.52623" lon="6.08925">
        <ele>1236.8</ele>
        <time>2024-05-10T11:39:25Z</time>
      </trkpt>
      <trkpt lat="46.52624" lon="6.08924">
        <ele>1236.8</ele>
        <time>2024-05-10T11:39:35Z</time>
      </trkpt>
      <trkpt lat="46.52625" lon="6.08924">
        <ele>1236.8</ele>
        <time>2024-05-10T11:39:46Z</time>
      </trkpt>
      <trkpt lat="46.52626" lon="6.08923">
        <ele>1236.8</ele>
        <time>2024-05-10T11:39:57Z</time>
      </trkpt>
      <trkpt lat="46.52626" lon="6.08924">
        <ele>1236.8</ele>
        <time>2024-05-10T11:40:07Z</time>
      </trkpt>
      <trkpt lat="46.52626" lon="6.08924">
        <ele>1236.8</ele>
        <time>2024-05-10T11:40:18Z</time>
      </trkpt>
      <trkpt lat="46.52626" lon="6.08924">
        <ele>1236.8</ele>
        <time>2024-05-10T11:40:28Z</time>
      </trkpt>
      <trkpt lat="46.52623" lon="6.08921">
        <ele>1236.8</ele>
        <time>2024-05-10T11:40:38Z</time>
      </trkpt>
      <trkpt lat="46.52612" lon="6.0893">
        <ele>1237.3</ele>
        <time>2024-05-10T11:40:49Z</time>
      </trkpt>
      <trkpt lat="46.52585" lon="6.08906">
        <ele>1238.6</ele>
        <time>2024-05-10T11:40:59Z</time>
      </trkpt>
      <trkpt lat="46.52558" lon="6.08864">
        <ele>1238.8</ele>
        <time>2024-05-10T11:41:09Z</time>
      </trkpt>
      <trkpt lat="46.52519" lon="6.08815">
        <ele>1238.3</ele>
        <time>2024-05-10T11:41:20Z</time>
      </trkpt>
      <trkpt lat="46.52483" lon="6.08775">
        <ele>1240.3</ele>
        <time>2024-05-10T11:41:30Z</time>
      </trkpt>
      <trkpt lat="46.52466" lon="6.08746">
        <ele>1242.8</ele>
        <time>2024-05-10T11:41:40Z</time>
      </trkpt>
      <trkpt lat="46.52447" lon="6.08712">
        <ele>1245.5</ele>
        <time>2024-05-10T11:41:51Z</time>
      </trkpt>
      <trkpt lat="46.52436" lon="6.08666">
        <ele>1246.6</ele>
        <time>2024-05-10T11:42:02Z</time>
      </trkpt>
      <trkpt lat="46.52417" lon="6.08624">
        <ele>1248.2</ele>
        <time>2024-05-10T11:42:13Z</time>
      </trkpt>
      <trkpt lat="46.52391" lon="6.08588">
        <ele>1248.6</ele>
        <time>2024-05-10T11:42:23Z</time>
      </trkpt>
      <trkpt lat="46.52345" lon="6.08543">
        <ele>1247</ele>
        <time>2024-05-10T11:42:34Z</time>
      </trkpt>
      <trkpt lat="46.52298" lon="6.08473">
        <ele>1246.2</ele>
        <time>2024-05-10T11:42:45Z</time>
      </trkpt>
      <trkpt lat="46.52255" lon="6.0842">
        <ele>1247.4</ele>
        <time>2024-05-10T11:42:55Z</time>
      </trkpt>
      <trkpt lat="46.52213" lon="6.08356">
        <ele>1245.3</ele>
        <time>2024-05-10T11:43:05Z</time>
      </trkpt>
      <trkpt lat="46.52148" lon="6.08302">
        <ele>1242.4</ele>
        <time>2024-05-10T11:43:16Z</time>
      </trkpt>
      <trkpt lat="46.5212" lon="6.08239">
        <ele>1238.7</ele>
        <time>2024-05-10T11:43:26Z</time>
      </trkpt>
      <trkpt lat="46.52062" lon="6.08192">
        <ele>1234.2</ele>
        <time>2024-05-10T11:43:37Z</time>
      </trkpt>
      <trkpt lat="46.52028" lon="6.08099">
        <ele>1235.2</ele>
        <time>2024-05-10T11:43:48Z</time>
      </trkpt>
      <trkpt lat="46.51985" lon="6.08036">
        <ele>1236</ele>
        <time>2024-05-10T11:43:59Z</time>
      </trkpt>
      <trkpt lat="46.51942" lon="6.07976">
        <ele>1235.2</ele>
        <time>2024-05-10T11:44:09Z</time>
      </trkpt>
      <trkpt lat="46.51901" lon="6.07908">
        <ele>1237.8</ele>
        <time>2024-05-10T11:44:20Z</time>
      </trkpt>
      <trkpt lat="46.51889" lon="6.07877">
        <ele>1240.1</ele>
        <time>2024-05-10T11:44:30Z</time>
      </trkpt>
      <trkpt lat="46.51884" lon="6.07841">
        <ele>1242</ele>
        <time>2024-05-10T11:44:41Z</time>
      </trkpt>
      <trkpt lat="46.51867" lon="6.07811">
        <ele>1243.4</ele>
        <time>2024-05-10T11:44:52Z</time>
      </trkpt>
      <trkpt lat="46.5184" lon="6.07816">
        <ele>1244.7</ele>
        <time>2024-05-10T11:45:02Z</time>
      </trkpt>
      <trkpt lat="46.51823" lon="6.07859">
        <ele>1246.6</ele>
        <time>2024-05-10T11:45:13Z</time>
      </trkpt>
      <trkpt lat="46.51806" lon="6.07889">
        <ele>1248.1</ele>
        <time>2024-05-10T11:45:23Z</time>
      </trkpt>
      <trkpt lat="46.51779" lon="6.07894">
        <ele>1249.6</ele>
        <time>2024-05-10T11:45:34Z</time>
      </trkpt>
      <trkpt lat="46.51752" lon="6.07879">
        <ele>1250.9</ele>
        <time>2024-05-10T11:45:44Z</time>
      </trkpt>
      <trkpt lat="46.51725" lon="6.07861">
        <ele>1252.9</ele>
        <time>2024-05-10T11:45:55Z</time>
      </trkpt>
      <trkpt lat="46.51704" lon="6.07849">
        <ele>1255.2</ele>
        <time>2024-05-10T11:46:05Z</time>
      </trkpt>
      <trkpt lat="46.51686" lon="6.07834">
        <ele>1257.6</ele>
        <time>2024-05-10T11:46:15Z</time>
      </trkpt>
      <trkpt lat="46.51667" lon="6.0782">
        <ele>1259.7</ele>
        <time>2024-05-10T11:46:26Z</time>
      </trkpt>
      <trkpt lat="46.51647" lon="6.0781">
        <ele>1261.8</ele>
        <time>2024-05-10T11:46:37Z</time>
      </trkpt>
      <trkpt lat="46.51627" lon="6.07806">
        <ele>1264.3</ele>
        <time>2024-05-10T11:46:47Z</time>
      </trkpt>
      <trkpt lat="46.51615" lon="6.07827">
        <ele>1267.2</ele>
        <time>2024-05-10T11:46:58Z</time>
      </trkpt>
      <trkpt lat="46.51616" lon="6.07863">
        <ele>1269.5</ele>
        <time>2024-05-10T11:47:09Z</time>
      </trkpt>
      <trkpt lat="46.51607" lon="6.07901">
        <ele>1270.9</ele>
        <time>2024-05-10T11:47:20Z</time>
      </trkpt>
      <trkpt lat="46.51596" lon="6.07935">
        <ele>1272</ele>
        <time>2024-05-10T11:47:30Z</time>
      </trkpt>
      <trkpt lat="46.51579" lon="6.07975">
        <ele>1272.8</ele>
        <time>2024-05-10T11:47:41Z</time>
      </trkpt>
      <trkpt lat="46.51543" lon="6.07986">
        <ele>1273.1</ele>
        <time>2024-05-10T11:47:52Z</time>
      </trkpt>
      <trkpt lat="46.51486" lon="6.0794">
        <ele>1272.2</ele>
        <time>2024-05-10T11:48:03Z</time>
      </trkpt>
      <trkpt lat="46.51455" lon="6.07897">
        <ele>1274</ele>
        <time>2024-05-10T11:48:13Z</time>
      </trkpt>
      <trkpt lat="46.51411" lon="6.07856">
        <ele>1274.4</ele>
        <time>2024-05-10T11:48:24Z</time>
      </trkpt>
      <trkpt lat="46.51383" lon="6.07812">
        <ele>1276.2</ele>
        <time>2024-05-10T11:48:34Z</time>
      </trkpt>
      <trkpt lat="46.51367" lon="6.07761">
        <ele>1276.7</ele>
        <time>2024-05-10T11:48:45Z</time>
      </trkpt>
      <trkpt lat="46.51343" lon="6.07717">
        <ele>1276.3</ele>
        <time>2024-05-10T11:48:55Z</time>
      </trkpt>
      <trkpt lat="46.51314" lon="6.07652">
        <ele>1276.6</ele>
        <time>2024-05-10T11:49:05Z</time>
      </trkpt>
      <trkpt lat="46.51288" lon="6.07619">
        <ele>1275.9</ele>
        <time>2024-05-10T11:49:16Z</time>
      </trkpt>
      <trkpt lat="46.51288" lon="6.07619">
        <ele>1275.9</ele>
        <time>2024-05-10T11:49:26Z</time>
      </trkpt>
      <trkpt lat="46.51288" lon="6.07619">
        <ele>1275.9</ele>
        <time>2024-05-10T11:49:37Z</time>
      </trkpt>
      <trkpt lat="46.51249" lon="6.07617">
        <ele>1274.2</ele>
        <time>2024-05-10T11:49:48Z</time>
      </trkpt>
      <trkpt lat="46.51213" lon="6.07575">
        <ele>1275.8</ele>
        <time>2024-05-10T11:49:59Z</time>
      </trkpt>
      <trkpt lat="46.512" lon="6.07519">
        <ele>1277.5</ele>
        <time>2024-05-10T11:50:09Z</time>
      </trkpt>
      <trkpt lat="46.51183" lon="6.07482">
        <ele>1279.8</ele>
        <time>2024-05-10T11:50:20Z</time>
      </trkpt>
      <trkpt lat="46.51153" lon="6.07439">
        <ele>1279.8</ele>
        <time>2024-05-10T11:50:31Z</time>
      </trkpt>
      <trkpt lat="46.5111" lon="6.07385">
        <ele>1275.4</ele>
        <time>2024-05-10T11:50:42Z</time>
      </trkpt>
      <trkpt lat="46.51046" lon="6.07293">
        <ele>1265.1</ele>
        <time>2024-05-10T11:50:53Z</time>
      </trkpt>
      <trkpt lat="46.5099" lon="6.07189">
        <ele>1259</ele>
        <time>2024-05-10T11:51:04Z</time>
      </trkpt>
      <trkpt lat="46.50967" lon="6.07133">
        <ele>1256.3</ele>
        <time>2024-05-10T11:51:14Z</time>
      </trkpt>
      <trkpt lat="46.50941" lon="6.07059">
        <ele>1256.1</ele>
        <time>2024-05-10T11:51:25Z</time>
      </trkpt>
      <trkpt lat="46.50915" lon="6.07042">
        <ele>1256.9</ele>
        <time>2024-05-10T11:51:36Z</time>
      </trkpt>
      <trkpt lat="46.50867" lon="6.07004">
        <ele>1253.9</ele>
        <time>2024-05-10T11:51:46Z</time>
      </trkpt>
      <trkpt lat="46.50811" lon="6.06932">
        <ele>1248.8</ele>
        <time>2024-05-10T11:51:56Z</time>
      </trkpt>
      <trkpt lat="46.50749" lon="6.06807">
        <ele>1243.4</ele>
        <time>2024-05-10T11:52:07Z</time>
      </trkpt>
      <trkpt lat="46.50713" lon="6.06688">
        <ele>1243.9</ele>
        <time>2024-05-10T11:52:18Z</time>
      </trkpt>
      <trkpt lat="46.50668" lon="6.06611">
        <ele>1243.3</ele>
        <time>2024-05-10T11:52:28Z</time>
      </trkpt>
      <trkpt lat="46.5063" lon="6.0651">
        <ele>1242.7</ele>
        <time>2024-05-10T11:52:39Z</time>
      </trkpt>
      <trkpt lat="46.5058" lon="6.06438">
        <ele>1243.1</ele>
        <time>2024-05-10T11:52:49Z</time>
      </trkpt>
      <trkpt lat="46.50552" lon="6.06388">
        <ele>1242.8</ele>
        <time>2024-05-10T11:52:59Z</time>
      </trkpt>
      <trkpt lat="46.505" lon="6.06349">
        <ele>1238.4</ele>
        <time>2024-05-10T11:53:10Z</time>
      </trkpt>
      <trkpt lat="46.50432" lon="6.06337">
        <ele>1238.5</ele>
        <time>2024-05-10T11:53:20Z</time>
      </trkpt>
      <trkpt lat="46.50394" lon="6.06386">
        <ele>1237.6</ele>
        <time>2024-05-10T11:53:31Z</time>
      </trkpt>
      <trkpt lat="46.5033" lon="6.06391">
        <ele>1232.3</ele>
        <time>2024-05-10T11:53:41Z</time>
      </trkpt>
      <trkpt lat="46.50296" lon="6.06472">
        <ele>1230.9</ele>
        <time>2024-05-10T11:53:52Z</time>
      </trkpt>
      <trkpt lat="46.50321" lon="6.06538">
        <ele>1232</ele>
        <time>2024-05-10T11:54:02Z</time>
      </trkpt>
      <trkpt lat="46.50338" lon="6.0662">
        <ele>1233.2</ele>
        <time>2024-05-10T11:54:13Z</time>
      </trkpt>
      <trkpt lat="46.50345" lon="6.06691">
        <ele>1232.5</ele>
        <time>2024-05-10T11:54:23Z</time>
      </trkpt>
      <trkpt lat="46.50324" lon="6.06768">
        <ele>1230.4</ele>
        <time>2024-05-10T11:54:34Z</time>
      </trkpt>
      <trkpt lat="46.50252" lon="6.06841">
        <ele>1224.7</ele>
        <time>2024-05-10T11:54:45Z</time>
      </trkpt>
      <trkpt lat="46.50161" lon="6.06793">
        <ele>1217.8</ele>
        <time>2024-05-10T11:54:55Z</time>
      </trkpt>
      <trkpt lat="46.50047" lon="6.06731">
        <ele>1210.6</ele>
        <time>2024-05-10T11:55:06Z</time>
      </trkpt>
      <trkpt lat="46.49963" lon="6.06709">
        <ele>1205.7</ele>
        <time>2024-05-10T11:55:17Z</time>
      </trkpt>
      <trkpt lat="46.49874" lon="6.06691">
        <ele>1198.3</ele>
        <time>2024-05-10T11:55:28Z</time>
      </trkpt>
      <trkpt lat="46.49795" lon="6.06779">
        <ele>1189.6</ele>
        <time>2024-05-10T11:55:39Z</time>
      </trkpt>
      <trkpt lat="46.49708" lon="6.06653">
        <ele>1176.6</ele>
        <time>2024-05-10T11:55:50Z</time>
      </trkpt>
      <trkpt lat="46.49591" lon="6.0657">
        <ele>1163</ele>
        <time>2024-05-10T11:56:01Z</time>
      </trkpt>
      <trkpt lat="46.49508" lon="6.0647">
        <ele>1150.8</ele>
        <time>2024-05-10T11:56:11Z</time>
      </trkpt>
      <trkpt lat="46.49412" lon="6.06308">
        <ele>1134.7</ele>
        <time>2024-05-10T11:56:22Z</time>
      </trkpt>
      <trkpt lat="46.49315" lon="6.06162">
        <ele>1121.3</ele>
        <time>2024-05-10T11:56:32Z</time>
      </trkpt>
      <trkpt lat="46.49243" lon="6.05984">
        <ele>1109.3</ele>
        <time>2024-05-10T11:56:43Z</time>
      </trkpt>
      <trkpt lat="46.49173" lon="6.05896">
        <ele>1102</ele>
        <time>2024-05-10T11:56:53Z</time>
      </trkpt>
      <trkpt lat="46.49113" lon="6.0599">
        <ele>1096</ele>
        <time>2024-05-10T11:57:04Z</time>
      </trkpt>
      <trkpt lat="46.49083" lon="6.05984">
        <ele>1095.4</ele>
        <time>2024-05-10T11:57:14Z</time>
      </trkpt>
      <trkpt lat="46.49067" lon="6.05949">
        <ele>1095.4</ele>
        <time>2024-05-10T11:57:25Z</time>
      </trkpt>
      <trkpt lat="46.49067" lon="6.05949">
        <ele>1095.4</ele>
        <time>2024-05-10T11:57:35Z</time>
      </trkpt>
      <trkpt lat="46.49067" lon="6.05949">
        <ele>1095.4</ele>
        <time>2024-05-10T11:57:46Z</time>
      </trkpt>
      <trkpt lat="46.49067" lon="6.05949">
        <ele>1095.4</ele>
        <time>2024-05-10T11:57:57Z</time>
      </trkpt>
      <trkpt lat="46.49067" lon="6.05949">
        <ele>1095.4</ele>
        <time>2024-05-10T11:58:08Z</time>
      </trkpt>
      <trkpt lat="46.49067" lon="6.05949">
        <ele>1095.4</ele>
        <time>2024-05-10T11:58:18Z</time>
      </trkpt>
      <trkpt lat="46.49067" lon="6.05949">
        <ele>1095.4</ele>
        <time>2024-05-10T11:58:29Z</time>
      </trkpt>
      <trkpt lat="46.49067" lon="6.05949">
        <ele>1095.4</ele>
        <time>2024-05-10T11:58:39Z</time>
      </trkpt>
      <trkpt lat="46.49067" lon="6.05949">
        <ele>1095.4</ele>
        <time>2024-05-10T11:58:49Z</time>
      </trkpt>
      <trkpt lat="46.49062" lon="6.0594">
        <ele>1095.4</ele>
        <time>2024-05-10T11:59:00Z</time>
      </trkpt>
      <trkpt lat="46.49034" lon="6.0589">
        <ele>1095.5</ele>
        <time>2024-05-10T11:59:11Z</time>
      </trkpt>
      <trkpt lat="46.49001" lon="6.05835">
        <ele>1094.9</ele>
        <time>2024-05-10T11:59:22Z</time>
      </trkpt>
      <trkpt lat="46.48951" lon="6.05771">
        <ele>1091.8</ele>
        <time>2024-05-10T11:59:33Z</time>
      </trkpt>
      <trkpt lat="46.48878" lon="6.05723">
        <ele>1086.2</ele>
        <time>2024-05-10T11:59:44Z</time>
      </trkpt>
      <trkpt lat="46.48871" lon="6.05643">
        <ele>1086</ele>
        <time>2024-05-10T11:59:54Z</time>
      </trkpt>
      <trkpt lat="46.48847" lon="6.05554">
        <ele>1085.2</ele>
        <time>2024-05-10T12:00:05Z</time>
      </trkpt>
      <trkpt lat="46.4885" lon="6.05463">
        <ele>1082.2</ele>
        <time>2024-05-10T12:00:15Z</time>
      </trkpt>
      <trkpt lat="46.48881" lon="6.05343">
        <ele>1079</ele>
        <time>2024-05-10T12:00:26Z</time>
      </trkpt>
      <trkpt lat="46.48888" lon="6.05234">
        <ele>1077.9</ele>
        <time>2024-05-10T12:00:36Z</time>
      </trkpt>
      <trkpt lat="46.48879" lon="6.0519">
        <ele>1078.7</ele>
        <time>2024-05-10T12:00:47Z</time>
      </trkpt>
      <trkpt lat="46.48879" lon="6.05188">
        <ele>1078.7</ele>
        <time>2024-05-10T12:00:57Z</time>
      </trkpt>
      <trkpt lat="46.48879" lon="6.05188">
        <ele>1078.7</ele>
        <time>2024-05-10T12:01:08Z</time>
      </trkpt>
      <trkpt lat="46.48879" lon="6.05188">
        <ele>1078.7</ele>
        <time>2024-05-10T12:01:18Z</time>
      </trkpt>
      <trkpt lat="46.48879" lon="6.05188">
        <ele>1078.7</ele>
        <time>2024-05-10T12:01:29Z</time>
      </trkpt>
      <trkpt lat="46.48879" lon="6.05188">
        <ele>1078.7</ele>
        <time>2024-05-10T12:01:39Z</time>
      </trkpt>
      <trkpt lat="46.48885" lon="6.05185">
        <ele>1079.1</ele>
        <time>2024-05-10T12:01:50Z</time>
      </trkpt>
      <trkpt lat="46.48893" lon="6.05148">
        <ele>1081.3</ele>
        <time>2024-05-10T12:02:00Z</time>
      </trkpt>
      <trkpt lat="46.4892" lon="6.05116">
        <ele>1082.7</ele>
        <time>2024-05-10T12:02:11Z</time>
      </trkpt>
      <trkpt lat="46.48957" lon="6.05076">
        <ele>1082.6</ele>
        <time>2024-05-10T12:02:22Z</time>
      </trkpt>
      <trkpt lat="46.48976" lon="6.05007">
        <ele>1081.4</ele>
        <time>2024-05-10T12:02:33Z</time>
      </trkpt>
      <trkpt lat="46.49025" lon="6.04929">
        <ele>1078.5</ele>
        <time>2024-05-10T12:02:44Z</time>
      </trkpt>
      <trkpt lat="46.49086" lon="6.04879">
        <ele>1073.8</ele>
        <time>2024-05-10T12:02:54Z</time>
      </trkpt>
      <trkpt lat="46.49163" lon="6.04839">
        <ele>1068.1</ele>
        <time>2024-05-10T12:03:05Z</time>
      </trkpt>
      <trkpt lat="46.49255" lon="6.04871">
        <ele>1062.8</ele>
        <time>2024-05-10T12:03:15Z</time>
      </trkpt>
      <trkpt lat="46.49344" lon="6.04916">
        <ele>1057.7</ele>
        <time>2024-05-10T12:03:25Z</time>
      </trkpt>
      <trkpt lat="46.49433" lon="6.04996">
        <ele>1050.6</ele>
        <time>2024-05-10T12:03:36Z</time>
      </trkpt>
      <trkpt lat="46.49531" lon="6.05022">
        <ele>1043.3</ele>
        <time>2024-05-10T12:03:46Z</time>
      </trkpt>
      <trkpt lat="46.49573" lon="6.04894">
        <ele>1037.1</ele>
        <time>2024-05-10T12:03:57Z</time>
      </trkpt>
      <trkpt lat="46.4962" lon="6.04801">
        <ele>1037.3</ele>
        <time>2024-05-10T12:04:07Z</time>
      </trkpt>
      <trkpt lat="46.49626" lon="6.04707">
        <ele>1039.4</ele>
        <time>2024-05-10T12:04:18Z</time>
      </trkpt>
      <trkpt lat="46.4963" lon="6.04632">
        <ele>1041.6</ele>
        <time>2024-05-10T12:04:29Z</time>
      </trkpt>
      <trkpt lat="46.49644" lon="6.04574">
        <ele>1044.8</ele>
        <time>2024-05-10T12:04:40Z</time>
      </trkpt>
      <trkpt lat="46.49647" lon="6.04528">
        <ele>1048</ele>
        <time>2024-05-10T12:04:51Z</time>
      </trkpt>
      <trkpt lat="46.4965" lon="6.04495">
        <ele>1050.8</ele>
        <time>2024-05-10T12:05:01Z</time>
      </trkpt>
      <trkpt lat="46.49668" lon="6.04468">
        <ele>1053.2</ele>
        <time>2024-05-10T12:05:12Z</time>
      </trkpt>
      <trkpt lat="46.49701" lon="6.04425">
        <ele>1052.4</ele>
        <time>2024-05-10T12:05:23Z</time>
      </trkpt>
      <trkpt lat="46.49759" lon="6.04353">
        <ele>1046.5</ele>
        <time>2024-05-10T12:05:34Z</time>
      </trkpt>
      <trkpt lat="46.49863" lon="6.0429">
        <ele>1037</ele>
        <time>2024-05-10T12:05:45Z</time>
      </trkpt>
      <trkpt lat="46.49956" lon="6.04234">
        <ele>1034.1</ele>
        <time>2024-05-10T12:05:55Z</time>
      </trkpt>
      <trkpt lat="46.50046" lon="6.04193">
        <ele>1032.9</ele>
        <time>2024-05-10T12:06:06Z</time>
      </trkpt>
      <trkpt lat="46.50095" lon="6.04133">
        <ele>1036.3</ele>
        <time>2024-05-10T12:06:16Z</time>
      </trkpt>
      <trkpt lat="46.50137" lon="6.04086">
        <ele>1039.4</ele>
        <time>2024-05-10T12:06:27Z</time>
      </trkpt>
      <trkpt lat="46.50174" lon="6.04041">
        <ele>1041</ele>
        <time>2024-05-10T12:06:38Z</time>
      </trkpt>
      <trkpt lat="46.50224" lon="6.04012">
        <ele>1040</ele>
        <time>2024-05-10T12:06:48Z</time>
      </trkpt>
      <trkpt lat="46.50304" lon="6.03979">
        <ele>1035.6</ele>
        <time>2024-05-10T12:06:59Z</time>
      </trkpt>
      <trkpt lat="46.50386" lon="6.03918">
        <ele>1031.9</ele>
        <time>2024-05-10T12:07:09Z</time>
      </trkpt>
      <trkpt lat="46.50469" lon="6.03851">
        <ele>1027.6</ele>
        <time>2024-05-10T12:07:20Z</time>
      </trkpt>
      <trkpt lat="46.50493" lon="6.03832">
        <ele>1028</ele>
        <time>2024-05-10T12:07:30Z</time>
      </trkpt>
      <trkpt lat="46.50493" lon="6.03832">
        <ele>1028</ele>
        <time>2024-05-10T12:07:41Z</time>
      </trkpt>
      <trkpt lat="46.50493" lon="6.03832">
        <ele>1028</ele>
        <time>2024-05-10T12:07:51Z</time>
      </trkpt>
      <trkpt lat="46.50493" lon="6.03832">
        <ele>1028</ele>
        <time>2024-05-10T12:08:02Z</time>
      </trkpt>
      <trkpt lat="46.50495" lon="6.03831">
        <ele>1028</ele>
        <time>2024-05-10T12:08:13Z</time>
      </trkpt>
      <trkpt lat="46.50531" lon="6.0384">
        <ele>1029.1</ele>
        <time>2024-05-10T12:08:24Z</time>
      </trkpt>
      <trkpt lat="46.5057" lon="6.03851">
        <ele>1031.4</ele>
        <time>2024-05-10T12:08:35Z</time>
      </trkpt>
      <trkpt lat="46.50609" lon="6.03854">
        <ele>1033</ele>
        <time>2024-05-10T12:08:45Z</time>
      </trkpt>
      <trkpt lat="46.50647" lon="6.03854">
        <ele>1033.8</ele>
        <time>2024-05-10T12:08:55Z</time>
      </trkpt>
      <trkpt lat="46.50692" lon="6.03854">
        <ele>1034.5</ele>
        <time>2024-05-10T12:09:06Z</time>
      </trkpt>
      <trkpt lat="46.50742" lon="6.0386">
        <ele>1035.1</ele>
        <time>2024-05-10T12:09:17Z</time>
      </trkpt>
      <trkpt lat="46.50789" lon="6.03871">
        <ele>1035.9</ele>
        <time>2024-05-10T12:09:27Z</time>
      </trkpt>
      <trkpt lat="46.50831" lon="6.03877">
        <ele>1038.6</ele>
        <time>2024-05-10T12:09:38Z</time>
      </trkpt>
      <trkpt lat="46.50868" lon="6.03869">
        <ele>1041.1</ele>
        <time>2024-05-10T12:09:49Z</time>
      </trkpt>
      <trkpt lat="46.50899" lon="6.03861">
        <ele>1043.4</ele>
        <time>2024-05-10T12:09:59Z</time>
      </trkpt>
      <trkpt lat="46.50933" lon="6.03851">
        <ele>1045.7</ele>
        <time>2024-05-10T12:10:10Z</time>
      </trkpt>
      <trkpt lat="46.50965" lon="6.03843">
        <ele>1047.3</ele>
        <time>2024-05-10T12:10:21Z</time>
      </trkpt>
      <trkpt lat="46.51004" lon="6.03845">
        <ele>1045.4</ele>
        <time>2024-05-10T12:10:32Z</time>
      </trkpt>
      <trkpt lat="46.51052" lon="6.03827">
        <ele>1042.9</ele>
        <time>2024-05-10T12:10:42Z</time>
      </trkpt>
      <trkpt lat="46.5109" lon="6.03779">
        <ele>1040.5</ele>
        <time>2024-05-10T12:10:53Z</time>
      </trkpt>
      <trkpt lat="46.51122" lon="6.03737">
        <ele>1036.3</ele>
        <time>2024-05-10T12:11:03Z</time>
      </trkpt>
      <trkpt lat="46.51147" lon="6.03684">
        <ele>1033.7</ele>
        <time>2024-05-10T12:11:13Z</time>
      </trkpt>
      <trkpt lat="46.51196" lon="6.03655">
        <ele>1031.3</ele>
        <time>2024-05-10T12:11:24Z</time>
      </trkpt>
      <trkpt lat="46.51205" lon="6.03653">
        <ele>1031.5</ele>
        <time>2024-05-10T12:11:35Z</time>
      </trkpt>
      <trkpt lat="46.51206" lon="6.03651">
        <ele>1031.6</ele>
        <time>2024-05-10T12:11:45Z</time>
      </trkpt>
      <trkpt lat="46.51175" lon="6.03663">
        <ele>1032.5</ele>
        <time>2024-05-10T12:11:55Z</time>
      </trkpt>
      <trkpt lat="46.51129" lon="6.03701">
        <ele>1034.9</ele>
        <time>2024-05-10T12:12:06Z</time>
      </trkpt>
      <trkpt lat="46.51113" lon="6.03756">
        <ele>1037.7</ele>
        <time>2024-05-10T12:12:16Z</time>
      </trkpt>
      <trkpt lat="46.51091" lon="6.03779">
        <ele>1039.5</ele>
        <time>2024-05-10T12:12:27Z</time>
      </trkpt>
      <trkpt lat="46.51072" lon="6.03802">
        <ele>1040.9</ele>
        <time>2024-05-10T12:12:37Z</time>
      </trkpt>
      <trkpt lat="46.51057" lon="6.03824">
        <ele>1042</ele>
        <time>2024-05-10T12:12:47Z</time>
      </trkpt>
      <trkpt lat="46.51057" lon="6.03823">
        <ele>1042</ele>
        <time>2024-05-10T12:12:57Z</time>
      </trkpt>
      <trkpt lat="46.51057" lon="6.03825">
        <ele>1042</ele>
        <time>2024-05-10T12:13:07Z</time>
      </trkpt>
      <trkpt lat="46.51067" lon="6.03825">
        <ele>1042.4</ele>
        <time>2024-05-10T12:13:18Z</time>
      </trkpt>
      <trkpt lat="46.51075" lon="6.0382">
        <ele>1042.7</ele>
        <time>2024-05-10T12:13:29Z</time>
      </trkpt>
      <trkpt lat="46.51075" lon="6.0382">
        <ele>1042.7</ele>
        <time>2024-05-10T12:13:40Z</time>
      </trkpt>
      <trkpt lat="46.51093" lon="6.03794">
        <ele>1040.9</ele>
        <time>2024-05-10T12:13:51Z</time>
      </trkpt>
      <trkpt lat="46.51123" lon="6.03769">
        <ele>1037.4</ele>
        <time>2024-05-10T12:14:01Z</time>
      </trkpt>
      <trkpt lat="46.51151" lon="6.03726">
        <ele>1033.5</ele>
        <time>2024-05-10T12:14:12Z</time>
      </trkpt>
      <trkpt lat="46.5117" lon="6.03713">
        <ele>1032</ele>
        <time>2024-05-10T12:14:22Z</time>
      </trkpt>
      <trkpt lat="46.51175" lon="6.03713">
        <ele>1031.7</ele>
        <time>2024-05-10T12:14:33Z</time>
      </trkpt>
      <trkpt lat="46.51181" lon="6.03711">
        <ele>1031.3</ele>
        <time>2024-05-10T12:14:44Z</time>
      </trkpt>
      <trkpt lat="46.51212" lon="6.03704">
        <ele>1028.8</ele>
        <time>2024-05-10T12:14:55Z</time>
      </trkpt>
      <trkpt lat="46.51248" lon="6.03693">
        <ele>1025.4</ele>
        <time>2024-05-10T12:15:05Z</time>
      </trkpt>
      <trkpt lat="46.51288" lon="6.03683">
        <ele>1021.9</ele>
        <time>2024-05-10T12:15:15Z</time>
      </trkpt>
      <trkpt lat="46.51313" lon="6.03687">
        <ele>1019.3</ele>
        <time>2024-05-10T12:15:26Z</time>
      </trkpt>
      <trkpt lat="46.51321" lon="6.03684">
        <ele>1018.5</ele>
        <time>2024-05-10T12:15:36Z</time>
      </trkpt>
      <trkpt lat="46.51358" lon="6.03676">
        <ele>1013.6</ele>
        <time>2024-05-10T12:15:47Z</time>
      </trkpt>
      <trkpt lat="46.51403" lon="6.03663">
        <ele>1007.5</ele>
        <time>2024-05-10T12:15:57Z</time>
      </trkpt>
      <trkpt lat="46.51438" lon="6.03642">
        <ele>1003.5</ele>
        <time>2024-05-10T12:16:08Z</time>
      </trkpt>
      <trkpt lat="46.5147" lon="6.03625">
        <ele>1001</ele>
        <time>2024-05-10T12:16:18Z</time>
      </trkpt>
      <trkpt lat="46.51495" lon="6.03608">
        <ele>999.4</ele>
        <time>2024-05-10T12:16:28Z</time>
      </trkpt>
      <trkpt lat="46.51519" lon="6.03557">
        <ele>993.9</ele>
        <time>2024-05-10T12:16:39Z</time>
      </trkpt>
      <trkpt lat="46.51542" lon="6.03502">
        <ele>986.6</ele>
        <time>2024-05-10T12:16:49Z</time>
      </trkpt>
      <trkpt lat="46.51571" lon="6.03435">
        <ele>981.4</ele>
        <time>2024-05-10T12:17:00Z</time>
      </trkpt>
      <trkpt lat="46.51601" lon="6.03396">
        <ele>977.8</ele>
        <time>2024-05-10T12:17:10Z</time>
      </trkpt>
      <trkpt lat="46.51603" lon="6.03351">
        <ele>978.1</ele>
        <time>2024-05-10T12:17:20Z</time>
      </trkpt>
      <trkpt lat="46.51621" lon="6.0331">
        <ele>979.7</ele>
        <time>2024-05-10T12:17:31Z</time>
      </trkpt>
      <trkpt lat="46.51642" lon="6.03279">
        <ele>980.7</ele>
        <time>2024-05-10T12:17:41Z</time>
      </trkpt>
      <trkpt lat="46.51662" lon="6.03236">
        <ele>981.2</ele>
        <time>2024-05-10T12:17:52Z</time>
      </trkpt>
      <trkpt lat="46.51664" lon="6.032">
        <ele>982.9</ele>
        <time>2024-05-10T12:18:02Z</time>
      </trkpt>
      <trkpt lat="46.51668" lon="6.03181">
        <ele>984.3</ele>
        <time>2024-05-10T12:18:12Z</time>
      </trkpt>
      <trkpt lat="46.51669" lon="6.03181">
        <ele>984.4</ele>
        <time>2024-05-10T12:18:22Z</time>
      </trkpt>
      <trkpt lat="46.51665" lon="6.03175">
        <ele>985</ele>
        <time>2024-05-10T12:18:32Z</time>
      </trkpt>
      <trkpt lat="46.51661" lon="6.03172">
        <ele>985.3</ele>
        <time>2024-05-10T12:18:43Z</time>
      </trkpt>
      <trkpt lat="46.51643" lon="6.03165">
        <ele>985.3</ele>
        <time>2024-05-10T12:18:53Z</time>
      </trkpt>
      <trkpt lat="46.51617" lon="6.03145">
        <ele>983.9</ele>
        <time>2024-05-10T12:19:04Z</time>
      </trkpt>
      <trkpt lat="46.51602" lon="6.03093">
        <ele>981.2</ele>
        <time>2024-05-10T12:19:14Z</time>
      </trkpt>
      <trkpt lat="46.516" lon="6.03088">
        <ele>980.7</ele>
        <time>2024-05-10T12:19:25Z</time>
      </trkpt>
      <trkpt lat="46.516" lon="6.03088">
        <ele>980.7</ele>
        <time>2024-05-10T12:19:35Z</time>
      </trkpt>
      <trkpt lat="46.51611" lon="6.03078">
        <ele>977.9</ele>
        <time>2024-05-10T12:19:46Z</time>
      </trkpt>
      <trkpt lat="46.51616" lon="6.03076">
        <ele>976.5</ele>
        <time>2024-05-10T12:19:57Z</time>
      </trkpt>
      <trkpt lat="46.51616" lon="6.03076">
        <ele>976.5</ele>
        <time>2024-05-10T12:20:07Z</time>
      </trkpt>
      <trkpt lat="46.51616" lon="6.03076">
        <ele>976.5</ele>
        <time>2024-05-10T12:20:18Z</time>
      </trkpt>
      <trkpt lat="46.51616" lon="6.03076">
        <ele>976.5</ele>
        <time>2024-05-10T12:20:28Z</time>
      </trkpt>
      <trkpt lat="46.51616" lon="6.03076">
        <ele>976.5</ele>
        <time>2024-05-10T12:20:39Z</time>
      </trkpt>
      <trkpt lat="46.51616" lon="6.03076">
        <ele>976.5</ele>
        <time>2024-05-10T12:20:49Z</time>
      </trkpt>
      <trkpt lat="46.5162" lon="6.03076">
        <ele>975.4</ele>
        <time>2024-05-10T12:21:00Z</time>
      </trkpt>
      <trkpt lat="46.51629" lon="6.03073">
        <ele>972.6</ele>
        <time>2024-05-10T12:21:11Z</time>
      </trkpt>
      <trkpt lat="46.51641" lon="6.03076">
        <ele>969.1</ele>
        <time>2024-05-10T12:21:22Z</time>
      </trkpt>
      <trkpt lat="46.51644" lon="6.03075">
        <ele>968.4</ele>
        <time>2024-05-10T12:21:33Z</time>
      </trkpt>
      <trkpt lat="46.51646" lon="6.03076">
        <ele>967.9</ele>
        <time>2024-05-10T12:21:43Z</time>
      </trkpt>
      <trkpt lat="46.51661" lon="6.0308">
        <ele>964.2</ele>
        <time>2024-05-10T12:21:54Z</time>
      </trkpt>
      <trkpt lat="46.51672" lon="6.03085">
        <ele>962</ele>
        <time>2024-05-10T12:22:05Z</time>
      </trkpt>
      <trkpt lat="46.51688" lon="6.03089">
        <ele>959.4</ele>
        <time>2024-05-10T12:22:16Z</time>
      </trkpt>
      <trkpt lat="46.51704" lon="6.03087">
        <ele>956.6</ele>
        <time>2024-05-10T12:22:27Z</time>
      </trkpt>
      <trkpt lat="46.51724" lon="6.03083">
        <ele>951.4</ele>
        <time>2024-05-10T12:22:37Z</time>
      </trkpt>
      <trkpt lat="46.51743" lon="6.03082">
        <ele>946.1</ele>
        <time>2024-05-10T12:22:48Z</time>
      </trkpt>
      <trkpt lat="46.51761" lon="6.03083">
        <ele>941.6</ele>
        <time>2024-05-10T12:22:59Z</time>
      </trkpt>
      <trkpt lat="46.51783" lon="6.03081">
        <ele>935.9</ele>
        <time>2024-05-10T12:23:10Z</time>
      </trkpt>
      <trkpt lat="46.51811" lon="6.03082">
        <ele>928.9</ele>
        <time>2024-05-10T12:23:20Z</time>
      </trkpt>
      <trkpt lat="46.51826" lon="6.03089">
        <ele>925.7</ele>
        <time>2024-05-10T12:23:30Z</time>
      </trkpt>
      <trkpt lat="46.51834" lon="6.03092">
        <ele>924</ele>
        <time>2024-05-10T12:23:41Z</time>
      </trkpt>
      <trkpt lat="46.51848" lon="6.03093">
        <ele>921.2</ele>
        <time>2024-05-10T12:23:52Z</time>
      </trkpt>
      <trkpt lat="46.51876" lon="6.03086">
        <ele>914.6</ele>
        <time>2024-05-10T12:24:02Z</time>
      </trkpt>
      <trkpt lat="46.51907" lon="6.03083">
        <ele>906.5</ele>
        <time>2024-05-10T12:24:13Z</time>
      </trkpt>
      <trkpt lat="46.51935" lon="6.03085">
        <ele>900</ele>
        <time>2024-05-10T12:24:24Z</time>
      </trkpt>
      <trkpt lat="46.51935" lon="6.03085">
        <ele>899.9</ele>
        <time>2024-05-10T12:24:35Z</time>
      </trkpt>
      <trkpt lat="46.51935" lon="6.03085">
        <ele>899.9</ele>
        <time>2024-05-10T12:24:46Z</time>
      </trkpt>
      <trkpt lat="46.51935" lon="6.03085">
        <ele>899.9</ele>
        <time>2024-05-10T12:24:57Z</time>
      </trkpt>
      <trkpt lat="46.51947" lon="6.03086">
        <ele>897.2</ele>
        <time>2024-05-10T12:25:07Z</time>
      </trkpt>
      <trkpt lat="46.51986" lon="6.03083">
        <ele>887.9</ele>
        <time>2024-05-10T12:25:17Z</time>
      </trkpt>
      <trkpt lat="46.52026" lon="6.03085">
        <ele>878.9</ele>
        <time>2024-05-10T12:25:28Z</time>
      </trkpt>
      <trkpt lat="46.52053" lon="6.03085">
        <ele>873</ele>
        <time>2024-05-10T12:25:38Z</time>
      </trkpt>
      <trkpt lat="46.52078" lon="6.03046">
        <ele>863.1</ele>
        <time>2024-05-10T12:25:49Z</time>
      </trkpt>
      <trkpt lat="46.52077" lon="6.03043">
        <ele>863.2</ele>
        <time>2024-05-10T12:25:59Z</time>
      </trkpt>
      <trkpt lat="46.52084" lon="6.03051">
        <ele>863.6</ele>
        <time>2024-05-10T12:26:10Z</time>
      </trkpt>
      <trkpt lat="46.52111" lon="6.0306">
        <ele>864.6</ele>
        <time>2024-05-10T12:26:21Z</time>
      </trkpt>
      <trkpt lat="46.52132" lon="6.03052">
        <ele>865</ele>
        <time>2024-05-10T12:26:31Z</time>
      </trkpt>
      <trkpt lat="46.52161" lon="6.03017">
        <ele>862.3</ele>
        <time>2024-05-10T12:26:42Z</time>
      </trkpt>
      <trkpt lat="46.52217" lon="6.03029">
        <ele>859</ele>
        <time>2024-05-10T12:26:52Z</time>
      </trkpt>
      <trkpt lat="46.52287" lon="6.03006">
        <ele>856.4</ele>
        <time>2024-05-10T12:27:03Z</time>
      </trkpt>
      <trkpt lat="46.52343" lon="6.02962">
        <ele>854.1</ele>
        <time>2024-05-10T12:27:13Z</time>
      </trkpt>
      <trkpt lat="46.52388" lon="6.02884">
        <ele>849.2</ele>
        <time>2024-05-10T12:27:23Z</time>
      </trkpt>
      <trkpt lat="46.52333" lon="6.02863">
        <ele>843.5</ele>
        <time>2024-05-10T12:27:34Z</time>
      </trkpt>
      <trkpt lat="46.52305" lon="6.02898">
        <ele>842.4</ele>
        <time>2024-05-10T12:27:45Z</time>
      </trkpt>
      <trkpt lat="46.52262" lon="6.02953">
        <ele>839.3</ele>
        <time>2024-05-10T12:27:56Z</time>
      </trkpt>
      <trkpt lat="46.52223" lon="6.02875">
        <ele>831.9</ele>
        <time>2024-05-10T12:28:07Z</time>
      </trkpt>
      <trkpt lat="46.52214" lon="6.02766">
        <ele>827.8</ele>
        <time>2024-05-10T12:28:17Z</time>
      </trkpt>
      <trkpt lat="46.52238" lon="6.0266">
        <ele>824.8</ele>
        <time>2024-05-10T12:28:28Z</time>
      </trkpt>
      <trkpt lat="46.52318" lon="6.02646">
        <ele>819.8</ele>
        <time>2024-05-10T12:28:38Z</time>
      </trkpt>
      <trkpt lat="46.52395" lon="6.02736">
        <ele>810.1</ele>
        <time>2024-05-10T12:28:49Z</time>
      </trkpt>
      <trkpt lat="46.52509" lon="6.02738">
        <ele>797</ele>
        <time>2024-05-10T12:29:00Z</time>
      </trkpt>
      <trkpt lat="46.52574" lon="6.02638">
        <ele>788</ele>
        <time>2024-05-10T12:29:10Z</time>
      </trkpt>
      <trkpt lat="46.52678" lon="6.02606">
        <ele>778.2</ele>
        <time>2024-05-10T12:29:21Z</time>
      </trkpt>
      <trkpt lat="46.52767" lon="6.02497">
        <ele>768.2</ele>
        <time>2024-05-10T12:29:32Z</time>
      </trkpt>
      <trkpt lat="46.52855" lon="6.02436">
        <ele>762.8</ele>
        <time>2024-05-10T12:29:42Z</time>
      </trkpt>
      <trkpt lat="46.52942" lon="6.02385">
        <ele>758.3</ele>
        <time>2024-05-10T12:29:53Z</time>
      </trkpt>
      <trkpt lat="46.52977" lon="6.02392">
        <ele>757.3</ele>
        <time>2024-05-10T12:30:03Z</time>
      </trkpt>
      <trkpt lat="46.5301" lon="6.02388">
        <ele>753.9</ele>
        <time>2024-05-10T12:30:13Z</time>
      </trkpt>
      <trkpt lat="46.53015" lon="6.02389">
        <ele>753.4</ele>
        <time>2024-05-10T12:30:24Z</time>
      </trkpt>
      <trkpt lat="46.53015" lon="6.02389">
        <ele>753.4</ele>
        <time>2024-05-10T12:30:35Z</time>
      </trkpt>
      <trkpt lat="46.53015" lon="6.02389">
        <ele>753.4</ele>
        <time>2024-05-10T12:30:46Z</time>
      </trkpt>
      <trkpt lat="46.53015" lon="6.02389">
        <ele>753.4</ele>
        <time>2024-05-10T12:30:57Z</time>
      </trkpt>
      <trkpt lat="46.53015" lon="6.02389">
        <ele>753.4</ele>
        <time>2024-05-10T12:31:07Z</time>
      </trkpt>
      <trkpt lat="46.53015" lon="6.02389">
        <ele>753.4</ele>
        <time>2024-05-10T12:31:18Z</time>
      </trkpt>
      <trkpt lat="46.53015" lon="6.02389">
        <ele>753.4</ele>
        <time>2024-05-10T12:31:29Z</time>
      </trkpt>
      <trkpt lat="46.53015" lon="6.02388">
        <ele>753.3</ele>
        <time>2024-05-10T12:31:39Z</time>
      </trkpt>
      <trkpt lat="46.53015" lon="6.02388">
        <ele>753.3</ele>
        <time>2024-05-10T12:31:49Z</time>
      </trkpt>
      <trkpt lat="46.53015" lon="6.02388">
        <ele>753.3</ele>
        <time>2024-05-10T12:32:00Z</time>
      </trkpt>
      <trkpt lat="46.53015" lon="6.02388">
        <ele>753.3</ele>
        <time>2024-05-10T12:32:10Z</time>
      </trkpt>
      <trkpt lat="46.53016" lon="6.0237">
        <ele>752</ele>
        <time>2024-05-10T12:32:21Z</time>
      </trkpt>
      <trkpt lat="46.52983" lon="6.02362">
        <ele>749</ele>
        <time>2024-05-10T12:32:31Z</time>
      </trkpt>
      <trkpt lat="46.52951" lon="6.02312">
        <ele>743.8</ele>
        <time>2024-05-10T12:32:42Z</time>
      </trkpt>
      <trkpt lat="46.52955" lon="6.02301">
        <ele>742.8</ele>
        <time>2024-05-10T12:32:53Z</time>
      </trkpt>
      <trkpt lat="46.52986" lon="6.02304">
        <ele>739.3</ele>
        <time>2024-05-10T12:33:03Z</time>
      </trkpt>
      <trkpt lat="46.52984" lon="6.023">
        <ele>739.5</ele>
        <time>2024-05-10T12:33:14Z</time>
      </trkpt>
      <trkpt lat="46.52978" lon="6.02301">
        <ele>740.2</ele>
        <time>2024-05-10T12:33:25Z</time>
      </trkpt>
      <trkpt lat="46.52951" lon="6.02315">
        <ele>744.2</ele>
        <time>2024-05-10T12:33:35Z</time>
      </trkpt>
      <trkpt lat="46.52968" lon="6.02358">
        <ele>747.6</ele>
        <time>2024-05-10T12:33:45Z</time>
      </trkpt>
      <trkpt lat="46.52997" lon="6.02369">
        <ele>750.5</ele>
        <time>2024-05-10T12:33:55Z</time>
      </trkpt>
      <trkpt lat="46.53016" lon="6.02378">
        <ele>752.9</ele>
        <time>2024-05-10T12:34:05Z</time>
      </trkpt>
      <trkpt lat="46.53018" lon="6.02383">
        <ele>753.4</ele>
        <time>2024-05-10T12:34:16Z</time>
      </trkpt>
      <trkpt lat="46.53018" lon="6.02383">
        <ele>753.4</ele>
        <time>2024-05-10T12:34:26Z</time>
      </trkpt>
      <trkpt lat="46.53018" lon="6.02383">
        <ele>753.4</ele>
        <time>2024-05-10T12:34:36Z</time>
      </trkpt>
      <trkpt lat="46.52998" lon="6.02387">
        <ele>755.2</ele>
        <time>2024-05-10T12:34:47Z</time>
      </trkpt>
      <trkpt lat="46.52962" lon="6.02383">
        <ele>758.5</ele>
        <time>2024-05-10T12:34:58Z</time>
      </trkpt>
      <trkpt lat="46.52935" lon="6.02328">
        <ele>756.4</ele>
        <time>2024-05-10T12:35:09Z</time>
      </trkpt>
      <trkpt lat="46.52882" lon="6.02304">
        <ele>753.5</ele>
        <time>2024-05-10T12:35:20Z</time>
      </trkpt>
      <trkpt lat="46.52807" lon="6.02328">
        <ele>749</ele>
        <time>2024-05-10T12:35:30Z</time>
      </trkpt>
      <trkpt lat="46.52719" lon="6.02384">
        <ele>743.2</ele>
        <time>2024-05-10T12:35:41Z</time>
      </trkpt>
      <trkpt lat="46.52652" lon="6.0238">
        <ele>738.6</ele>
        <time>2024-05-10T12:35:52Z</time>
      </trkpt>
      <trkpt lat="46.52724" lon="6.02358">
        <ele>733.3</ele>
        <time>2024-05-10T12:36:02Z</time>
      </trkpt>
      <trkpt lat="46.52748" lon="6.02296">
        <ele>732.8</ele>
        <time>2024-05-10T12:36:13Z</time>
      </trkpt>
      <trkpt lat="46.52753" lon="6.02295">
        <ele>733</ele>
        <time>2024-05-10T12:36:24Z</time>
      </trkpt>
      <trkpt lat="46.52788" lon="6.02286">
        <ele>733.5</ele>
        <time>2024-05-10T12:36:35Z</time>
      </trkpt>
      <trkpt lat="46.52838" lon="6.02253">
        <ele>732.8</ele>
        <time>2024-05-10T12:36:45Z</time>
      </trkpt>
      <trkpt lat="46.52903" lon="6.02216">
        <ele>731.2</ele>
        <time>2024-05-10T12:36:55Z</time>
      </trkpt>
      <trkpt lat="46.52984" lon="6.02204">
        <ele>729.1</ele>
        <time>2024-05-10T12:37:06Z</time>
      </trkpt>
      <trkpt lat="46.53057" lon="6.02255">
        <ele>727.3</ele>
        <time>2024-05-10T12:37:17Z</time>
      </trkpt>
      <trkpt lat="46.5311" lon="6.02295">
        <ele>726.4</ele>
        <time>2024-05-10T12:37:27Z</time>
      </trkpt>
      <trkpt lat="46.53088" lon="6.02237">
        <ele>719.8</ele>
        <time>2024-05-10T12:37:38Z</time>
      </trkpt>
      <trkpt lat="46.53067" lon="6.02179">
        <ele>713.1</ele>
        <time>2024-05-10T12:37:48Z</time>
      </trkpt>
      <trkpt lat="46.53052" lon="6.02102">
        <ele>706.5</ele>
        <time>2024-05-10T12:37:59Z</time>
      </trkpt>
      <trkpt lat="46.53038" lon="6.02079">
        <ele>703.2</ele>
        <time>2024-05-10T12:38:09Z</time>
      </trkpt>
      <trkpt lat="46.53055" lon="6.02077">
        <ele>702.4</ele>
        <time>2024-05-10T12:38:19Z</time>
      </trkpt>
      <trkpt lat="46.53086" lon="6.02068">
        <ele>702</ele>
        <time>2024-05-10T12:38:29Z</time>
      </trkpt>
      <trkpt lat="46.53085" lon="6.01996">
        <ele>701.9</ele>
        <time>2024-05-10T12:38:40Z</time>
      </trkpt>
      <trkpt lat="46.53072" lon="6.01919">
        <ele>702.5</ele>
        <time>2024-05-10T12:38:51Z</time>
      </trkpt>
      <trkpt lat="46.53069" lon="6.0184">
        <ele>703</ele>
        <time>2024-05-10T12:39:01Z</time>
      </trkpt>
      <trkpt lat="46.53075" lon="6.01774">
        <ele>703.5</ele>
        <time>2024-05-10T12:39:11Z</time>
      </trkpt>
      <trkpt lat="46.5308" lon="6.01734">
        <ele>703.7</ele>
        <time>2024-05-10T12:39:22Z</time>
      </trkpt>
      <trkpt lat="46.5309" lon="6.01704">
        <ele>703.8</ele>
        <time>2024-05-10T12:39:32Z</time>
      </trkpt>
      <trkpt lat="46.53118" lon="6.01664">
        <ele>704</ele>
        <time>2024-05-10T12:39:43Z</time>
      </trkpt>
      <trkpt lat="46.53153" lon="6.01615">
        <ele>704.4</ele>
        <time>2024-05-10T12:39:54Z</time>
      </trkpt>
      <trkpt lat="46.53181" lon="6.01561">
        <ele>704.7</ele>
        <time>2024-05-10T12:40:05Z</time>
      </trkpt>
      <trkpt lat="46.53181" lon="6.01559">
        <ele>704.7</ele>
        <time>2024-05-10T12:40:16Z</time>
      </trkpt>
      <trkpt lat="46.53181" lon="6.01559">
        <ele>704.7</ele>
        <time>2024-05-10T12:40:26Z</time>
      </trkpt>
      <trkpt lat="46.53176" lon="6.01568">
        <ele>704.7</ele>
        <time>2024-05-10T12:40:37Z</time>
      </trkpt>
      <trkpt lat="46.53146" lon="6.01623">
        <ele>704.3</ele>
        <time>2024-05-10T12:40:47Z</time>
      </trkpt>
      <trkpt lat="46.53106" lon="6.01681">
        <ele>704</ele>
        <time>2024-05-10T12:40:57Z</time>
      </trkpt>
      <trkpt lat="46.53077" lon="6.01739">
        <ele>703.6</ele>
        <time>2024-05-10T12:41:08Z</time>
      </trkpt>
      <trkpt lat="46.5307" lon="6.01808">
        <ele>703.2</ele>
        <time>2024-05-10T12:41:19Z</time>
      </trkpt>
      <trkpt lat="46.5307" lon="6.01896">
        <ele>702.7</ele>
        <time>2024-05-10T12:41:30Z</time>
      </trkpt>
      <trkpt lat="46.53079" lon="6.01974">
        <ele>702.1</ele>
        <time>2024-05-10T12:41:40Z</time>
      </trkpt>
      <trkpt lat="46.53093" lon="6.02009">
        <ele>701.8</ele>
        <time>2024-05-10T12:41:51Z</time>
      </trkpt>
      <trkpt lat="46.53093" lon="6.02007">
        <ele>701.8</ele>
        <time>2024-05-10T12:42:01Z</time>
      </trkpt>
      <trkpt lat="46.53093" lon="6.02007">
        <ele>701.8</ele>
        <time>2024-05-10T12:42:12Z</time>
      </trkpt>
      <trkpt lat="46.53092" lon="6.02002">
        <ele>702</ele>
        <time>2024-05-10T12:42:23Z</time>
      </trkpt>
      <trkpt lat="46.5309" lon="6.02">
        <ele>702.2</ele>
        <time>2024-05-10T12:42:33Z</time>
      </trkpt>
      <trkpt lat="46.53086" lon="6.01988">
        <ele>703.2</ele>
        <time>2024-05-10T12:42:44Z</time>
      </trkpt>
      <trkpt lat="46.53088" lon="6.01968">
        <ele>705.7</ele>
        <time>2024-05-10T12:42:55Z</time>
      </trkpt>
      <trkpt lat="46.53093" lon="6.01951">
        <ele>708.4</ele>
        <time>2024-05-10T12:43:06Z</time>
      </trkpt>
      <trkpt lat="46.53098" lon="6.01935">
        <ele>711</ele>
        <time>2024-05-10T12:43:16Z</time>
      </trkpt>
      <trkpt lat="46.53103" lon="6.01916">
        <ele>713.8</ele>
        <time>2024-05-10T12:43:27Z</time>
      </trkpt>
      <trkpt lat="46.53103" lon="6.01904">
        <ele>715.4</ele>
        <time>2024-05-10T12:43:37Z</time>
      </trkpt>
      <trkpt lat="46.53101" lon="6.01889">
        <ele>717.4</ele>
        <time>2024-05-10T12:43:48Z</time>
      </trkpt>
      <trkpt lat="46.53102" lon="6.01874">
        <ele>718.7</ele>
        <time>2024-05-10T12:43:58Z</time>
      </trkpt>
      <trkpt lat="46.53102" lon="6.01857">
        <ele>719.8</ele>
        <time>2024-05-10T12:44:09Z</time>
      </trkpt>
      <trkpt lat="46.53102" lon="6.01849">
        <ele>720.3</ele>
        <time>2024-05-10T12:44:19Z</time>
      </trkpt>
      <trkpt lat="46.53105" lon="6.01829">
        <ele>722</ele>
        <time>2024-05-10T12:44:30Z</time>
      </trkpt>
      <trkpt lat="46.53112" lon="6.01801">
        <ele>724.3</ele>
        <time>2024-05-10T12:44:41Z</time>
      </trkpt>
      <trkpt lat="46.53119" lon="6.01776">
        <ele>725.9</ele>
        <time>2024-05-10T12:44:51Z</time>
      </trkpt>
      <trkpt lat="46.53132" lon="6.01756">
        <ele>728.1</ele>
        <time>2024-05-10T12:45:01Z</time>
      </trkpt>
      <trkpt lat="46.53148" lon="6.01737">
        <ele>731.3</ele>
        <time>2024-05-10T12:45:12Z</time>
      </trkpt>
      <trkpt lat="46.53154" lon="6.01728">
        <ele>733.4</ele>
        <time>2024-05-10T12:45:22Z</time>
      </trkpt>
      <trkpt lat="46.53159" lon="6.01723">
        <ele>734.9</ele>
        <time>2024-05-10T12:45:32Z</time>
      </trkpt>
      <trkpt lat="46.53164" lon="6.01715">
        <ele>736.9</ele>
        <time>2024-05-10T12:45:43Z</time>
      </trkpt>
      <trkpt lat="46.53169" lon="6.0171">
        <ele>738.8</ele>
        <time>2024-05-10T12:45:53Z</time>
      </trkpt>
      <trkpt lat="46.53173" lon="6.01704">
        <ele>740.4</ele>
        <time>2024-05-10T12:46:04Z</time>
      </trkpt>
      <trkpt lat="46.53177" lon="6.017">
        <ele>741.9</ele>
        <time>2024-05-10T12:46:14Z</time>
      </trkpt>
      <trkpt lat="46.53184" lon="6.01693">
        <ele>744.2</ele>
        <time>2024-05-10T12:46:25Z</time>
      </trkpt>
      <trkpt lat="46.53191" lon="6.01684">
        <ele>746.6</ele>
        <time>2024-05-10T12:46:36Z</time>
      </trkpt>
      <trkpt lat="46.53195" lon="6.0168">
        <ele>747.6</ele>
        <time>2024-05-10T12:46:46Z</time>
      </trkpt>
      <trkpt lat="46.53195" lon="6.0168">
        <ele>747.6</ele>
        <time>2024-05-10T12:46:57Z</time>
      </trkpt>
      <trkpt lat="46.53196" lon="6.0168">
        <ele>747.9</ele>
        <time>2024-05-10T12:47:07Z</time>
      </trkpt>
      <trkpt lat="46.53202" lon="6.01675">
        <ele>749.5</ele>
        <time>2024-05-10T12:47:17Z</time>
      </trkpt>
      <trkpt lat="46.53208" lon="6.01671">
        <ele>751</ele>
        <time>2024-05-10T12:47:28Z</time>
      </trkpt>
      <trkpt lat="46.53209" lon="6.0167">
        <ele>751.3</ele>
        <time>2024-05-10T12:47:39Z</time>
      </trkpt>
      <trkpt lat="46.53216" lon="6.01663">
        <ele>753.3</ele>
        <time>2024-05-10T12:47:49Z</time>
      </trkpt>
      <trkpt lat="46.53222" lon="6.01657">
        <ele>755.2</ele>
        <time>2024-05-10T12:47:59Z</time>
      </trkpt>
      <trkpt lat="46.53231" lon="6.0165">
        <ele>757.7</ele>
        <time>2024-05-10T12:48:10Z</time>
      </trkpt>
      <trkpt lat="46.53237" lon="6.01645">
        <ele>759.6</ele>
        <time>2024-05-10T12:48:20Z</time>
      </trkpt>
      <trkpt lat="46.53246" lon="6.01639">
        <ele>761.9</ele>
        <time>2024-05-10T12:48:30Z</time>
      </trkpt>
      <trkpt lat="46.53252" lon="6.01634">
        <ele>763.7</ele>
        <time>2024-05-10T12:48:41Z</time>
      </trkpt>
      <trkpt lat="46.53259" lon="6.01628">
        <ele>765.7</ele>
        <time>2024-05-10T12:48:52Z</time>
      </trkpt>
      <trkpt lat="46.53265" lon="6.01621">
        <ele>767.5</ele>
        <time>2024-05-10T12:49:02Z</time>
      </trkpt>
      <trkpt lat="46.53271" lon="6.01614">
        <ele>769.5</ele>
        <time>2024-05-10T12:49:12Z</time>
      </trkpt>
      <trkpt lat="46.5328" lon="6.01608">
        <ele>771.7</ele>
        <time>2024-05-10T12:49:23Z</time>
      </trkpt>
      <trkpt lat="46.53289" lon="6.01602">
        <ele>774</ele>
        <time>2024-05-10T12:49:34Z</time>
      </trkpt>
      <trkpt lat="46.53298" lon="6.01594">
        <ele>776.5</ele>
        <time>2024-05-10T12:49:45Z</time>
      </trkpt>
      <trkpt lat="46.53305" lon="6.01589">
        <ele>778.3</ele>
        <time>2024-05-10T12:49:56Z</time>
      </trkpt>
      <trkpt lat="46.53311" lon="6.01584">
        <ele>780.1</ele>
        <time>2024-05-10T12:50:07Z</time>
      </trkpt>
      <trkpt lat="46.53319" lon="6.01581">
        <ele>782.1</ele>
        <time>2024-05-10T12:50:18Z</time>
      </trkpt>
      <trkpt lat="46.53327" lon="6.01576">
        <ele>784.3</ele>
        <time>2024-05-10T12:50:29Z</time>
      </trkpt>
      <trkpt lat="46.53335" lon="6.01572">
        <ele>786.3</ele>
        <time>2024-05-10T12:50:40Z</time>
      </trkpt>
      <trkpt lat="46.53337" lon="6.01573">
        <ele>786.9</ele>
        <time>2024-05-10T12:50:50Z</time>
      </trkpt>
      <trkpt lat="46.53341" lon="6.01583">
        <ele>788.5</ele>
        <time>2024-05-10T12:51:01Z</time>
      </trkpt>
      <trkpt lat="46.53341" lon="6.0159">
        <ele>789.4</ele>
        <time>2024-05-10T12:51:12Z</time>
      </trkpt>
      <trkpt lat="46.53341" lon="6.01612">
        <ele>791.6</ele>
        <time>2024-05-10T12:51:23Z</time>
      </trkpt>
      <trkpt lat="46.53343" lon="6.01634">
        <ele>793.6</ele>
        <time>2024-05-10T12:51:34Z</time>
      </trkpt>
      <trkpt lat="46.53347" lon="6.01653">
        <ele>795.7</ele>
        <time>2024-05-10T12:51:45Z</time>
      </trkpt>
      <trkpt lat="46.53353" lon="6.01669">
        <ele>798.1</ele>
        <time>2024-05-10T12:51:55Z</time>
      </trkpt>
      <trkpt lat="46.53355" lon="6.01673">
        <ele>798.8</ele>
        <time>2024-05-10T12:52:05Z</time>
      </trkpt>
      <trkpt lat="46.53359" lon="6.01674">
        <ele>799.9</ele>
        <time>2024-05-10T12:52:16Z</time>
      </trkpt>
      <trkpt lat="46.53361" lon="6.01672">
        <ele>800.7</ele>
        <time>2024-05-10T12:52:26Z</time>
      </trkpt>
      <trkpt lat="46.5337" lon="6.01674">
        <ele>803.7</ele>
        <time>2024-05-10T12:52:37Z</time>
      </trkpt>
      <trkpt lat="46.53375" lon="6.01679">
        <ele>806.7</ele>
        <time>2024-05-10T12:52:47Z</time>
      </trkpt>
      <trkpt lat="46.53378" lon="6.0167">
        <ele>807.3</ele>
        <time>2024-05-10T12:52:58Z</time>
      </trkpt>
      <trkpt lat="46.53388" lon="6.0165">
        <ele>808.6</ele>
        <time>2024-05-10T12:53:09Z</time>
      </trkpt>
      <trkpt lat="46.53405" lon="6.01628">
        <ele>810.4</ele>
        <time>2024-05-10T12:53:20Z</time>
      </trkpt>
      <trkpt lat="46.53425" lon="6.01603">
        <ele>811.3</ele>
        <time>2024-05-10T12:53:30Z</time>
      </trkpt>
      <trkpt lat="46.53444" lon="6.01594">
        <ele>812.6</ele>
        <time>2024-05-10T12:53:40Z</time>
      </trkpt>
      <trkpt lat="46.53466" lon="6.01592">
        <ele>814</ele>
        <time>2024-05-10T12:53:50Z</time>
      </trkpt>
      <trkpt lat="46.53487" lon="6.01583">
        <ele>815.4</ele>
        <time>2024-05-10T12:54:00Z</time>
      </trkpt>
      <trkpt lat="46.53504" lon="6.01582">
        <ele>816.4</ele>
        <time>2024-05-10T12:54:10Z</time>
      </trkpt>
      <trkpt lat="46.53513" lon="6.01579">
        <ele>816.9</ele>
        <time>2024-05-10T12:54:21Z</time>
      </trkpt>
      <trkpt lat="46.53535" lon="6.0159">
        <ele>818.3</ele>
        <time>2024-05-10T12:54:31Z</time>
      </trkpt>
      <trkpt lat="46.53572" lon="6.01594">
        <ele>820.5</ele>
        <time>2024-05-10T12:54:42Z</time>
      </trkpt>
      <trkpt lat="46.53604" lon="6.01596">
        <ele>822.6</ele>
        <time>2024-05-10T12:54:52Z</time>
      </trkpt>
      <trkpt lat="46.53636" lon="6.01599">
        <ele>826.4</ele>
        <time>2024-05-10T12:55:02Z</time>
      </trkpt>
      <trkpt lat="46.53666" lon="6.016">
        <ele>827.2</ele>
        <time>2024-05-10T12:55:13Z</time>
      </trkpt>
      <trkpt lat="46.53691" lon="6.01608">
        <ele>828.7</ele>
        <time>2024-05-10T12:55:23Z</time>
      </trkpt>
      <trkpt lat="46.5372" lon="6.01616">
        <ele>830.3</ele>
        <time>2024-05-10T12:55:34Z</time>
      </trkpt>
      <trkpt lat="46.53741" lon="6.01618">
        <ele>831.6</ele>
        <time>2024-05-10T12:55:45Z</time>
      </trkpt>
      <trkpt lat="46.53751" lon="6.01628">
        <ele>833.3</ele>
        <time>2024-05-10T12:55:55Z</time>
      </trkpt>
      <trkpt lat="46.53766" lon="6.01637">
        <ele>835.4</ele>
        <time>2024-05-10T12:56:05Z</time>
      </trkpt>
      <trkpt lat="46.53782" lon="6.01647">
        <ele>838</ele>
        <time>2024-05-10T12:56:16Z</time>
      </trkpt>
      <trkpt lat="46.53797" lon="6.01662">
        <ele>840.7</ele>
        <time>2024-05-10T12:56:27Z</time>
      </trkpt>
      <trkpt lat="46.53809" lon="6.01679">
        <ele>843.4</ele>
        <time>2024-05-10T12:56:38Z</time>
      </trkpt>
      <trkpt lat="46.5382" lon="6.01697">
        <ele>846.2</ele>
        <time>2024-05-10T12:56:49Z</time>
      </trkpt>
      <trkpt lat="46.53833" lon="6.01712">
        <ele>848.7</ele>
        <time>2024-05-10T12:57:00Z</time>
      </trkpt>
      <trkpt lat="46.53845" lon="6.01715">
        <ele>850</ele>
        <time>2024-05-10T12:57:11Z</time>
      </trkpt>
      <trkpt lat="46.53857" lon="6.0171">
        <ele>850.5</ele>
        <time>2024-05-10T12:57:21Z</time>
      </trkpt>
      <trkpt lat="46.53873" lon="6.01707">
        <ele>850.6</ele>
        <time>2024-05-10T12:57:32Z</time>
      </trkpt>
      <trkpt lat="46.53892" lon="6.01704">
        <ele>850.5</ele>
        <time>2024-05-10T12:57:43Z</time>
      </trkpt>
      <trkpt lat="46.5391" lon="6.01703">
        <ele>850.6</ele>
        <time>2024-05-10T12:57:54Z</time>
      </trkpt>
      <trkpt lat="46.53926" lon="6.01709">
        <ele>850.6</ele>
        <time>2024-05-10T12:58:05Z</time>
      </trkpt>
      <trkpt lat="46.53938" lon="6.01726">
        <ele>850.4</ele>
        <time>2024-05-10T12:58:16Z</time>
      </trkpt>
      <trkpt lat="46.53924" lon="6.01746">
        <ele>851.3</ele>
        <time>2024-05-10T12:58:26Z</time>
      </trkpt>
      <trkpt lat="46.53902" lon="6.01768">
        <ele>851.7</ele>
        <time>2024-05-10T12:58:37Z</time>
      </trkpt>
      <trkpt lat="46.53905" lon="6.01783">
        <ele>851.7</ele>
        <time>2024-05-10T12:58:48Z</time>
      </trkpt>
      <trkpt lat="46.53905" lon="6.01783">
        <ele>851.7</ele>
        <time>2024-05-10T12:58:58Z</time>
      </trkpt>
      <trkpt lat="46.53905" lon="6.01783">
        <ele>851.7</ele>
        <time>2024-05-10T12:59:08Z</time>
      </trkpt>
      <trkpt lat="46.53903" lon="6.01785">
        <ele>851.8</ele>
        <time>2024-05-10T12:59:19Z</time>
      </trkpt>
      <trkpt lat="46.53903" lon="6.01785">
        <ele>851.8</ele>
        <time>2024-05-10T12:59:30Z</time>
      </trkpt>
      <trkpt lat="46.53894" lon="6.0179">
        <ele>851.9</ele>
        <time>2024-05-10T12:59:40Z</time>
      </trkpt>
      <trkpt lat="46.53895" lon="6.01791">
        <ele>851.9</ele>
        <time>2024-05-10T12:59:50Z</time>
      </trkpt>
      <trkpt lat="46.53895" lon="6.01791">
        <ele>851.9</ele>
        <time>2024-05-10T13:00:01Z</time>
      </trkpt>
      <trkpt lat="46.53895" lon="6.01791">
        <ele>851.9</ele>
        <time>2024-05-10T13:00:12Z</time>
      </trkpt>
      <trkpt lat="46.53895" lon="6.01791">
        <ele>851.9</ele>
        <time>2024-05-10T13:00:22Z</time>
      </trkpt>
      <trkpt lat="46.53895" lon="6.01791">
        <ele>851.9</ele>
        <time>2024-05-10T13:00:33Z</time>
      </trkpt>
      <trkpt lat="46.53895" lon="6.01791">
        <ele>851.9</ele>
        <time>2024-05-10T13:00:43Z</time>
      </trkpt>
      <trkpt lat="46.53895" lon="6.01791">
        <ele>851.9</ele>
        <time>2024-05-10T13:00:53Z</time>
      </trkpt>
      <trkpt lat="46.53895" lon="6.01791">
        <ele>851.9</ele>
        <time>2024-05-10T13:01:04Z</time>
      </trkpt>
    </trkseg>
  </trk>
</gpx>